<?xml version="1.0" encoding="UTF-8" standalone="no" ?>
<gpx xmlns="http://www.topografix.com/GPX/1/1" xmlns:xsi="http://www.w3.org/2001/XMLSchema-instance" xsi:schemaLocation="http://www.topografix.com/GPX/1/1 http://www.topografix.com/GPX/1/1/gpx.xsd" version="1.1" creator="VisuGPX - https://www.visugpx.com">
  <metadata>
    <name>Vercors19-5vtt</name>
    <desc><![CDATA[Circuit entre Villard de Lans  et Lans en Vercors. Le facile côtoie le difficile.]]></desc>
  </metadata>
  <trk>
    <name><![CDATA[Vercors19-5vtt]]></name>
    <trkseg>
      <trkpt lat="45.05831" lon="5.54736">
        <ele>968.54</ele>
        <time>2019-08-29T06:55:00Z</time>
      </trkpt>
      <trkpt lat="45.05831" lon="5.54736">
        <ele>968.54</ele>
        <time>2019-08-29T06:55:01Z</time>
      </trkpt>
      <trkpt lat="45.05829" lon="5.54733">
        <ele>968.36</ele>
        <time>2019-08-29T06:55:31Z</time>
      </trkpt>
      <trkpt lat="45.0583" lon="5.54727">
        <ele>968.71</ele>
        <time>2019-08-29T06:55:57Z</time>
      </trkpt>
      <trkpt lat="45.05834" lon="5.54726">
        <ele>969.05</ele>
        <time>2019-08-29T06:56:09Z</time>
      </trkpt>
      <trkpt lat="45.05847" lon="5.54727">
        <ele>969.27</ele>
        <time>2019-08-29T06:56:25Z</time>
      </trkpt>
      <trkpt lat="45.05847" lon="5.54728">
        <ele>969.3</ele>
        <time>2019-08-29T06:56:26Z</time>
      </trkpt>
      <trkpt lat="45.05848" lon="5.54737">
        <ele>969.29</ele>
        <time>2019-08-29T06:56:31Z</time>
      </trkpt>
      <trkpt lat="45.05846" lon="5.54744">
        <ele>969.24</ele>
        <time>2019-08-29T06:56:36Z</time>
      </trkpt>
      <trkpt lat="45.0585" lon="5.54754">
        <ele>969.82</ele>
        <time>2019-08-29T06:56:51Z</time>
      </trkpt>
      <trkpt lat="45.05851" lon="5.54756">
        <ele>969.85</ele>
        <time>2019-08-29T06:56:52Z</time>
      </trkpt>
      <trkpt lat="45.05852" lon="5.54767">
        <ele>970.06</ele>
        <time>2019-08-29T06:57:09Z</time>
      </trkpt>
      <trkpt lat="45.05852" lon="5.54769">
        <ele>970.56</ele>
        <time>2019-08-29T06:57:44Z</time>
      </trkpt>
      <trkpt lat="45.05852" lon="5.54778">
        <ele>970.78</ele>
        <time>2019-08-29T06:58:02Z</time>
      </trkpt>
      <trkpt lat="45.0586" lon="5.54792">
        <ele>970.97</ele>
        <time>2019-08-29T06:58:17Z</time>
      </trkpt>
      <trkpt lat="45.05864" lon="5.54787">
        <ele>971.35</ele>
        <time>2019-08-29T06:58:38Z</time>
      </trkpt>
      <trkpt lat="45.05896" lon="5.54773">
        <ele>970.35</ele>
        <time>2019-08-29T06:58:51Z</time>
      </trkpt>
      <trkpt lat="45.05911" lon="5.54768">
        <ele>969.82</ele>
        <time>2019-08-29T06:58:55Z</time>
      </trkpt>
      <trkpt lat="45.05932" lon="5.54762">
        <ele>969.04</ele>
        <time>2019-08-29T06:59:00Z</time>
      </trkpt>
      <trkpt lat="45.06001" lon="5.54743">
        <ele>966.94</ele>
        <time>2019-08-29T06:59:12Z</time>
      </trkpt>
      <trkpt lat="45.06089" lon="5.5475">
        <ele>965.16</ele>
        <time>2019-08-29T06:59:31Z</time>
      </trkpt>
      <trkpt lat="45.06137" lon="5.54753">
        <ele>964.57</ele>
        <time>2019-08-29T06:59:40Z</time>
      </trkpt>
      <trkpt lat="45.06148" lon="5.54751">
        <ele>964.34</ele>
        <time>2019-08-29T06:59:42Z</time>
      </trkpt>
      <trkpt lat="45.06153" lon="5.54752">
        <ele>964.22</ele>
        <time>2019-08-29T06:59:43Z</time>
      </trkpt>
      <trkpt lat="45.06157" lon="5.54755">
        <ele>964.12</ele>
        <time>2019-08-29T06:59:44Z</time>
      </trkpt>
      <trkpt lat="45.06161" lon="5.54759">
        <ele>963.9</ele>
        <time>2019-08-29T06:59:45Z</time>
      </trkpt>
      <trkpt lat="45.06163" lon="5.54764">
        <ele>963.9</ele>
        <time>2019-08-29T06:59:46Z</time>
      </trkpt>
      <trkpt lat="45.06163" lon="5.54769">
        <ele>963.75</ele>
        <time>2019-08-29T06:59:47Z</time>
      </trkpt>
      <trkpt lat="45.06162" lon="5.54774">
        <ele>963.72</ele>
        <time>2019-08-29T06:59:48Z</time>
      </trkpt>
      <trkpt lat="45.0616" lon="5.54778">
        <ele>963.72</ele>
        <time>2019-08-29T06:59:49Z</time>
      </trkpt>
      <trkpt lat="45.06158" lon="5.54782">
        <ele>963.75</ele>
        <time>2019-08-29T06:59:50Z</time>
      </trkpt>
      <trkpt lat="45.06156" lon="5.54786">
        <ele>963.82</ele>
        <time>2019-08-29T06:59:51Z</time>
      </trkpt>
      <trkpt lat="45.06154" lon="5.54789">
        <ele>963.92</ele>
        <time>2019-08-29T06:59:52Z</time>
      </trkpt>
      <trkpt lat="45.06139" lon="5.54819">
        <ele>966.1</ele>
        <time>2019-08-29T07:00:04Z</time>
      </trkpt>
      <trkpt lat="45.0614" lon="5.54821">
        <ele>966.33</ele>
        <time>2019-08-29T07:00:05Z</time>
      </trkpt>
      <trkpt lat="45.06142" lon="5.54822">
        <ele>966.52</ele>
        <time>2019-08-29T07:00:06Z</time>
      </trkpt>
      <trkpt lat="45.06144" lon="5.54822">
        <ele>966.69</ele>
        <time>2019-08-29T07:00:07Z</time>
      </trkpt>
      <trkpt lat="45.06145" lon="5.54821">
        <ele>966.84</ele>
        <time>2019-08-29T07:00:08Z</time>
      </trkpt>
      <trkpt lat="45.06147" lon="5.5482">
        <ele>967.09</ele>
        <time>2019-08-29T07:00:09Z</time>
      </trkpt>
      <trkpt lat="45.0617" lon="5.54794">
        <ele>969.23</ele>
        <time>2019-08-29T07:00:23Z</time>
      </trkpt>
      <trkpt lat="45.06182" lon="5.54771">
        <ele>968.47</ele>
        <time>2019-08-29T07:00:29Z</time>
      </trkpt>
      <trkpt lat="45.06184" lon="5.54771">
        <ele>968.24</ele>
        <time>2019-08-29T07:00:30Z</time>
      </trkpt>
      <trkpt lat="45.06187" lon="5.54772">
        <ele>968.03</ele>
        <time>2019-08-29T07:00:31Z</time>
      </trkpt>
      <trkpt lat="45.06189" lon="5.54773">
        <ele>967.83</ele>
        <time>2019-08-29T07:00:32Z</time>
      </trkpt>
      <trkpt lat="45.06191" lon="5.54775">
        <ele>967.66</ele>
        <time>2019-08-29T07:00:33Z</time>
      </trkpt>
      <trkpt lat="45.06193" lon="5.54777">
        <ele>967.51</ele>
        <time>2019-08-29T07:00:34Z</time>
      </trkpt>
      <trkpt lat="45.06235" lon="5.54802">
        <ele>966.81</ele>
        <time>2019-08-29T07:00:48Z</time>
      </trkpt>
      <trkpt lat="45.06284" lon="5.54808">
        <ele>966.61</ele>
        <time>2019-08-29T07:01:03Z</time>
      </trkpt>
      <trkpt lat="45.06337" lon="5.54817">
        <ele>966.96</ele>
        <time>2019-08-29T07:01:19Z</time>
      </trkpt>
      <trkpt lat="45.06381" lon="5.54822">
        <ele>967.85</ele>
        <time>2019-08-29T07:01:32Z</time>
      </trkpt>
      <trkpt lat="45.0642" lon="5.54832">
        <ele>969.99</ele>
        <time>2019-08-29T07:01:46Z</time>
      </trkpt>
      <trkpt lat="45.06464" lon="5.54839">
        <ele>972.71</ele>
        <time>2019-08-29T07:02:03Z</time>
      </trkpt>
      <trkpt lat="45.06498" lon="5.54843">
        <ele>974.94</ele>
        <time>2019-08-29T07:02:18Z</time>
      </trkpt>
      <trkpt lat="45.06532" lon="5.54835">
        <ele>976</ele>
        <time>2019-08-29T07:02:32Z</time>
      </trkpt>
      <trkpt lat="45.06569" lon="5.54822">
        <ele>975.29</ele>
        <time>2019-08-29T07:02:43Z</time>
      </trkpt>
      <trkpt lat="45.06631" lon="5.54802">
        <ele>973.18</ele>
        <time>2019-08-29T07:02:58Z</time>
      </trkpt>
      <trkpt lat="45.06662" lon="5.54793">
        <ele>971.94</ele>
        <time>2019-08-29T07:03:09Z</time>
      </trkpt>
      <trkpt lat="45.06692" lon="5.54783">
        <ele>969.13</ele>
        <time>2019-08-29T07:03:20Z</time>
      </trkpt>
      <trkpt lat="45.06699" lon="5.54779">
        <ele>967.24</ele>
        <time>2019-08-29T07:03:28Z</time>
      </trkpt>
      <trkpt lat="45.06723" lon="5.54767">
        <ele>965.97</ele>
        <time>2019-08-29T07:03:34Z</time>
      </trkpt>
      <trkpt lat="45.06728" lon="5.54766">
        <ele>965.63</ele>
        <time>2019-08-29T07:03:35Z</time>
      </trkpt>
      <trkpt lat="45.06744" lon="5.5476">
        <ele>963.31</ele>
        <time>2019-08-29T07:03:40Z</time>
      </trkpt>
      <trkpt lat="45.06746" lon="5.54761">
        <ele>962.92</ele>
        <time>2019-08-29T07:03:41Z</time>
      </trkpt>
      <trkpt lat="45.06749" lon="5.54763">
        <ele>962.59</ele>
        <time>2019-08-29T07:03:42Z</time>
      </trkpt>
      <trkpt lat="45.06751" lon="5.54766">
        <ele>962.3</ele>
        <time>2019-08-29T07:03:43Z</time>
      </trkpt>
      <trkpt lat="45.06753" lon="5.54769">
        <ele>962.06</ele>
        <time>2019-08-29T07:03:44Z</time>
      </trkpt>
      <trkpt lat="45.06755" lon="5.54772">
        <ele>961.88</ele>
        <time>2019-08-29T07:03:45Z</time>
      </trkpt>
      <trkpt lat="45.06782" lon="5.54811">
        <ele>961.54</ele>
        <time>2019-08-29T07:03:57Z</time>
      </trkpt>
      <trkpt lat="45.06805" lon="5.5484">
        <ele>962.92</ele>
        <time>2019-08-29T07:04:10Z</time>
      </trkpt>
      <trkpt lat="45.0681" lon="5.54839">
        <ele>963.43</ele>
        <time>2019-08-29T07:04:13Z</time>
      </trkpt>
      <trkpt lat="45.06811" lon="5.54837">
        <ele>963.57</ele>
        <time>2019-08-29T07:04:14Z</time>
      </trkpt>
      <trkpt lat="45.06812" lon="5.54834">
        <ele>963.79</ele>
        <time>2019-08-29T07:04:15Z</time>
      </trkpt>
      <trkpt lat="45.06813" lon="5.54832">
        <ele>963.79</ele>
        <time>2019-08-29T07:04:16Z</time>
      </trkpt>
      <trkpt lat="45.06815" lon="5.54829">
        <ele>963.98</ele>
        <time>2019-08-29T07:04:17Z</time>
      </trkpt>
      <trkpt lat="45.06836" lon="5.54794">
        <ele>964.19</ele>
        <time>2019-08-29T07:04:27Z</time>
      </trkpt>
      <trkpt lat="45.06852" lon="5.54767">
        <ele>963.29</ele>
        <time>2019-08-29T07:04:33Z</time>
      </trkpt>
      <trkpt lat="45.06858" lon="5.54757">
        <ele>962.87</ele>
        <time>2019-08-29T07:04:35Z</time>
      </trkpt>
      <trkpt lat="45.06891" lon="5.54704">
        <ele>960.45</ele>
        <time>2019-08-29T07:04:46Z</time>
      </trkpt>
      <trkpt lat="45.06895" lon="5.547">
        <ele>960.28</ele>
        <time>2019-08-29T07:04:47Z</time>
      </trkpt>
      <trkpt lat="45.06898" lon="5.54696">
        <ele>960.14</ele>
        <time>2019-08-29T07:04:48Z</time>
      </trkpt>
      <trkpt lat="45.06902" lon="5.54693">
        <ele>960.03</ele>
        <time>2019-08-29T07:04:49Z</time>
      </trkpt>
      <trkpt lat="45.06906" lon="5.54691">
        <ele>959.91</ele>
        <time>2019-08-29T07:04:50Z</time>
      </trkpt>
      <trkpt lat="45.0691" lon="5.5469">
        <ele>959.82</ele>
        <time>2019-08-29T07:04:51Z</time>
      </trkpt>
      <trkpt lat="45.06939" lon="5.54691">
        <ele>959.48</ele>
        <time>2019-08-29T07:04:59Z</time>
      </trkpt>
      <trkpt lat="45.0699" lon="5.54693">
        <ele>959.9</ele>
        <time>2019-08-29T07:05:12Z</time>
      </trkpt>
      <trkpt lat="45.07036" lon="5.54696">
        <ele>960.74</ele>
        <time>2019-08-29T07:05:24Z</time>
      </trkpt>
      <trkpt lat="45.07053" lon="5.547">
        <ele>960.96</ele>
        <time>2019-08-29T07:05:28Z</time>
      </trkpt>
      <trkpt lat="45.071" lon="5.54722">
        <ele>961.04</ele>
        <time>2019-08-29T07:05:40Z</time>
      </trkpt>
      <trkpt lat="45.07129" lon="5.54732">
        <ele>960.92</ele>
        <time>2019-08-29T07:05:48Z</time>
      </trkpt>
      <trkpt lat="45.07169" lon="5.54746">
        <ele>960.89</ele>
        <time>2019-08-29T07:05:59Z</time>
      </trkpt>
      <trkpt lat="45.07216" lon="5.54764">
        <ele>961.21</ele>
        <time>2019-08-29T07:06:11Z</time>
      </trkpt>
      <trkpt lat="45.07234" lon="5.54767">
        <ele>961.17</ele>
        <time>2019-08-29T07:06:16Z</time>
      </trkpt>
      <trkpt lat="45.07245" lon="5.54764">
        <ele>961.07</ele>
        <time>2019-08-29T07:06:18Z</time>
      </trkpt>
      <trkpt lat="45.07265" lon="5.54758">
        <ele>959.93</ele>
        <time>2019-08-29T07:06:21Z</time>
      </trkpt>
      <trkpt lat="45.07271" lon="5.54757">
        <ele>959.46</ele>
        <time>2019-08-29T07:06:22Z</time>
      </trkpt>
      <trkpt lat="45.07285" lon="5.54757">
        <ele>958.51</ele>
        <time>2019-08-29T07:06:24Z</time>
      </trkpt>
      <trkpt lat="45.07305" lon="5.54762">
        <ele>957.28</ele>
        <time>2019-08-29T07:06:27Z</time>
      </trkpt>
      <trkpt lat="45.07335" lon="5.54782">
        <ele>955.46</ele>
        <time>2019-08-29T07:06:31Z</time>
      </trkpt>
      <trkpt lat="45.07342" lon="5.5479">
        <ele>954.99</ele>
        <time>2019-08-29T07:06:32Z</time>
      </trkpt>
      <trkpt lat="45.07363" lon="5.54812">
        <ele>952.91</ele>
        <time>2019-08-29T07:06:36Z</time>
      </trkpt>
      <trkpt lat="45.07368" lon="5.54813">
        <ele>952.38</ele>
        <time>2019-08-29T07:06:37Z</time>
      </trkpt>
      <trkpt lat="45.07371" lon="5.54811">
        <ele>951.86</ele>
        <time>2019-08-29T07:06:38Z</time>
      </trkpt>
      <trkpt lat="45.07374" lon="5.54808">
        <ele>951.37</ele>
        <time>2019-08-29T07:06:39Z</time>
      </trkpt>
      <trkpt lat="45.07374" lon="5.54805">
        <ele>950.95</ele>
        <time>2019-08-29T07:06:40Z</time>
      </trkpt>
      <trkpt lat="45.07374" lon="5.54802">
        <ele>950.57</ele>
        <time>2019-08-29T07:06:41Z</time>
      </trkpt>
      <trkpt lat="45.07373" lon="5.54798">
        <ele>950.2</ele>
        <time>2019-08-29T07:06:42Z</time>
      </trkpt>
      <trkpt lat="45.07372" lon="5.54795">
        <ele>949.85</ele>
        <time>2019-08-29T07:06:43Z</time>
      </trkpt>
      <trkpt lat="45.07371" lon="5.54791">
        <ele>949.53</ele>
        <time>2019-08-29T07:06:44Z</time>
      </trkpt>
      <trkpt lat="45.0737" lon="5.54788">
        <ele>949.02</ele>
        <time>2019-08-29T07:06:45Z</time>
      </trkpt>
      <trkpt lat="45.07369" lon="5.54785">
        <ele>948.78</ele>
        <time>2019-08-29T07:06:46Z</time>
      </trkpt>
      <trkpt lat="45.0737" lon="5.54783">
        <ele>948.55</ele>
        <time>2019-08-29T07:06:47Z</time>
      </trkpt>
      <trkpt lat="45.0737" lon="5.54784">
        <ele>947.29</ele>
        <time>2019-08-29T07:06:59Z</time>
      </trkpt>
      <trkpt lat="45.07371" lon="5.54783">
        <ele>947.52</ele>
        <time>2019-08-29T07:07:08Z</time>
      </trkpt>
      <trkpt lat="45.07373" lon="5.54781">
        <ele>947.57</ele>
        <time>2019-08-29T07:07:09Z</time>
      </trkpt>
      <trkpt lat="45.07382" lon="5.5474">
        <ele>946.87</ele>
        <time>2019-08-29T07:07:18Z</time>
      </trkpt>
      <trkpt lat="45.07391" lon="5.54658">
        <ele>945.27</ele>
        <time>2019-08-29T07:07:33Z</time>
      </trkpt>
      <trkpt lat="45.07407" lon="5.54626">
        <ele>945.08</ele>
        <time>2019-08-29T07:07:42Z</time>
      </trkpt>
      <trkpt lat="45.0741" lon="5.54626">
        <ele>945.07</ele>
        <time>2019-08-29T07:07:43Z</time>
      </trkpt>
      <trkpt lat="45.07413" lon="5.54627">
        <ele>945.07</ele>
        <time>2019-08-29T07:07:44Z</time>
      </trkpt>
      <trkpt lat="45.07415" lon="5.54628">
        <ele>945.07</ele>
        <time>2019-08-29T07:07:45Z</time>
      </trkpt>
      <trkpt lat="45.07417" lon="5.5463">
        <ele>945.08</ele>
        <time>2019-08-29T07:07:46Z</time>
      </trkpt>
      <trkpt lat="45.0742" lon="5.54632">
        <ele>945.14</ele>
        <time>2019-08-29T07:07:47Z</time>
      </trkpt>
      <trkpt lat="45.07463" lon="5.54668">
        <ele>945.62</ele>
        <time>2019-08-29T07:08:02Z</time>
      </trkpt>
      <trkpt lat="45.07487" lon="5.54683">
        <ele>946.16</ele>
        <time>2019-08-29T07:08:14Z</time>
      </trkpt>
      <trkpt lat="45.07518" lon="5.54696">
        <ele>947.5</ele>
        <time>2019-08-29T07:08:29Z</time>
      </trkpt>
      <trkpt lat="45.07546" lon="5.54708">
        <ele>949.12</ele>
        <time>2019-08-29T07:08:42Z</time>
      </trkpt>
      <trkpt lat="45.07565" lon="5.54717">
        <ele>952.27</ele>
        <time>2019-08-29T07:08:53Z</time>
      </trkpt>
      <trkpt lat="45.07606" lon="5.54733">
        <ele>953.95</ele>
        <time>2019-08-29T07:09:10Z</time>
      </trkpt>
      <trkpt lat="45.07657" lon="5.5476">
        <ele>954.01</ele>
        <time>2019-08-29T07:09:28Z</time>
      </trkpt>
      <trkpt lat="45.07707" lon="5.54784">
        <ele>954.87</ele>
        <time>2019-08-29T07:09:45Z</time>
      </trkpt>
      <trkpt lat="45.07764" lon="5.54812">
        <ele>955.24</ele>
        <time>2019-08-29T07:10:04Z</time>
      </trkpt>
      <trkpt lat="45.0781" lon="5.54828">
        <ele>956.81</ele>
        <time>2019-08-29T07:10:20Z</time>
      </trkpt>
      <trkpt lat="45.0786" lon="5.54849">
        <ele>956.96</ele>
        <time>2019-08-29T07:10:35Z</time>
      </trkpt>
      <trkpt lat="45.07864" lon="5.5485">
        <ele>956.88</ele>
        <time>2019-08-29T07:10:36Z</time>
      </trkpt>
      <trkpt lat="45.07936" lon="5.54854">
        <ele>954.7</ele>
        <time>2019-08-29T07:10:49Z</time>
      </trkpt>
      <trkpt lat="45.08" lon="5.54863">
        <ele>953.53</ele>
        <time>2019-08-29T07:11:02Z</time>
      </trkpt>
      <trkpt lat="45.08009" lon="5.54866">
        <ele>953.85</ele>
        <time>2019-08-29T07:11:04Z</time>
      </trkpt>
      <trkpt lat="45.08072" lon="5.54882">
        <ele>954.08</ele>
        <time>2019-08-29T07:11:18Z</time>
      </trkpt>
      <trkpt lat="45.08122" lon="5.54926">
        <ele>953.58</ele>
        <time>2019-08-29T07:11:31Z</time>
      </trkpt>
      <trkpt lat="45.08125" lon="5.5493">
        <ele>953.56</ele>
        <time>2019-08-29T07:11:32Z</time>
      </trkpt>
      <trkpt lat="45.08178" lon="5.54967">
        <ele>953.45</ele>
        <time>2019-08-29T07:11:46Z</time>
      </trkpt>
      <trkpt lat="45.08247" lon="5.55006">
        <ele>952.74</ele>
        <time>2019-08-29T07:12:03Z</time>
      </trkpt>
      <trkpt lat="45.08316" lon="5.55043">
        <ele>953.46</ele>
        <time>2019-08-29T07:12:21Z</time>
      </trkpt>
      <trkpt lat="45.08375" lon="5.55058">
        <ele>954.45</ele>
        <time>2019-08-29T07:12:37Z</time>
      </trkpt>
      <trkpt lat="45.08426" lon="5.55073">
        <ele>955.08</ele>
        <time>2019-08-29T07:12:51Z</time>
      </trkpt>
      <trkpt lat="45.08494" lon="5.55078">
        <ele>954.73</ele>
        <time>2019-08-29T07:13:09Z</time>
      </trkpt>
      <trkpt lat="45.08507" lon="5.55112">
        <ele>954.97</ele>
        <time>2019-08-29T07:13:18Z</time>
      </trkpt>
      <trkpt lat="45.08509" lon="5.5513">
        <ele>955.02</ele>
        <time>2019-08-29T07:13:21Z</time>
      </trkpt>
      <trkpt lat="45.0851" lon="5.55135">
        <ele>955</ele>
        <time>2019-08-29T07:13:22Z</time>
      </trkpt>
      <trkpt lat="45.08511" lon="5.55141">
        <ele>954.94</ele>
        <time>2019-08-29T07:13:23Z</time>
      </trkpt>
      <trkpt lat="45.08511" lon="5.55146">
        <ele>954.92</ele>
        <time>2019-08-29T07:13:24Z</time>
      </trkpt>
      <trkpt lat="45.08512" lon="5.55152">
        <ele>954.9</ele>
        <time>2019-08-29T07:13:25Z</time>
      </trkpt>
      <trkpt lat="45.08513" lon="5.55157">
        <ele>954.88</ele>
        <time>2019-08-29T07:13:26Z</time>
      </trkpt>
      <trkpt lat="45.08513" lon="5.55162">
        <ele>954.89</ele>
        <time>2019-08-29T07:13:27Z</time>
      </trkpt>
      <trkpt lat="45.08514" lon="5.55167">
        <ele>954.92</ele>
        <time>2019-08-29T07:13:28Z</time>
      </trkpt>
      <trkpt lat="45.08514" lon="5.55172">
        <ele>954.95</ele>
        <time>2019-08-29T07:13:29Z</time>
      </trkpt>
      <trkpt lat="45.08514" lon="5.55176">
        <ele>955.02</ele>
        <time>2019-08-29T07:13:30Z</time>
      </trkpt>
      <trkpt lat="45.08514" lon="5.55181">
        <ele>955.12</ele>
        <time>2019-08-29T07:13:31Z</time>
      </trkpt>
      <trkpt lat="45.08514" lon="5.55185">
        <ele>955.22</ele>
        <time>2019-08-29T07:13:32Z</time>
      </trkpt>
      <trkpt lat="45.08514" lon="5.55188">
        <ele>955.33</ele>
        <time>2019-08-29T07:13:33Z</time>
      </trkpt>
      <trkpt lat="45.08522" lon="5.55244">
        <ele>956.9</ele>
        <time>2019-08-29T07:13:48Z</time>
      </trkpt>
      <trkpt lat="45.08532" lon="5.55302">
        <ele>958.92</ele>
        <time>2019-08-29T07:14:05Z</time>
      </trkpt>
      <trkpt lat="45.08527" lon="5.55368">
        <ele>960.59</ele>
        <time>2019-08-29T07:14:23Z</time>
      </trkpt>
      <trkpt lat="45.0852" lon="5.55403">
        <ele>961.84</ele>
        <time>2019-08-29T07:14:35Z</time>
      </trkpt>
      <trkpt lat="45.08519" lon="5.55404">
        <ele>961.93</ele>
        <time>2019-08-29T07:14:36Z</time>
      </trkpt>
      <trkpt lat="45.08517" lon="5.55404">
        <ele>962.16</ele>
        <time>2019-08-29T07:14:37Z</time>
      </trkpt>
      <trkpt lat="45.08516" lon="5.55405">
        <ele>962.28</ele>
        <time>2019-08-29T07:14:38Z</time>
      </trkpt>
      <trkpt lat="45.08515" lon="5.55405">
        <ele>962.4</ele>
        <time>2019-08-29T07:14:39Z</time>
      </trkpt>
      <trkpt lat="45.08511" lon="5.55409">
        <ele>962.89</ele>
        <time>2019-08-29T07:14:45Z</time>
      </trkpt>
      <trkpt lat="45.0851" lon="5.5541">
        <ele>962.95</ele>
        <time>2019-08-29T07:14:46Z</time>
      </trkpt>
      <trkpt lat="45.08509" lon="5.55412">
        <ele>963.03</ele>
        <time>2019-08-29T07:14:47Z</time>
      </trkpt>
      <trkpt lat="45.08508" lon="5.55414">
        <ele>963.11</ele>
        <time>2019-08-29T07:14:48Z</time>
      </trkpt>
      <trkpt lat="45.08508" lon="5.55417">
        <ele>963.19</ele>
        <time>2019-08-29T07:14:49Z</time>
      </trkpt>
      <trkpt lat="45.08507" lon="5.5542">
        <ele>963.28</ele>
        <time>2019-08-29T07:14:50Z</time>
      </trkpt>
      <trkpt lat="45.08508" lon="5.55422">
        <ele>963.35</ele>
        <time>2019-08-29T07:14:51Z</time>
      </trkpt>
      <trkpt lat="45.08508" lon="5.55424">
        <ele>963.41</ele>
        <time>2019-08-29T07:14:52Z</time>
      </trkpt>
      <trkpt lat="45.08509" lon="5.55426">
        <ele>963.44</ele>
        <time>2019-08-29T07:14:53Z</time>
      </trkpt>
      <trkpt lat="45.0851" lon="5.55427">
        <ele>963.44</ele>
        <time>2019-08-29T07:14:54Z</time>
      </trkpt>
      <trkpt lat="45.08512" lon="5.55428">
        <ele>963.45</ele>
        <time>2019-08-29T07:14:55Z</time>
      </trkpt>
      <trkpt lat="45.08513" lon="5.55431">
        <ele>963.48</ele>
        <time>2019-08-29T07:14:56Z</time>
      </trkpt>
      <trkpt lat="45.08515" lon="5.55433">
        <ele>963.48</ele>
        <time>2019-08-29T07:14:57Z</time>
      </trkpt>
      <trkpt lat="45.08515" lon="5.55436">
        <ele>963.46</ele>
        <time>2019-08-29T07:14:58Z</time>
      </trkpt>
      <trkpt lat="45.08516" lon="5.5544">
        <ele>963.44</ele>
        <time>2019-08-29T07:14:59Z</time>
      </trkpt>
      <trkpt lat="45.08516" lon="5.55444">
        <ele>963.44</ele>
        <time>2019-08-29T07:15:00Z</time>
      </trkpt>
      <trkpt lat="45.08516" lon="5.55448">
        <ele>963.44</ele>
        <time>2019-08-29T07:15:01Z</time>
      </trkpt>
      <trkpt lat="45.08516" lon="5.55452">
        <ele>963.43</ele>
        <time>2019-08-29T07:15:02Z</time>
      </trkpt>
      <trkpt lat="45.08516" lon="5.55456">
        <ele>963.42</ele>
        <time>2019-08-29T07:15:03Z</time>
      </trkpt>
      <trkpt lat="45.08517" lon="5.5546">
        <ele>963.42</ele>
        <time>2019-08-29T07:15:04Z</time>
      </trkpt>
      <trkpt lat="45.08517" lon="5.55463">
        <ele>963.42</ele>
        <time>2019-08-29T07:15:05Z</time>
      </trkpt>
      <trkpt lat="45.08517" lon="5.55466">
        <ele>963.43</ele>
        <time>2019-08-29T07:15:06Z</time>
      </trkpt>
      <trkpt lat="45.08517" lon="5.55473">
        <ele>963.6</ele>
        <time>2019-08-29T07:15:18Z</time>
      </trkpt>
      <trkpt lat="45.08518" lon="5.55477">
        <ele>963.55</ele>
        <time>2019-08-29T07:15:33Z</time>
      </trkpt>
      <trkpt lat="45.08518" lon="5.55485">
        <ele>963.99</ele>
        <time>2019-08-29T07:15:48Z</time>
      </trkpt>
      <trkpt lat="45.08518" lon="5.55483">
        <ele>964.53</ele>
        <time>2019-08-29T07:16:27Z</time>
      </trkpt>
      <trkpt lat="45.08519" lon="5.55484">
        <ele>964.79</ele>
        <time>2019-08-29T07:16:49Z</time>
      </trkpt>
      <trkpt lat="45.08519" lon="5.55484">
        <ele>964.64</ele>
        <time>2019-08-29T07:17:20Z</time>
      </trkpt>
      <trkpt lat="45.08519" lon="5.55484">
        <ele>964.94</ele>
        <time>2019-08-29T07:17:56Z</time>
      </trkpt>
      <trkpt lat="45.08518" lon="5.55484">
        <ele>965.11</ele>
        <time>2019-08-29T07:18:18Z</time>
      </trkpt>
      <trkpt lat="45.08516" lon="5.55488">
        <ele>965.25</ele>
        <time>2019-08-29T07:18:24Z</time>
      </trkpt>
      <trkpt lat="45.08514" lon="5.55489">
        <ele>965.25</ele>
        <time>2019-08-29T07:18:25Z</time>
      </trkpt>
      <trkpt lat="45.08513" lon="5.5549">
        <ele>965.26</ele>
        <time>2019-08-29T07:18:26Z</time>
      </trkpt>
      <trkpt lat="45.08511" lon="5.55491">
        <ele>965.28</ele>
        <time>2019-08-29T07:18:27Z</time>
      </trkpt>
      <trkpt lat="45.08509" lon="5.55491">
        <ele>965.31</ele>
        <time>2019-08-29T07:18:28Z</time>
      </trkpt>
      <trkpt lat="45.08507" lon="5.55491">
        <ele>965.35</ele>
        <time>2019-08-29T07:18:29Z</time>
      </trkpt>
      <trkpt lat="45.08468" lon="5.55505">
        <ele>966.14</ele>
        <time>2019-08-29T07:18:48Z</time>
      </trkpt>
      <trkpt lat="45.08456" lon="5.55541">
        <ele>966.82</ele>
        <time>2019-08-29T07:19:02Z</time>
      </trkpt>
      <trkpt lat="45.08458" lon="5.55578">
        <ele>968.11</ele>
        <time>2019-08-29T07:19:16Z</time>
      </trkpt>
      <trkpt lat="45.08467" lon="5.55612">
        <ele>969.52</ele>
        <time>2019-08-29T07:19:31Z</time>
      </trkpt>
      <trkpt lat="45.08471" lon="5.55645">
        <ele>971.28</ele>
        <time>2019-08-29T07:19:45Z</time>
      </trkpt>
      <trkpt lat="45.08472" lon="5.55662">
        <ele>972.48</ele>
        <time>2019-08-29T07:19:53Z</time>
      </trkpt>
      <trkpt lat="45.0846" lon="5.55678">
        <ele>974.67</ele>
        <time>2019-08-29T07:20:05Z</time>
      </trkpt>
      <trkpt lat="45.08444" lon="5.55678">
        <ele>977.27</ele>
        <time>2019-08-29T07:20:21Z</time>
      </trkpt>
      <trkpt lat="45.08432" lon="5.55677">
        <ele>978.34</ele>
        <time>2019-08-29T07:20:36Z</time>
      </trkpt>
      <trkpt lat="45.08421" lon="5.55681">
        <ele>980.12</ele>
        <time>2019-08-29T07:20:49Z</time>
      </trkpt>
      <trkpt lat="45.0842" lon="5.55682">
        <ele>980.26</ele>
        <time>2019-08-29T07:20:50Z</time>
      </trkpt>
      <trkpt lat="45.08403" lon="5.55691">
        <ele>982.82</ele>
        <time>2019-08-29T07:21:10Z</time>
      </trkpt>
      <trkpt lat="45.08394" lon="5.557">
        <ele>984.61</ele>
        <time>2019-08-29T07:21:25Z</time>
      </trkpt>
      <trkpt lat="45.08381" lon="5.5571">
        <ele>987.75</ele>
        <time>2019-08-29T07:21:44Z</time>
      </trkpt>
      <trkpt lat="45.08367" lon="5.55724">
        <ele>990.76</ele>
        <time>2019-08-29T07:22:04Z</time>
      </trkpt>
      <trkpt lat="45.08356" lon="5.55737">
        <ele>993.44</ele>
        <time>2019-08-29T07:22:19Z</time>
      </trkpt>
      <trkpt lat="45.08345" lon="5.55752">
        <ele>996.57</ele>
        <time>2019-08-29T07:22:36Z</time>
      </trkpt>
      <trkpt lat="45.08332" lon="5.5577">
        <ele>999.66</ele>
        <time>2019-08-29T07:22:56Z</time>
      </trkpt>
      <trkpt lat="45.08319" lon="5.5579">
        <ele>1002.39</ele>
        <time>2019-08-29T07:23:15Z</time>
      </trkpt>
      <trkpt lat="45.08312" lon="5.55802">
        <ele>1003.35</ele>
        <time>2019-08-29T07:23:31Z</time>
      </trkpt>
      <trkpt lat="45.08303" lon="5.55815">
        <ele>1004.6</ele>
        <time>2019-08-29T07:23:48Z</time>
      </trkpt>
      <trkpt lat="45.08299" lon="5.55823">
        <ele>1005.08</ele>
        <time>2019-08-29T07:24:05Z</time>
      </trkpt>
      <trkpt lat="45.08294" lon="5.55829">
        <ele>1005.83</ele>
        <time>2019-08-29T07:24:25Z</time>
      </trkpt>
      <trkpt lat="45.08291" lon="5.55834">
        <ele>1006.16</ele>
        <time>2019-08-29T07:24:53Z</time>
      </trkpt>
      <trkpt lat="45.08282" lon="5.55847">
        <ele>1006.95</ele>
        <time>2019-08-29T07:25:11Z</time>
      </trkpt>
      <trkpt lat="45.08275" lon="5.55856">
        <ele>1007.37</ele>
        <time>2019-08-29T07:25:27Z</time>
      </trkpt>
      <trkpt lat="45.08253" lon="5.5588">
        <ele>1008.43</ele>
        <time>2019-08-29T07:25:43Z</time>
      </trkpt>
      <trkpt lat="45.08223" lon="5.55913">
        <ele>1009.71</ele>
        <time>2019-08-29T07:26:03Z</time>
      </trkpt>
      <trkpt lat="45.08189" lon="5.55948">
        <ele>1010.84</ele>
        <time>2019-08-29T07:26:23Z</time>
      </trkpt>
      <trkpt lat="45.08157" lon="5.55983">
        <ele>1011.17</ele>
        <time>2019-08-29T07:26:43Z</time>
      </trkpt>
      <trkpt lat="45.0813" lon="5.56012">
        <ele>1011.81</ele>
        <time>2019-08-29T07:26:59Z</time>
      </trkpt>
      <trkpt lat="45.08093" lon="5.56052">
        <ele>1013.18</ele>
        <time>2019-08-29T07:27:20Z</time>
      </trkpt>
      <trkpt lat="45.08057" lon="5.56097">
        <ele>1014.93</ele>
        <time>2019-08-29T07:27:42Z</time>
      </trkpt>
      <trkpt lat="45.08055" lon="5.56101">
        <ele>1015.03</ele>
        <time>2019-08-29T07:27:44Z</time>
      </trkpt>
      <trkpt lat="45.08054" lon="5.56105">
        <ele>1015.14</ele>
        <time>2019-08-29T07:27:46Z</time>
      </trkpt>
      <trkpt lat="45.0806" lon="5.5611">
        <ele>1015.3</ele>
        <time>2019-08-29T07:27:57Z</time>
      </trkpt>
      <trkpt lat="45.08078" lon="5.56125">
        <ele>1015.1</ele>
        <time>2019-08-29T07:28:11Z</time>
      </trkpt>
      <trkpt lat="45.08086" lon="5.56132">
        <ele>1014.88</ele>
        <time>2019-08-29T07:28:13Z</time>
      </trkpt>
      <trkpt lat="45.08091" lon="5.56136">
        <ele>1014.75</ele>
        <time>2019-08-29T07:28:14Z</time>
      </trkpt>
      <trkpt lat="45.08124" lon="5.5616">
        <ele>1012.79</ele>
        <time>2019-08-29T07:28:21Z</time>
      </trkpt>
      <trkpt lat="45.08177" lon="5.56212">
        <ele>1012.76</ele>
        <time>2019-08-29T07:28:37Z</time>
      </trkpt>
      <trkpt lat="45.0818" lon="5.56218">
        <ele>1012.78</ele>
        <time>2019-08-29T07:28:38Z</time>
      </trkpt>
      <trkpt lat="45.08183" lon="5.56225">
        <ele>1012.77</ele>
        <time>2019-08-29T07:28:39Z</time>
      </trkpt>
      <trkpt lat="45.08185" lon="5.56232">
        <ele>1012.69</ele>
        <time>2019-08-29T07:28:40Z</time>
      </trkpt>
      <trkpt lat="45.08194" lon="5.56304">
        <ele>1008.96</ele>
        <time>2019-08-29T07:28:47Z</time>
      </trkpt>
      <trkpt lat="45.08201" lon="5.56357">
        <ele>1005.04</ele>
        <time>2019-08-29T07:28:51Z</time>
      </trkpt>
      <trkpt lat="45.08204" lon="5.56407">
        <ele>1002.43</ele>
        <time>2019-08-29T07:28:56Z</time>
      </trkpt>
      <trkpt lat="45.08204" lon="5.56414">
        <ele>1002.25</ele>
        <time>2019-08-29T07:28:57Z</time>
      </trkpt>
      <trkpt lat="45.08195" lon="5.56454">
        <ele>1003.83</ele>
        <time>2019-08-29T07:29:07Z</time>
      </trkpt>
      <trkpt lat="45.08191" lon="5.56508">
        <ele>1006.42</ele>
        <time>2019-08-29T07:29:21Z</time>
      </trkpt>
      <trkpt lat="45.08206" lon="5.56538">
        <ele>1009.64</ele>
        <time>2019-08-29T07:29:35Z</time>
      </trkpt>
      <trkpt lat="45.0822" lon="5.56559">
        <ele>1012.69</ele>
        <time>2019-08-29T07:29:47Z</time>
      </trkpt>
      <trkpt lat="45.08224" lon="5.56564">
        <ele>1014.62</ele>
        <time>2019-08-29T07:30:00Z</time>
      </trkpt>
      <trkpt lat="45.08231" lon="5.56572">
        <ele>1014.41</ele>
        <time>2019-08-29T07:30:14Z</time>
      </trkpt>
      <trkpt lat="45.08232" lon="5.56574">
        <ele>1014.37</ele>
        <time>2019-08-29T07:30:15Z</time>
      </trkpt>
      <trkpt lat="45.08233" lon="5.56577">
        <ele>1014.33</ele>
        <time>2019-08-29T07:30:16Z</time>
      </trkpt>
      <trkpt lat="45.08234" lon="5.56581">
        <ele>1014.29</ele>
        <time>2019-08-29T07:30:17Z</time>
      </trkpt>
      <trkpt lat="45.08235" lon="5.56586">
        <ele>1014.22</ele>
        <time>2019-08-29T07:30:18Z</time>
      </trkpt>
      <trkpt lat="45.08237" lon="5.56592">
        <ele>1014.11</ele>
        <time>2019-08-29T07:30:19Z</time>
      </trkpt>
      <trkpt lat="45.08247" lon="5.56628">
        <ele>1013.06</ele>
        <time>2019-08-29T07:30:23Z</time>
      </trkpt>
      <trkpt lat="45.08273" lon="5.56688">
        <ele>1009.97</ele>
        <time>2019-08-29T07:30:30Z</time>
      </trkpt>
      <trkpt lat="45.08277" lon="5.56695">
        <ele>1009.7</ele>
        <time>2019-08-29T07:30:31Z</time>
      </trkpt>
      <trkpt lat="45.08281" lon="5.56701">
        <ele>1009.49</ele>
        <time>2019-08-29T07:30:32Z</time>
      </trkpt>
      <trkpt lat="45.08294" lon="5.56717">
        <ele>1009.24</ele>
        <time>2019-08-29T07:30:35Z</time>
      </trkpt>
      <trkpt lat="45.08298" lon="5.5672">
        <ele>1009.27</ele>
        <time>2019-08-29T07:30:36Z</time>
      </trkpt>
      <trkpt lat="45.08302" lon="5.56721">
        <ele>1009.31</ele>
        <time>2019-08-29T07:30:37Z</time>
      </trkpt>
      <trkpt lat="45.08306" lon="5.56721">
        <ele>1009.33</ele>
        <time>2019-08-29T07:30:38Z</time>
      </trkpt>
      <trkpt lat="45.08309" lon="5.56719">
        <ele>1009.36</ele>
        <time>2019-08-29T07:30:39Z</time>
      </trkpt>
      <trkpt lat="45.08312" lon="5.56718">
        <ele>1009.37</ele>
        <time>2019-08-29T07:30:40Z</time>
      </trkpt>
      <trkpt lat="45.08314" lon="5.56716">
        <ele>1009.41</ele>
        <time>2019-08-29T07:30:41Z</time>
      </trkpt>
      <trkpt lat="45.08316" lon="5.56713">
        <ele>1009.44</ele>
        <time>2019-08-29T07:30:42Z</time>
      </trkpt>
      <trkpt lat="45.08318" lon="5.5671">
        <ele>1009.47</ele>
        <time>2019-08-29T07:30:43Z</time>
      </trkpt>
      <trkpt lat="45.0832" lon="5.56707">
        <ele>1009.55</ele>
        <time>2019-08-29T07:30:44Z</time>
      </trkpt>
      <trkpt lat="45.08321" lon="5.56704">
        <ele>1009.65</ele>
        <time>2019-08-29T07:30:45Z</time>
      </trkpt>
      <trkpt lat="45.08354" lon="5.56673">
        <ele>1012.09</ele>
        <time>2019-08-29T07:31:01Z</time>
      </trkpt>
      <trkpt lat="45.08384" lon="5.56664">
        <ele>1014.15</ele>
        <time>2019-08-29T07:31:16Z</time>
      </trkpt>
      <trkpt lat="45.08401" lon="5.56663">
        <ele>1015.67</ele>
        <time>2019-08-29T07:31:25Z</time>
      </trkpt>
      <trkpt lat="45.08403" lon="5.56662">
        <ele>1015.84</ele>
        <time>2019-08-29T07:31:26Z</time>
      </trkpt>
      <trkpt lat="45.08405" lon="5.56662">
        <ele>1015.96</ele>
        <time>2019-08-29T07:31:27Z</time>
      </trkpt>
      <trkpt lat="45.08408" lon="5.56662">
        <ele>1016.1</ele>
        <time>2019-08-29T07:31:28Z</time>
      </trkpt>
      <trkpt lat="45.0841" lon="5.56662">
        <ele>1016.21</ele>
        <time>2019-08-29T07:31:29Z</time>
      </trkpt>
      <trkpt lat="45.08412" lon="5.56662">
        <ele>1016.3</ele>
        <time>2019-08-29T07:31:30Z</time>
      </trkpt>
      <trkpt lat="45.08416" lon="5.56661">
        <ele>1016.34</ele>
        <time>2019-08-29T07:31:31Z</time>
      </trkpt>
      <trkpt lat="45.08418" lon="5.5666">
        <ele>1016.32</ele>
        <time>2019-08-29T07:31:32Z</time>
      </trkpt>
      <trkpt lat="45.08422" lon="5.56659">
        <ele>1016.29</ele>
        <time>2019-08-29T07:31:33Z</time>
      </trkpt>
      <trkpt lat="45.08425" lon="5.56657">
        <ele>1016.27</ele>
        <time>2019-08-29T07:31:34Z</time>
      </trkpt>
      <trkpt lat="45.08429" lon="5.56654">
        <ele>1016.23</ele>
        <time>2019-08-29T07:31:35Z</time>
      </trkpt>
      <trkpt lat="45.08432" lon="5.5665">
        <ele>1016.16</ele>
        <time>2019-08-29T07:31:36Z</time>
      </trkpt>
      <trkpt lat="45.08435" lon="5.56646">
        <ele>1016.06</ele>
        <time>2019-08-29T07:31:37Z</time>
      </trkpt>
      <trkpt lat="45.0844" lon="5.5664">
        <ele>1015.89</ele>
        <time>2019-08-29T07:31:40Z</time>
      </trkpt>
      <trkpt lat="45.08446" lon="5.56647">
        <ele>1016.11</ele>
        <time>2019-08-29T07:31:49Z</time>
      </trkpt>
      <trkpt lat="45.08446" lon="5.56649">
        <ele>1016.14</ele>
        <time>2019-08-29T07:31:50Z</time>
      </trkpt>
      <trkpt lat="45.08447" lon="5.5665">
        <ele>1016.15</ele>
        <time>2019-08-29T07:31:51Z</time>
      </trkpt>
      <trkpt lat="45.08447" lon="5.56652">
        <ele>1016.19</ele>
        <time>2019-08-29T07:31:52Z</time>
      </trkpt>
      <trkpt lat="45.08446" lon="5.56653">
        <ele>1016.25</ele>
        <time>2019-08-29T07:31:53Z</time>
      </trkpt>
      <trkpt lat="45.08446" lon="5.56655">
        <ele>1016.31</ele>
        <time>2019-08-29T07:31:54Z</time>
      </trkpt>
      <trkpt lat="45.08446" lon="5.56657">
        <ele>1016.38</ele>
        <time>2019-08-29T07:31:55Z</time>
      </trkpt>
      <trkpt lat="45.08446" lon="5.56659">
        <ele>1016.43</ele>
        <time>2019-08-29T07:31:56Z</time>
      </trkpt>
      <trkpt lat="45.08445" lon="5.5666">
        <ele>1016.49</ele>
        <time>2019-08-29T07:31:57Z</time>
      </trkpt>
      <trkpt lat="45.08443" lon="5.56677">
        <ele>1017.51</ele>
        <time>2019-08-29T07:32:09Z</time>
      </trkpt>
      <trkpt lat="45.08441" lon="5.56691">
        <ele>1018.18</ele>
        <time>2019-08-29T07:32:17Z</time>
      </trkpt>
      <trkpt lat="45.08438" lon="5.56722">
        <ele>1019.71</ele>
        <time>2019-08-29T07:32:34Z</time>
      </trkpt>
      <trkpt lat="45.08436" lon="5.56748">
        <ele>1021.06</ele>
        <time>2019-08-29T07:32:45Z</time>
      </trkpt>
      <trkpt lat="45.08429" lon="5.56792">
        <ele>1023.36</ele>
        <time>2019-08-29T07:33:02Z</time>
      </trkpt>
      <trkpt lat="45.08429" lon="5.56817">
        <ele>1024.37</ele>
        <time>2019-08-29T07:33:11Z</time>
      </trkpt>
      <trkpt lat="45.08444" lon="5.56851">
        <ele>1024.48</ele>
        <time>2019-08-29T07:33:25Z</time>
      </trkpt>
      <trkpt lat="45.08452" lon="5.5689">
        <ele>1022.65</ele>
        <time>2019-08-29T07:33:31Z</time>
      </trkpt>
      <trkpt lat="45.08453" lon="5.56901">
        <ele>1022.11</ele>
        <time>2019-08-29T07:33:32Z</time>
      </trkpt>
      <trkpt lat="45.08456" lon="5.56912">
        <ele>1021.51</ele>
        <time>2019-08-29T07:33:33Z</time>
      </trkpt>
      <trkpt lat="45.08459" lon="5.56922">
        <ele>1020.88</ele>
        <time>2019-08-29T07:33:34Z</time>
      </trkpt>
      <trkpt lat="45.08463" lon="5.56932">
        <ele>1020.22</ele>
        <time>2019-08-29T07:33:35Z</time>
      </trkpt>
      <trkpt lat="45.08468" lon="5.56941">
        <ele>1019.53</ele>
        <time>2019-08-29T07:33:36Z</time>
      </trkpt>
      <trkpt lat="45.08474" lon="5.56949">
        <ele>1018.88</ele>
        <time>2019-08-29T07:33:37Z</time>
      </trkpt>
      <trkpt lat="45.08499" lon="5.56977">
        <ele>1015.8</ele>
        <time>2019-08-29T07:33:42Z</time>
      </trkpt>
      <trkpt lat="45.08531" lon="5.57011">
        <ele>1013.23</ele>
        <time>2019-08-29T07:33:50Z</time>
      </trkpt>
      <trkpt lat="45.08536" lon="5.57013">
        <ele>1012.95</ele>
        <time>2019-08-29T07:33:51Z</time>
      </trkpt>
      <trkpt lat="45.0854" lon="5.57014">
        <ele>1012.95</ele>
        <time>2019-08-29T07:33:52Z</time>
      </trkpt>
      <trkpt lat="45.08544" lon="5.57015">
        <ele>1012.72</ele>
        <time>2019-08-29T07:33:53Z</time>
      </trkpt>
      <trkpt lat="45.08548" lon="5.57015">
        <ele>1012.6</ele>
        <time>2019-08-29T07:33:54Z</time>
      </trkpt>
      <trkpt lat="45.08582" lon="5.57021">
        <ele>1012.08</ele>
        <time>2019-08-29T07:34:05Z</time>
      </trkpt>
      <trkpt lat="45.08628" lon="5.57016">
        <ele>1012.21</ele>
        <time>2019-08-29T07:34:19Z</time>
      </trkpt>
      <trkpt lat="45.08663" lon="5.56991">
        <ele>1013.71</ele>
        <time>2019-08-29T07:34:33Z</time>
      </trkpt>
      <trkpt lat="45.08678" lon="5.56969">
        <ele>1016.07</ele>
        <time>2019-08-29T07:34:45Z</time>
      </trkpt>
      <trkpt lat="45.08685" lon="5.56959">
        <ele>1017.1</ele>
        <time>2019-08-29T07:34:51Z</time>
      </trkpt>
      <trkpt lat="45.08686" lon="5.56957">
        <ele>1017.31</ele>
        <time>2019-08-29T07:34:52Z</time>
      </trkpt>
      <trkpt lat="45.08687" lon="5.56956">
        <ele>1017.51</ele>
        <time>2019-08-29T07:34:53Z</time>
      </trkpt>
      <trkpt lat="45.08688" lon="5.56954">
        <ele>1017.69</ele>
        <time>2019-08-29T07:34:54Z</time>
      </trkpt>
      <trkpt lat="45.08688" lon="5.56952">
        <ele>1017.87</ele>
        <time>2019-08-29T07:34:55Z</time>
      </trkpt>
      <trkpt lat="45.08695" lon="5.56942">
        <ele>1019.12</ele>
        <time>2019-08-29T07:35:02Z</time>
      </trkpt>
      <trkpt lat="45.08708" lon="5.56921">
        <ele>1021.56</ele>
        <time>2019-08-29T07:35:15Z</time>
      </trkpt>
      <trkpt lat="45.08709" lon="5.5692">
        <ele>1021.72</ele>
        <time>2019-08-29T07:35:16Z</time>
      </trkpt>
      <trkpt lat="45.0871" lon="5.5692">
        <ele>1021.9</ele>
        <time>2019-08-29T07:35:17Z</time>
      </trkpt>
      <trkpt lat="45.08712" lon="5.56922">
        <ele>1022.1</ele>
        <time>2019-08-29T07:35:18Z</time>
      </trkpt>
      <trkpt lat="45.08712" lon="5.56924">
        <ele>1022.28</ele>
        <time>2019-08-29T07:35:19Z</time>
      </trkpt>
      <trkpt lat="45.08712" lon="5.56926">
        <ele>1022.46</ele>
        <time>2019-08-29T07:35:20Z</time>
      </trkpt>
      <trkpt lat="45.08713" lon="5.56928">
        <ele>1022.63</ele>
        <time>2019-08-29T07:35:21Z</time>
      </trkpt>
      <trkpt lat="45.08713" lon="5.5693">
        <ele>1022.78</ele>
        <time>2019-08-29T07:35:22Z</time>
      </trkpt>
      <trkpt lat="45.08715" lon="5.56937">
        <ele>1023.37</ele>
        <time>2019-08-29T07:35:26Z</time>
      </trkpt>
      <trkpt lat="45.08716" lon="5.56938">
        <ele>1023.53</ele>
        <time>2019-08-29T07:35:27Z</time>
      </trkpt>
      <trkpt lat="45.08718" lon="5.56939">
        <ele>1023.68</ele>
        <time>2019-08-29T07:35:28Z</time>
      </trkpt>
      <trkpt lat="45.08719" lon="5.56939">
        <ele>1023.84</ele>
        <time>2019-08-29T07:35:29Z</time>
      </trkpt>
      <trkpt lat="45.08719" lon="5.56945">
        <ele>1025.22</ele>
        <time>2019-08-29T07:35:43Z</time>
      </trkpt>
      <trkpt lat="45.08718" lon="5.56947">
        <ele>1025.24</ele>
        <time>2019-08-29T07:35:45Z</time>
      </trkpt>
      <trkpt lat="45.08717" lon="5.56949">
        <ele>1025.24</ele>
        <time>2019-08-29T07:35:46Z</time>
      </trkpt>
      <trkpt lat="45.08716" lon="5.56951">
        <ele>1025.25</ele>
        <time>2019-08-29T07:35:47Z</time>
      </trkpt>
      <trkpt lat="45.08715" lon="5.56953">
        <ele>1025.26</ele>
        <time>2019-08-29T07:35:48Z</time>
      </trkpt>
      <trkpt lat="45.08714" lon="5.56955">
        <ele>1025.26</ele>
        <time>2019-08-29T07:35:49Z</time>
      </trkpt>
      <trkpt lat="45.08704" lon="5.56985">
        <ele>1025.73</ele>
        <time>2019-08-29T07:36:03Z</time>
      </trkpt>
      <trkpt lat="45.08692" lon="5.57017">
        <ele>1026.43</ele>
        <time>2019-08-29T07:36:17Z</time>
      </trkpt>
      <trkpt lat="45.08679" lon="5.57042">
        <ele>1027.02</ele>
        <time>2019-08-29T07:36:30Z</time>
      </trkpt>
      <trkpt lat="45.08666" lon="5.57074">
        <ele>1027.41</ele>
        <time>2019-08-29T07:36:43Z</time>
      </trkpt>
      <trkpt lat="45.08658" lon="5.57097">
        <ele>1028.27</ele>
        <time>2019-08-29T07:36:52Z</time>
      </trkpt>
      <trkpt lat="45.08659" lon="5.57103">
        <ele>1029.07</ele>
        <time>2019-08-29T07:37:06Z</time>
      </trkpt>
      <trkpt lat="45.08662" lon="5.57103">
        <ele>1029.38</ele>
        <time>2019-08-29T07:37:37Z</time>
      </trkpt>
      <trkpt lat="45.08664" lon="5.571">
        <ele>1029.38</ele>
        <time>2019-08-29T07:37:40Z</time>
      </trkpt>
      <trkpt lat="45.08664" lon="5.57098">
        <ele>1029.38</ele>
        <time>2019-08-29T07:37:41Z</time>
      </trkpt>
      <trkpt lat="45.08665" lon="5.57095">
        <ele>1029.38</ele>
        <time>2019-08-29T07:37:42Z</time>
      </trkpt>
      <trkpt lat="45.08666" lon="5.57093">
        <ele>1029.37</ele>
        <time>2019-08-29T07:37:43Z</time>
      </trkpt>
      <trkpt lat="45.08667" lon="5.57091">
        <ele>1029.33</ele>
        <time>2019-08-29T07:37:44Z</time>
      </trkpt>
      <trkpt lat="45.08686" lon="5.57038">
        <ele>1028.27</ele>
        <time>2019-08-29T07:37:57Z</time>
      </trkpt>
      <trkpt lat="45.08705" lon="5.57005">
        <ele>1027.68</ele>
        <time>2019-08-29T07:38:06Z</time>
      </trkpt>
      <trkpt lat="45.08719" lon="5.56971">
        <ele>1027.25</ele>
        <time>2019-08-29T07:38:14Z</time>
      </trkpt>
      <trkpt lat="45.08722" lon="5.56971">
        <ele>1027.17</ele>
        <time>2019-08-29T07:38:15Z</time>
      </trkpt>
      <trkpt lat="45.08724" lon="5.56971">
        <ele>1027.14</ele>
        <time>2019-08-29T07:38:16Z</time>
      </trkpt>
      <trkpt lat="45.08726" lon="5.56971">
        <ele>1027.1</ele>
        <time>2019-08-29T07:38:17Z</time>
      </trkpt>
      <trkpt lat="45.08728" lon="5.56972">
        <ele>1027.08</ele>
        <time>2019-08-29T07:38:18Z</time>
      </trkpt>
      <trkpt lat="45.0873" lon="5.56973">
        <ele>1027.06</ele>
        <time>2019-08-29T07:38:19Z</time>
      </trkpt>
      <trkpt lat="45.08732" lon="5.56974">
        <ele>1027.06</ele>
        <time>2019-08-29T07:38:20Z</time>
      </trkpt>
      <trkpt lat="45.08734" lon="5.56975">
        <ele>1027.08</ele>
        <time>2019-08-29T07:38:21Z</time>
      </trkpt>
      <trkpt lat="45.0876" lon="5.56986">
        <ele>1028.22</ele>
        <time>2019-08-29T07:38:33Z</time>
      </trkpt>
      <trkpt lat="45.08785" lon="5.56995">
        <ele>1028.86</ele>
        <time>2019-08-29T07:38:44Z</time>
      </trkpt>
      <trkpt lat="45.08785" lon="5.56997">
        <ele>1028.65</ele>
        <time>2019-08-29T07:39:07Z</time>
      </trkpt>
      <trkpt lat="45.08783" lon="5.56996">
        <ele>1028.72</ele>
        <time>2019-08-29T07:39:10Z</time>
      </trkpt>
      <trkpt lat="45.08782" lon="5.56996">
        <ele>1028.76</ele>
        <time>2019-08-29T07:39:11Z</time>
      </trkpt>
      <trkpt lat="45.08756" lon="5.56981">
        <ele>1028.72</ele>
        <time>2019-08-29T07:39:24Z</time>
      </trkpt>
      <trkpt lat="45.08722" lon="5.56965">
        <ele>1027.85</ele>
        <time>2019-08-29T07:39:36Z</time>
      </trkpt>
      <trkpt lat="45.08722" lon="5.56961">
        <ele>1027.77</ele>
        <time>2019-08-29T07:39:37Z</time>
      </trkpt>
      <trkpt lat="45.08728" lon="5.56926">
        <ele>1026.8</ele>
        <time>2019-08-29T07:39:49Z</time>
      </trkpt>
      <trkpt lat="45.08743" lon="5.56897">
        <ele>1026.77</ele>
        <time>2019-08-29T07:40:02Z</time>
      </trkpt>
      <trkpt lat="45.08761" lon="5.56864">
        <ele>1026.15</ele>
        <time>2019-08-29T07:40:10Z</time>
      </trkpt>
      <trkpt lat="45.08763" lon="5.56858">
        <ele>1026.06</ele>
        <time>2019-08-29T07:40:11Z</time>
      </trkpt>
      <trkpt lat="45.08765" lon="5.56852">
        <ele>1025.91</ele>
        <time>2019-08-29T07:40:12Z</time>
      </trkpt>
      <trkpt lat="45.08769" lon="5.5684">
        <ele>1025.62</ele>
        <time>2019-08-29T07:40:14Z</time>
      </trkpt>
      <trkpt lat="45.08781" lon="5.56817">
        <ele>1024.82</ele>
        <time>2019-08-29T07:40:20Z</time>
      </trkpt>
      <trkpt lat="45.0879" lon="5.56817">
        <ele>1024.48</ele>
        <time>2019-08-29T07:40:24Z</time>
      </trkpt>
      <trkpt lat="45.08819" lon="5.56815">
        <ele>1024.27</ele>
        <time>2019-08-29T07:40:35Z</time>
      </trkpt>
      <trkpt lat="45.08843" lon="5.56815">
        <ele>1024.27</ele>
        <time>2019-08-29T07:40:41Z</time>
      </trkpt>
      <trkpt lat="45.08886" lon="5.56819">
        <ele>1023.06</ele>
        <time>2019-08-29T07:40:50Z</time>
      </trkpt>
      <trkpt lat="45.08953" lon="5.56824">
        <ele>1022.74</ele>
        <time>2019-08-29T07:41:06Z</time>
      </trkpt>
      <trkpt lat="45.08991" lon="5.56833">
        <ele>1022.69</ele>
        <time>2019-08-29T07:41:15Z</time>
      </trkpt>
      <trkpt lat="45.09009" lon="5.56823">
        <ele>1022.37</ele>
        <time>2019-08-29T07:41:20Z</time>
      </trkpt>
      <trkpt lat="45.09015" lon="5.56813">
        <ele>1022.24</ele>
        <time>2019-08-29T07:41:22Z</time>
      </trkpt>
      <trkpt lat="45.09052" lon="5.5676">
        <ele>1020.73</ele>
        <time>2019-08-29T07:41:32Z</time>
      </trkpt>
      <trkpt lat="45.09062" lon="5.56751">
        <ele>1020.32</ele>
        <time>2019-08-29T07:41:34Z</time>
      </trkpt>
      <trkpt lat="45.09078" lon="5.56732">
        <ele>1018.42</ele>
        <time>2019-08-29T07:41:42Z</time>
      </trkpt>
      <trkpt lat="45.09095" lon="5.56716">
        <ele>1017.75</ele>
        <time>2019-08-29T07:41:57Z</time>
      </trkpt>
      <trkpt lat="45.09139" lon="5.56658">
        <ele>1015.5</ele>
        <time>2019-08-29T07:42:09Z</time>
      </trkpt>
      <trkpt lat="45.09191" lon="5.56589">
        <ele>1012.13</ele>
        <time>2019-08-29T07:42:19Z</time>
      </trkpt>
      <trkpt lat="45.09245" lon="5.56515">
        <ele>1008.89</ele>
        <time>2019-08-29T07:42:30Z</time>
      </trkpt>
      <trkpt lat="45.09261" lon="5.56482">
        <ele>1007.6</ele>
        <time>2019-08-29T07:42:35Z</time>
      </trkpt>
      <trkpt lat="45.09274" lon="5.56466">
        <ele>1007.07</ele>
        <time>2019-08-29T07:42:39Z</time>
      </trkpt>
      <trkpt lat="45.09277" lon="5.56464">
        <ele>1007.49</ele>
        <time>2019-08-29T07:42:52Z</time>
      </trkpt>
      <trkpt lat="45.09288" lon="5.56461">
        <ele>1007.69</ele>
        <time>2019-08-29T07:43:06Z</time>
      </trkpt>
      <trkpt lat="45.09287" lon="5.56462">
        <ele>1007.69</ele>
        <time>2019-08-29T07:43:20Z</time>
      </trkpt>
      <trkpt lat="45.09283" lon="5.5646">
        <ele>1007.7</ele>
        <time>2019-08-29T07:43:30Z</time>
      </trkpt>
      <trkpt lat="45.0928" lon="5.5646">
        <ele>1007.78</ele>
        <time>2019-08-29T07:43:33Z</time>
      </trkpt>
      <trkpt lat="45.09281" lon="5.56467">
        <ele>1007.81</ele>
        <time>2019-08-29T07:43:42Z</time>
      </trkpt>
      <trkpt lat="45.09282" lon="5.56469">
        <ele>1007.98</ele>
        <time>2019-08-29T07:44:01Z</time>
      </trkpt>
      <trkpt lat="45.09283" lon="5.56471">
        <ele>1007.92</ele>
        <time>2019-08-29T07:44:31Z</time>
      </trkpt>
      <trkpt lat="45.09281" lon="5.56471">
        <ele>1007.99</ele>
        <time>2019-08-29T07:44:50Z</time>
      </trkpt>
      <trkpt lat="45.09268" lon="5.56472">
        <ele>1007.73</ele>
        <time>2019-08-29T07:45:02Z</time>
      </trkpt>
      <trkpt lat="45.09267" lon="5.5646">
        <ele>1007.07</ele>
        <time>2019-08-29T07:45:10Z</time>
      </trkpt>
      <trkpt lat="45.09285" lon="5.56421">
        <ele>1005.59</ele>
        <time>2019-08-29T07:45:24Z</time>
      </trkpt>
      <trkpt lat="45.09286" lon="5.56419">
        <ele>1005.11</ele>
        <time>2019-08-29T07:45:31Z</time>
      </trkpt>
      <trkpt lat="45.09288" lon="5.56412">
        <ele>1004.9</ele>
        <time>2019-08-29T07:45:34Z</time>
      </trkpt>
      <trkpt lat="45.09294" lon="5.56402">
        <ele>1004.57</ele>
        <time>2019-08-29T07:45:38Z</time>
      </trkpt>
      <trkpt lat="45.0931" lon="5.56366">
        <ele>1002.14</ele>
        <time>2019-08-29T07:45:50Z</time>
      </trkpt>
      <trkpt lat="45.09312" lon="5.56363">
        <ele>1001.01</ele>
        <time>2019-08-29T07:45:58Z</time>
      </trkpt>
      <trkpt lat="45.09322" lon="5.56326">
        <ele>1000.46</ele>
        <time>2019-08-29T07:46:06Z</time>
      </trkpt>
      <trkpt lat="45.09344" lon="5.56276">
        <ele>997.17</ele>
        <time>2019-08-29T07:46:17Z</time>
      </trkpt>
      <trkpt lat="45.09349" lon="5.56267">
        <ele>995.61</ele>
        <time>2019-08-29T07:46:27Z</time>
      </trkpt>
      <trkpt lat="45.09361" lon="5.56243">
        <ele>995.11</ele>
        <time>2019-08-29T07:46:37Z</time>
      </trkpt>
      <trkpt lat="45.094" lon="5.56177">
        <ele>992.69</ele>
        <time>2019-08-29T07:46:53Z</time>
      </trkpt>
      <trkpt lat="45.09433" lon="5.56136">
        <ele>992.02</ele>
        <time>2019-08-29T07:47:07Z</time>
      </trkpt>
      <trkpt lat="45.09454" lon="5.56115">
        <ele>992.23</ele>
        <time>2019-08-29T07:47:18Z</time>
      </trkpt>
      <trkpt lat="45.09493" lon="5.56075">
        <ele>990.5</ele>
        <time>2019-08-29T07:47:32Z</time>
      </trkpt>
      <trkpt lat="45.09501" lon="5.56063">
        <ele>989.95</ele>
        <time>2019-08-29T07:47:37Z</time>
      </trkpt>
      <trkpt lat="45.09507" lon="5.56048">
        <ele>989.26</ele>
        <time>2019-08-29T07:47:42Z</time>
      </trkpt>
      <trkpt lat="45.09517" lon="5.56016">
        <ele>987.72</ele>
        <time>2019-08-29T07:47:48Z</time>
      </trkpt>
      <trkpt lat="45.09534" lon="5.55961">
        <ele>984.86</ele>
        <time>2019-08-29T07:47:58Z</time>
      </trkpt>
      <trkpt lat="45.09559" lon="5.55946">
        <ele>982.34</ele>
        <time>2019-08-29T07:48:09Z</time>
      </trkpt>
      <trkpt lat="45.09563" lon="5.55945">
        <ele>982.1</ele>
        <time>2019-08-29T07:48:10Z</time>
      </trkpt>
      <trkpt lat="45.09574" lon="5.5594">
        <ele>981.27</ele>
        <time>2019-08-29T07:48:13Z</time>
      </trkpt>
      <trkpt lat="45.09596" lon="5.55934">
        <ele>979.8</ele>
        <time>2019-08-29T07:48:18Z</time>
      </trkpt>
      <trkpt lat="45.09627" lon="5.55902">
        <ele>976.95</ele>
        <time>2019-08-29T07:48:29Z</time>
      </trkpt>
      <trkpt lat="45.09629" lon="5.55903">
        <ele>976.56</ele>
        <time>2019-08-29T07:48:46Z</time>
      </trkpt>
      <trkpt lat="45.09638" lon="5.55905">
        <ele>976.57</ele>
        <time>2019-08-29T07:49:01Z</time>
      </trkpt>
      <trkpt lat="45.09664" lon="5.55928">
        <ele>976.88</ele>
        <time>2019-08-29T07:49:12Z</time>
      </trkpt>
      <trkpt lat="45.09714" lon="5.55971">
        <ele>977.25</ele>
        <time>2019-08-29T07:49:29Z</time>
      </trkpt>
      <trkpt lat="45.0976" lon="5.56012">
        <ele>977.55</ele>
        <time>2019-08-29T07:49:44Z</time>
      </trkpt>
      <trkpt lat="45.09828" lon="5.56073">
        <ele>978.36</ele>
        <time>2019-08-29T07:50:05Z</time>
      </trkpt>
      <trkpt lat="45.09895" lon="5.56133">
        <ele>979.27</ele>
        <time>2019-08-29T07:50:26Z</time>
      </trkpt>
      <trkpt lat="45.0995" lon="5.56179">
        <ele>979.92</ele>
        <time>2019-08-29T07:50:43Z</time>
      </trkpt>
      <trkpt lat="45.09994" lon="5.56217">
        <ele>980.2</ele>
        <time>2019-08-29T07:50:57Z</time>
      </trkpt>
      <trkpt lat="45.10069" lon="5.56284">
        <ele>980.91</ele>
        <time>2019-08-29T07:51:20Z</time>
      </trkpt>
      <trkpt lat="45.10117" lon="5.56327">
        <ele>981.93</ele>
        <time>2019-08-29T07:51:37Z</time>
      </trkpt>
      <trkpt lat="45.10176" lon="5.5638">
        <ele>983.44</ele>
        <time>2019-08-29T07:51:57Z</time>
      </trkpt>
      <trkpt lat="45.10213" lon="5.56412">
        <ele>985.08</ele>
        <time>2019-08-29T07:52:11Z</time>
      </trkpt>
      <trkpt lat="45.10242" lon="5.56438">
        <ele>985.67</ele>
        <time>2019-08-29T07:52:21Z</time>
      </trkpt>
      <trkpt lat="45.10295" lon="5.56485">
        <ele>985.61</ele>
        <time>2019-08-29T07:52:35Z</time>
      </trkpt>
      <trkpt lat="45.10355" lon="5.56539">
        <ele>984.28</ele>
        <time>2019-08-29T07:52:49Z</time>
      </trkpt>
      <trkpt lat="45.10419" lon="5.56599">
        <ele>983.6</ele>
        <time>2019-08-29T07:53:06Z</time>
      </trkpt>
      <trkpt lat="45.10446" lon="5.56623">
        <ele>983.7</ele>
        <time>2019-08-29T07:53:15Z</time>
      </trkpt>
      <trkpt lat="45.10478" lon="5.56659">
        <ele>983.49</ele>
        <time>2019-08-29T07:53:24Z</time>
      </trkpt>
      <trkpt lat="45.10483" lon="5.56663">
        <ele>983.48</ele>
        <time>2019-08-29T07:53:25Z</time>
      </trkpt>
      <trkpt lat="45.10487" lon="5.56667">
        <ele>983.47</ele>
        <time>2019-08-29T07:53:26Z</time>
      </trkpt>
      <trkpt lat="45.10491" lon="5.56671">
        <ele>983.47</ele>
        <time>2019-08-29T07:53:27Z</time>
      </trkpt>
      <trkpt lat="45.10494" lon="5.56674">
        <ele>983.46</ele>
        <time>2019-08-29T07:53:28Z</time>
      </trkpt>
      <trkpt lat="45.10498" lon="5.56679">
        <ele>983.44</ele>
        <time>2019-08-29T07:53:29Z</time>
      </trkpt>
      <trkpt lat="45.1054" lon="5.56724">
        <ele>983.44</ele>
        <time>2019-08-29T07:53:41Z</time>
      </trkpt>
      <trkpt lat="45.10575" lon="5.56767">
        <ele>983.66</ele>
        <time>2019-08-29T07:53:54Z</time>
      </trkpt>
      <trkpt lat="45.10618" lon="5.56813">
        <ele>983.97</ele>
        <time>2019-08-29T07:54:08Z</time>
      </trkpt>
      <trkpt lat="45.10671" lon="5.56874">
        <ele>984.03</ele>
        <time>2019-08-29T07:54:26Z</time>
      </trkpt>
      <trkpt lat="45.1073" lon="5.56943">
        <ele>984.4</ele>
        <time>2019-08-29T07:54:45Z</time>
      </trkpt>
      <trkpt lat="45.10781" lon="5.57001">
        <ele>984.68</ele>
        <time>2019-08-29T07:55:02Z</time>
      </trkpt>
      <trkpt lat="45.10802" lon="5.57023">
        <ele>984.63</ele>
        <time>2019-08-29T07:55:14Z</time>
      </trkpt>
      <trkpt lat="45.10845" lon="5.57072">
        <ele>985.2</ele>
        <time>2019-08-29T07:55:35Z</time>
      </trkpt>
      <trkpt lat="45.10891" lon="5.57125">
        <ele>985.53</ele>
        <time>2019-08-29T07:55:55Z</time>
      </trkpt>
      <trkpt lat="45.10914" lon="5.57149">
        <ele>985.65</ele>
        <time>2019-08-29T07:56:08Z</time>
      </trkpt>
      <trkpt lat="45.10913" lon="5.5715">
        <ele>985.82</ele>
        <time>2019-08-29T07:56:42Z</time>
      </trkpt>
      <trkpt lat="45.10927" lon="5.57167">
        <ele>985.56</ele>
        <time>2019-08-29T07:57:01Z</time>
      </trkpt>
      <trkpt lat="45.10963" lon="5.5721">
        <ele>985.57</ele>
        <time>2019-08-29T07:57:16Z</time>
      </trkpt>
      <trkpt lat="45.11018" lon="5.57275">
        <ele>985.93</ele>
        <time>2019-08-29T07:57:35Z</time>
      </trkpt>
      <trkpt lat="45.11024" lon="5.57282">
        <ele>985.92</ele>
        <time>2019-08-29T07:57:37Z</time>
      </trkpt>
      <trkpt lat="45.11028" lon="5.57285">
        <ele>985.92</ele>
        <time>2019-08-29T07:57:38Z</time>
      </trkpt>
      <trkpt lat="45.11031" lon="5.57289">
        <ele>985.94</ele>
        <time>2019-08-29T07:57:39Z</time>
      </trkpt>
      <trkpt lat="45.11078" lon="5.57344">
        <ele>986.71</ele>
        <time>2019-08-29T07:57:56Z</time>
      </trkpt>
      <trkpt lat="45.11096" lon="5.57366">
        <ele>986.9</ele>
        <time>2019-08-29T07:58:07Z</time>
      </trkpt>
      <trkpt lat="45.11098" lon="5.57367">
        <ele>987.06</ele>
        <time>2019-08-29T07:58:21Z</time>
      </trkpt>
      <trkpt lat="45.11101" lon="5.57369">
        <ele>987</ele>
        <time>2019-08-29T07:58:36Z</time>
      </trkpt>
      <trkpt lat="45.11103" lon="5.5737">
        <ele>987.03</ele>
        <time>2019-08-29T07:58:37Z</time>
      </trkpt>
      <trkpt lat="45.11105" lon="5.57371">
        <ele>987.03</ele>
        <time>2019-08-29T07:58:38Z</time>
      </trkpt>
      <trkpt lat="45.11132" lon="5.57398">
        <ele>987.21</ele>
        <time>2019-08-29T07:58:51Z</time>
      </trkpt>
      <trkpt lat="45.11184" lon="5.5744">
        <ele>987.93</ele>
        <time>2019-08-29T07:59:06Z</time>
      </trkpt>
      <trkpt lat="45.11264" lon="5.57495">
        <ele>988.04</ele>
        <time>2019-08-29T07:59:26Z</time>
      </trkpt>
      <trkpt lat="45.11344" lon="5.5755">
        <ele>988.25</ele>
        <time>2019-08-29T07:59:45Z</time>
      </trkpt>
      <trkpt lat="45.11398" lon="5.57588">
        <ele>988.7</ele>
        <time>2019-08-29T07:59:58Z</time>
      </trkpt>
      <trkpt lat="45.11477" lon="5.57641">
        <ele>989.01</ele>
        <time>2019-08-29T08:00:17Z</time>
      </trkpt>
      <trkpt lat="45.1156" lon="5.577">
        <ele>989.58</ele>
        <time>2019-08-29T08:00:38Z</time>
      </trkpt>
      <trkpt lat="45.11644" lon="5.57757">
        <ele>990.62</ele>
        <time>2019-08-29T08:00:59Z</time>
      </trkpt>
      <trkpt lat="45.11709" lon="5.57802">
        <ele>990.96</ele>
        <time>2019-08-29T08:01:15Z</time>
      </trkpt>
      <trkpt lat="45.11776" lon="5.57851">
        <ele>991.5</ele>
        <time>2019-08-29T08:01:32Z</time>
      </trkpt>
      <trkpt lat="45.11847" lon="5.57898">
        <ele>991.76</ele>
        <time>2019-08-29T08:01:49Z</time>
      </trkpt>
      <trkpt lat="45.11892" lon="5.5793">
        <ele>992.21</ele>
        <time>2019-08-29T08:02:02Z</time>
      </trkpt>
      <trkpt lat="45.11965" lon="5.57979">
        <ele>993.12</ele>
        <time>2019-08-29T08:02:21Z</time>
      </trkpt>
      <trkpt lat="45.12025" lon="5.58019">
        <ele>993.86</ele>
        <time>2019-08-29T08:02:40Z</time>
      </trkpt>
      <trkpt lat="45.1203" lon="5.5802">
        <ele>994.11</ele>
        <time>2019-08-29T08:02:52Z</time>
      </trkpt>
      <trkpt lat="45.12031" lon="5.5802">
        <ele>993.83</ele>
        <time>2019-08-29T08:03:18Z</time>
      </trkpt>
      <trkpt lat="45.12031" lon="5.5802">
        <ele>994.19</ele>
        <time>2019-08-29T08:03:43Z</time>
      </trkpt>
      <trkpt lat="45.12033" lon="5.58022">
        <ele>994.22</ele>
        <time>2019-08-29T08:04:17Z</time>
      </trkpt>
      <trkpt lat="45.12033" lon="5.58022">
        <ele>994.42</ele>
        <time>2019-08-29T08:04:49Z</time>
      </trkpt>
      <trkpt lat="45.12032" lon="5.58021">
        <ele>994.39</ele>
        <time>2019-08-29T08:05:26Z</time>
      </trkpt>
      <trkpt lat="45.12031" lon="5.58022">
        <ele>994.41</ele>
        <time>2019-08-29T08:06:00Z</time>
      </trkpt>
      <trkpt lat="45.12031" lon="5.58023">
        <ele>994.88</ele>
        <time>2019-08-29T08:06:39Z</time>
      </trkpt>
      <trkpt lat="45.12032" lon="5.58024">
        <ele>994.91</ele>
        <time>2019-08-29T08:07:11Z</time>
      </trkpt>
      <trkpt lat="45.12032" lon="5.58023">
        <ele>995.09</ele>
        <time>2019-08-29T08:07:42Z</time>
      </trkpt>
      <trkpt lat="45.12034" lon="5.58023">
        <ele>995.12</ele>
        <time>2019-08-29T08:08:28Z</time>
      </trkpt>
      <trkpt lat="45.12044" lon="5.58027">
        <ele>994.99</ele>
        <time>2019-08-29T08:08:46Z</time>
      </trkpt>
      <trkpt lat="45.121" lon="5.58048">
        <ele>995.18</ele>
        <time>2019-08-29T08:09:04Z</time>
      </trkpt>
      <trkpt lat="45.1216" lon="5.58069">
        <ele>995.91</ele>
        <time>2019-08-29T08:09:21Z</time>
      </trkpt>
      <trkpt lat="45.12232" lon="5.58092">
        <ele>996.35</ele>
        <time>2019-08-29T08:09:40Z</time>
      </trkpt>
      <trkpt lat="45.12241" lon="5.58094">
        <ele>996.35</ele>
        <time>2019-08-29T08:09:49Z</time>
      </trkpt>
      <trkpt lat="45.12244" lon="5.58094">
        <ele>996.48</ele>
        <time>2019-08-29T08:09:54Z</time>
      </trkpt>
      <trkpt lat="45.12245" lon="5.58095">
        <ele>996.49</ele>
        <time>2019-08-29T08:09:55Z</time>
      </trkpt>
      <trkpt lat="45.12248" lon="5.58096">
        <ele>996.51</ele>
        <time>2019-08-29T08:09:56Z</time>
      </trkpt>
      <trkpt lat="45.12251" lon="5.58097">
        <ele>996.54</ele>
        <time>2019-08-29T08:09:57Z</time>
      </trkpt>
      <trkpt lat="45.12254" lon="5.58098">
        <ele>996.56</ele>
        <time>2019-08-29T08:09:58Z</time>
      </trkpt>
      <trkpt lat="45.1231" lon="5.58116">
        <ele>997.04</ele>
        <time>2019-08-29T08:10:11Z</time>
      </trkpt>
      <trkpt lat="45.12378" lon="5.58141">
        <ele>997.41</ele>
        <time>2019-08-29T08:10:28Z</time>
      </trkpt>
      <trkpt lat="45.12446" lon="5.58167">
        <ele>997.98</ele>
        <time>2019-08-29T08:10:44Z</time>
      </trkpt>
      <trkpt lat="45.12496" lon="5.58182">
        <ele>998.98</ele>
        <time>2019-08-29T08:10:56Z</time>
      </trkpt>
      <trkpt lat="45.125" lon="5.58183">
        <ele>999.04</ele>
        <time>2019-08-29T08:10:57Z</time>
      </trkpt>
      <trkpt lat="45.12538" lon="5.5821">
        <ele>999.83</ele>
        <time>2019-08-29T08:11:09Z</time>
      </trkpt>
      <trkpt lat="45.12544" lon="5.58218">
        <ele>999.94</ele>
        <time>2019-08-29T08:11:11Z</time>
      </trkpt>
      <trkpt lat="45.12574" lon="5.58255">
        <ele>1000.53</ele>
        <time>2019-08-29T08:11:21Z</time>
      </trkpt>
      <trkpt lat="45.12605" lon="5.58314">
        <ele>1002.01</ele>
        <time>2019-08-29T08:11:34Z</time>
      </trkpt>
      <trkpt lat="45.12637" lon="5.58381">
        <ele>1003.87</ele>
        <time>2019-08-29T08:11:48Z</time>
      </trkpt>
      <trkpt lat="45.12642" lon="5.58391">
        <ele>1004.08</ele>
        <time>2019-08-29T08:11:50Z</time>
      </trkpt>
      <trkpt lat="45.12662" lon="5.58437">
        <ele>1004.78</ele>
        <time>2019-08-29T08:12:02Z</time>
      </trkpt>
      <trkpt lat="45.12664" lon="5.58443">
        <ele>1005.13</ele>
        <time>2019-08-29T08:12:14Z</time>
      </trkpt>
      <trkpt lat="45.12665" lon="5.58453">
        <ele>1005.13</ele>
        <time>2019-08-29T08:12:20Z</time>
      </trkpt>
      <trkpt lat="45.12665" lon="5.58456">
        <ele>1005.16</ele>
        <time>2019-08-29T08:12:21Z</time>
      </trkpt>
      <trkpt lat="45.12665" lon="5.5846">
        <ele>1005.21</ele>
        <time>2019-08-29T08:12:22Z</time>
      </trkpt>
      <trkpt lat="45.12666" lon="5.58464">
        <ele>1005.25</ele>
        <time>2019-08-29T08:12:23Z</time>
      </trkpt>
      <trkpt lat="45.12666" lon="5.58468">
        <ele>1005.29</ele>
        <time>2019-08-29T08:12:24Z</time>
      </trkpt>
      <trkpt lat="45.12667" lon="5.58473">
        <ele>1005.33</ele>
        <time>2019-08-29T08:12:25Z</time>
      </trkpt>
      <trkpt lat="45.12674" lon="5.58523">
        <ele>1005.73</ele>
        <time>2019-08-29T08:12:36Z</time>
      </trkpt>
      <trkpt lat="45.12686" lon="5.58556">
        <ele>1006.44</ele>
        <time>2019-08-29T08:12:45Z</time>
      </trkpt>
      <trkpt lat="45.12687" lon="5.58559">
        <ele>1006.54</ele>
        <time>2019-08-29T08:12:46Z</time>
      </trkpt>
      <trkpt lat="45.12699" lon="5.58589">
        <ele>1007.35</ele>
        <time>2019-08-29T08:12:58Z</time>
      </trkpt>
      <trkpt lat="45.127" lon="5.58594">
        <ele>1007.37</ele>
        <time>2019-08-29T08:12:59Z</time>
      </trkpt>
      <trkpt lat="45.12703" lon="5.58598">
        <ele>1007.4</ele>
        <time>2019-08-29T08:13:00Z</time>
      </trkpt>
      <trkpt lat="45.12704" lon="5.58602">
        <ele>1007.43</ele>
        <time>2019-08-29T08:13:01Z</time>
      </trkpt>
      <trkpt lat="45.12705" lon="5.58606">
        <ele>1007.45</ele>
        <time>2019-08-29T08:13:02Z</time>
      </trkpt>
      <trkpt lat="45.12707" lon="5.58609">
        <ele>1007.48</ele>
        <time>2019-08-29T08:13:03Z</time>
      </trkpt>
      <trkpt lat="45.12709" lon="5.58613">
        <ele>1007.51</ele>
        <time>2019-08-29T08:13:04Z</time>
      </trkpt>
      <trkpt lat="45.12711" lon="5.58617">
        <ele>1007.64</ele>
        <time>2019-08-29T08:13:05Z</time>
      </trkpt>
      <trkpt lat="45.12713" lon="5.58622">
        <ele>1007.68</ele>
        <time>2019-08-29T08:13:06Z</time>
      </trkpt>
      <trkpt lat="45.12714" lon="5.58626">
        <ele>1007.72</ele>
        <time>2019-08-29T08:13:07Z</time>
      </trkpt>
      <trkpt lat="45.12716" lon="5.5863">
        <ele>1007.78</ele>
        <time>2019-08-29T08:13:08Z</time>
      </trkpt>
      <trkpt lat="45.12718" lon="5.58634">
        <ele>1007.84</ele>
        <time>2019-08-29T08:13:09Z</time>
      </trkpt>
      <trkpt lat="45.12742" lon="5.5867">
        <ele>1008.52</ele>
        <time>2019-08-29T08:13:19Z</time>
      </trkpt>
      <trkpt lat="45.12773" lon="5.58694">
        <ele>1009.06</ele>
        <time>2019-08-29T08:13:29Z</time>
      </trkpt>
      <trkpt lat="45.12811" lon="5.58724">
        <ele>1009.16</ele>
        <time>2019-08-29T08:13:41Z</time>
      </trkpt>
      <trkpt lat="45.12815" lon="5.58726">
        <ele>1009.17</ele>
        <time>2019-08-29T08:13:42Z</time>
      </trkpt>
      <trkpt lat="45.12846" lon="5.58748">
        <ele>1009.37</ele>
        <time>2019-08-29T08:13:55Z</time>
      </trkpt>
      <trkpt lat="45.12855" lon="5.58756">
        <ele>1009.31</ele>
        <time>2019-08-29T08:14:00Z</time>
      </trkpt>
      <trkpt lat="45.12856" lon="5.58758">
        <ele>1009.29</ele>
        <time>2019-08-29T08:14:01Z</time>
      </trkpt>
      <trkpt lat="45.12859" lon="5.58761">
        <ele>1009.48</ele>
        <time>2019-08-29T08:14:15Z</time>
      </trkpt>
      <trkpt lat="45.12851" lon="5.58789">
        <ele>1009.49</ele>
        <time>2019-08-29T08:14:25Z</time>
      </trkpt>
      <trkpt lat="45.12834" lon="5.58836">
        <ele>1010.21</ele>
        <time>2019-08-29T08:14:38Z</time>
      </trkpt>
      <trkpt lat="45.12831" lon="5.58859">
        <ele>1010.75</ele>
        <time>2019-08-29T08:14:45Z</time>
      </trkpt>
      <trkpt lat="45.1283" lon="5.58863">
        <ele>1010.75</ele>
        <time>2019-08-29T08:14:46Z</time>
      </trkpt>
      <trkpt lat="45.12829" lon="5.58866">
        <ele>1010.88</ele>
        <time>2019-08-29T08:14:47Z</time>
      </trkpt>
      <trkpt lat="45.12828" lon="5.58869">
        <ele>1010.95</ele>
        <time>2019-08-29T08:14:48Z</time>
      </trkpt>
      <trkpt lat="45.12826" lon="5.58872">
        <ele>1011.02</ele>
        <time>2019-08-29T08:14:49Z</time>
      </trkpt>
      <trkpt lat="45.12825" lon="5.58874">
        <ele>1011.1</ele>
        <time>2019-08-29T08:14:50Z</time>
      </trkpt>
      <trkpt lat="45.12823" lon="5.58876">
        <ele>1011.19</ele>
        <time>2019-08-29T08:14:51Z</time>
      </trkpt>
      <trkpt lat="45.12809" lon="5.58885">
        <ele>1012.17</ele>
        <time>2019-08-29T08:15:05Z</time>
      </trkpt>
      <trkpt lat="45.12807" lon="5.58884">
        <ele>1012.37</ele>
        <time>2019-08-29T08:15:34Z</time>
      </trkpt>
      <trkpt lat="45.12806" lon="5.58886">
        <ele>1012.38</ele>
        <time>2019-08-29T08:15:57Z</time>
      </trkpt>
      <trkpt lat="45.12805" lon="5.58889">
        <ele>1012.47</ele>
        <time>2019-08-29T08:16:01Z</time>
      </trkpt>
      <trkpt lat="45.12805" lon="5.58891">
        <ele>1012.49</ele>
        <time>2019-08-29T08:16:02Z</time>
      </trkpt>
      <trkpt lat="45.12807" lon="5.58902">
        <ele>1012.56</ele>
        <time>2019-08-29T08:16:18Z</time>
      </trkpt>
      <trkpt lat="45.12812" lon="5.58916">
        <ele>1012.85</ele>
        <time>2019-08-29T08:16:34Z</time>
      </trkpt>
      <trkpt lat="45.12819" lon="5.58929">
        <ele>1012.88</ele>
        <time>2019-08-29T08:16:55Z</time>
      </trkpt>
      <trkpt lat="45.12815" lon="5.58936">
        <ele>1013.38</ele>
        <time>2019-08-29T08:17:17Z</time>
      </trkpt>
      <trkpt lat="45.12818" lon="5.58939">
        <ele>1013.33</ele>
        <time>2019-08-29T08:17:42Z</time>
      </trkpt>
      <trkpt lat="45.12814" lon="5.58942">
        <ele>1013.4</ele>
        <time>2019-08-29T08:18:06Z</time>
      </trkpt>
      <trkpt lat="45.12818" lon="5.58933">
        <ele>1013.74</ele>
        <time>2019-08-29T08:18:35Z</time>
      </trkpt>
      <trkpt lat="45.12818" lon="5.58931">
        <ele>1013.91</ele>
        <time>2019-08-29T08:19:06Z</time>
      </trkpt>
      <trkpt lat="45.12834" lon="5.58944">
        <ele>1013.71</ele>
        <time>2019-08-29T08:19:37Z</time>
      </trkpt>
      <trkpt lat="45.12831" lon="5.58934">
        <ele>1013.92</ele>
        <time>2019-08-29T08:20:10Z</time>
      </trkpt>
      <trkpt lat="45.12828" lon="5.58936">
        <ele>1014.25</ele>
        <time>2019-08-29T08:20:32Z</time>
      </trkpt>
      <trkpt lat="45.12823" lon="5.58942">
        <ele>1014.74</ele>
        <time>2019-08-29T08:21:02Z</time>
      </trkpt>
      <trkpt lat="45.12816" lon="5.58943">
        <ele>1014.64</ele>
        <time>2019-08-29T08:21:27Z</time>
      </trkpt>
      <trkpt lat="45.12812" lon="5.58941">
        <ele>1014.89</ele>
        <time>2019-08-29T08:21:55Z</time>
      </trkpt>
      <trkpt lat="45.12806" lon="5.58937">
        <ele>1015.31</ele>
        <time>2019-08-29T08:22:37Z</time>
      </trkpt>
      <trkpt lat="45.1281" lon="5.58952">
        <ele>1015.37</ele>
        <time>2019-08-29T08:22:57Z</time>
      </trkpt>
      <trkpt lat="45.12806" lon="5.5899">
        <ele>1016.22</ele>
        <time>2019-08-29T08:23:09Z</time>
      </trkpt>
      <trkpt lat="45.12806" lon="5.58999">
        <ele>1016.45</ele>
        <time>2019-08-29T08:23:12Z</time>
      </trkpt>
      <trkpt lat="45.12806" lon="5.59002">
        <ele>1016.55</ele>
        <time>2019-08-29T08:23:13Z</time>
      </trkpt>
      <trkpt lat="45.12806" lon="5.59005">
        <ele>1016.66</ele>
        <time>2019-08-29T08:23:14Z</time>
      </trkpt>
      <trkpt lat="45.12807" lon="5.59007">
        <ele>1016.78</ele>
        <time>2019-08-29T08:23:15Z</time>
      </trkpt>
      <trkpt lat="45.12807" lon="5.5901">
        <ele>1016.9</ele>
        <time>2019-08-29T08:23:16Z</time>
      </trkpt>
      <trkpt lat="45.12806" lon="5.59013">
        <ele>1017.02</ele>
        <time>2019-08-29T08:23:17Z</time>
      </trkpt>
      <trkpt lat="45.12806" lon="5.59015">
        <ele>1017.12</ele>
        <time>2019-08-29T08:23:18Z</time>
      </trkpt>
      <trkpt lat="45.12805" lon="5.59018">
        <ele>1017.19</ele>
        <time>2019-08-29T08:23:19Z</time>
      </trkpt>
      <trkpt lat="45.12797" lon="5.59063">
        <ele>1017.98</ele>
        <time>2019-08-29T08:23:34Z</time>
      </trkpt>
      <trkpt lat="45.12783" lon="5.59107">
        <ele>1018.78</ele>
        <time>2019-08-29T08:23:49Z</time>
      </trkpt>
      <trkpt lat="45.12771" lon="5.59163">
        <ele>1019.69</ele>
        <time>2019-08-29T08:24:06Z</time>
      </trkpt>
      <trkpt lat="45.12759" lon="5.59207">
        <ele>1020.93</ele>
        <time>2019-08-29T08:24:19Z</time>
      </trkpt>
      <trkpt lat="45.12743" lon="5.59262">
        <ele>1021.63</ele>
        <time>2019-08-29T08:24:34Z</time>
      </trkpt>
      <trkpt lat="45.12731" lon="5.59306">
        <ele>1022.75</ele>
        <time>2019-08-29T08:24:46Z</time>
      </trkpt>
      <trkpt lat="45.1273" lon="5.59309">
        <ele>1022.82</ele>
        <time>2019-08-29T08:24:47Z</time>
      </trkpt>
      <trkpt lat="45.12712" lon="5.59369">
        <ele>1024.04</ele>
        <time>2019-08-29T08:25:03Z</time>
      </trkpt>
      <trkpt lat="45.12693" lon="5.59432">
        <ele>1025.37</ele>
        <time>2019-08-29T08:25:19Z</time>
      </trkpt>
      <trkpt lat="45.12674" lon="5.59495">
        <ele>1026.53</ele>
        <time>2019-08-29T08:25:35Z</time>
      </trkpt>
      <trkpt lat="45.12652" lon="5.59548">
        <ele>1027.92</ele>
        <time>2019-08-29T08:25:52Z</time>
      </trkpt>
      <trkpt lat="45.12637" lon="5.59591">
        <ele>1029.07</ele>
        <time>2019-08-29T08:26:06Z</time>
      </trkpt>
      <trkpt lat="45.12635" lon="5.59595">
        <ele>1029.97</ele>
        <time>2019-08-29T08:26:17Z</time>
      </trkpt>
      <trkpt lat="45.12633" lon="5.59596">
        <ele>1029.94</ele>
        <time>2019-08-29T08:26:20Z</time>
      </trkpt>
      <trkpt lat="45.12632" lon="5.59594">
        <ele>1029.93</ele>
        <time>2019-08-29T08:26:35Z</time>
      </trkpt>
      <trkpt lat="45.12634" lon="5.59597">
        <ele>1029.82</ele>
        <time>2019-08-29T08:27:06Z</time>
      </trkpt>
      <trkpt lat="45.12631" lon="5.59596">
        <ele>1030.03</ele>
        <time>2019-08-29T08:27:16Z</time>
      </trkpt>
      <trkpt lat="45.12631" lon="5.59602">
        <ele>1030.04</ele>
        <time>2019-08-29T08:27:23Z</time>
      </trkpt>
      <trkpt lat="45.12631" lon="5.59603">
        <ele>1030.02</ele>
        <time>2019-08-29T08:27:24Z</time>
      </trkpt>
      <trkpt lat="45.1263" lon="5.59604">
        <ele>1030</ele>
        <time>2019-08-29T08:27:25Z</time>
      </trkpt>
      <trkpt lat="45.12629" lon="5.59605">
        <ele>1029.98</ele>
        <time>2019-08-29T08:27:26Z</time>
      </trkpt>
      <trkpt lat="45.12628" lon="5.59606">
        <ele>1029.95</ele>
        <time>2019-08-29T08:27:27Z</time>
      </trkpt>
      <trkpt lat="45.12627" lon="5.59607">
        <ele>1029.95</ele>
        <time>2019-08-29T08:27:28Z</time>
      </trkpt>
      <trkpt lat="45.12624" lon="5.59609">
        <ele>1030.01</ele>
        <time>2019-08-29T08:27:31Z</time>
      </trkpt>
      <trkpt lat="45.12623" lon="5.59609">
        <ele>1030.05</ele>
        <time>2019-08-29T08:27:32Z</time>
      </trkpt>
      <trkpt lat="45.1262" lon="5.59608">
        <ele>1030.14</ele>
        <time>2019-08-29T08:27:35Z</time>
      </trkpt>
      <trkpt lat="45.12619" lon="5.59607">
        <ele>1030.18</ele>
        <time>2019-08-29T08:27:36Z</time>
      </trkpt>
      <trkpt lat="45.1261" lon="5.59607">
        <ele>1030.3</ele>
        <time>2019-08-29T08:27:52Z</time>
      </trkpt>
      <trkpt lat="45.12607" lon="5.59612">
        <ele>1030.46</ele>
        <time>2019-08-29T08:27:56Z</time>
      </trkpt>
      <trkpt lat="45.12606" lon="5.59618">
        <ele>1030.52</ele>
        <time>2019-08-29T08:28:01Z</time>
      </trkpt>
      <trkpt lat="45.12606" lon="5.5962">
        <ele>1030.51</ele>
        <time>2019-08-29T08:28:02Z</time>
      </trkpt>
      <trkpt lat="45.12606" lon="5.59621">
        <ele>1030.52</ele>
        <time>2019-08-29T08:28:03Z</time>
      </trkpt>
      <trkpt lat="45.12601" lon="5.59646">
        <ele>1030.68</ele>
        <time>2019-08-29T08:28:20Z</time>
      </trkpt>
      <trkpt lat="45.12596" lon="5.59649">
        <ele>1031</ele>
        <time>2019-08-29T08:28:35Z</time>
      </trkpt>
      <trkpt lat="45.12595" lon="5.59648">
        <ele>1031.16</ele>
        <time>2019-08-29T08:28:56Z</time>
      </trkpt>
      <trkpt lat="45.12592" lon="5.59652">
        <ele>1031.3</ele>
        <time>2019-08-29T08:29:14Z</time>
      </trkpt>
      <trkpt lat="45.12593" lon="5.5966">
        <ele>1031.73</ele>
        <time>2019-08-29T08:29:42Z</time>
      </trkpt>
      <trkpt lat="45.1257" lon="5.59673">
        <ele>1031.77</ele>
        <time>2019-08-29T08:29:55Z</time>
      </trkpt>
      <trkpt lat="45.12563" lon="5.59671">
        <ele>1031.87</ele>
        <time>2019-08-29T08:29:58Z</time>
      </trkpt>
      <trkpt lat="45.12561" lon="5.59669">
        <ele>1031.88</ele>
        <time>2019-08-29T08:29:59Z</time>
      </trkpt>
      <trkpt lat="45.12559" lon="5.59668">
        <ele>1031.89</ele>
        <time>2019-08-29T08:30:00Z</time>
      </trkpt>
      <trkpt lat="45.12557" lon="5.59667">
        <ele>1031.84</ele>
        <time>2019-08-29T08:30:01Z</time>
      </trkpt>
      <trkpt lat="45.12555" lon="5.59667">
        <ele>1031.81</ele>
        <time>2019-08-29T08:30:02Z</time>
      </trkpt>
      <trkpt lat="45.12553" lon="5.59666">
        <ele>1031.79</ele>
        <time>2019-08-29T08:30:03Z</time>
      </trkpt>
      <trkpt lat="45.12551" lon="5.59665">
        <ele>1031.77</ele>
        <time>2019-08-29T08:30:04Z</time>
      </trkpt>
      <trkpt lat="45.1255" lon="5.59664">
        <ele>1031.76</ele>
        <time>2019-08-29T08:30:05Z</time>
      </trkpt>
      <trkpt lat="45.12549" lon="5.59663">
        <ele>1031.77</ele>
        <time>2019-08-29T08:30:06Z</time>
      </trkpt>
      <trkpt lat="45.12533" lon="5.59653">
        <ele>1032.37</ele>
        <time>2019-08-29T08:30:17Z</time>
      </trkpt>
      <trkpt lat="45.12526" lon="5.5964">
        <ele>1033.57</ele>
        <time>2019-08-29T08:30:32Z</time>
      </trkpt>
      <trkpt lat="45.12508" lon="5.59619">
        <ele>1035.61</ele>
        <time>2019-08-29T08:30:48Z</time>
      </trkpt>
      <trkpt lat="45.12498" lon="5.59609">
        <ele>1037.98</ele>
        <time>2019-08-29T08:31:01Z</time>
      </trkpt>
      <trkpt lat="45.12496" lon="5.59607">
        <ele>1038.37</ele>
        <time>2019-08-29T08:31:03Z</time>
      </trkpt>
      <trkpt lat="45.12476" lon="5.59602">
        <ele>1041.49</ele>
        <time>2019-08-29T08:31:22Z</time>
      </trkpt>
      <trkpt lat="45.12471" lon="5.59603">
        <ele>1042.44</ele>
        <time>2019-08-29T08:31:27Z</time>
      </trkpt>
      <trkpt lat="45.12457" lon="5.59608">
        <ele>1044.52</ele>
        <time>2019-08-29T08:31:40Z</time>
      </trkpt>
      <trkpt lat="45.1244" lon="5.59613">
        <ele>1047.53</ele>
        <time>2019-08-29T08:31:55Z</time>
      </trkpt>
      <trkpt lat="45.1243" lon="5.59619">
        <ele>1050.54</ele>
        <time>2019-08-29T08:32:10Z</time>
      </trkpt>
      <trkpt lat="45.12419" lon="5.59626">
        <ele>1052.99</ele>
        <time>2019-08-29T08:32:26Z</time>
      </trkpt>
      <trkpt lat="45.12403" lon="5.59629">
        <ele>1055.94</ele>
        <time>2019-08-29T08:32:42Z</time>
      </trkpt>
      <trkpt lat="45.1239" lon="5.59631">
        <ele>1057.31</ele>
        <time>2019-08-29T08:32:55Z</time>
      </trkpt>
      <trkpt lat="45.12379" lon="5.59649">
        <ele>1059.66</ele>
        <time>2019-08-29T08:33:13Z</time>
      </trkpt>
      <trkpt lat="45.12363" lon="5.59658">
        <ele>1062.24</ele>
        <time>2019-08-29T08:33:30Z</time>
      </trkpt>
      <trkpt lat="45.12358" lon="5.59656">
        <ele>1062.88</ele>
        <time>2019-08-29T08:33:43Z</time>
      </trkpt>
      <trkpt lat="45.12357" lon="5.59658">
        <ele>1063.06</ele>
        <time>2019-08-29T08:34:12Z</time>
      </trkpt>
      <trkpt lat="45.1235" lon="5.59654">
        <ele>1063.19</ele>
        <time>2019-08-29T08:34:43Z</time>
      </trkpt>
      <trkpt lat="45.12349" lon="5.59652">
        <ele>1063.19</ele>
        <time>2019-08-29T08:34:45Z</time>
      </trkpt>
      <trkpt lat="45.12345" lon="5.5963">
        <ele>1062.22</ele>
        <time>2019-08-29T08:35:02Z</time>
      </trkpt>
      <trkpt lat="45.1234" lon="5.59631">
        <ele>1061.53</ele>
        <time>2019-08-29T08:35:24Z</time>
      </trkpt>
      <trkpt lat="45.12345" lon="5.5963">
        <ele>1061.55</ele>
        <time>2019-08-29T08:35:46Z</time>
      </trkpt>
      <trkpt lat="45.12337" lon="5.59587">
        <ele>1059.93</ele>
        <time>2019-08-29T08:35:56Z</time>
      </trkpt>
      <trkpt lat="45.12335" lon="5.59582">
        <ele>1059.52</ele>
        <time>2019-08-29T08:35:57Z</time>
      </trkpt>
      <trkpt lat="45.12324" lon="5.59563">
        <ele>1057.72</ele>
        <time>2019-08-29T08:36:01Z</time>
      </trkpt>
      <trkpt lat="45.12322" lon="5.59561">
        <ele>1056.79</ele>
        <time>2019-08-29T08:36:03Z</time>
      </trkpt>
      <trkpt lat="45.12309" lon="5.59544">
        <ele>1058.57</ele>
        <time>2019-08-29T08:36:15Z</time>
      </trkpt>
      <trkpt lat="45.12304" lon="5.59537">
        <ele>1059.68</ele>
        <time>2019-08-29T08:36:20Z</time>
      </trkpt>
      <trkpt lat="45.12286" lon="5.59514">
        <ele>1062.36</ele>
        <time>2019-08-29T08:36:39Z</time>
      </trkpt>
      <trkpt lat="45.12282" lon="5.5951">
        <ele>1062.5</ele>
        <time>2019-08-29T08:36:41Z</time>
      </trkpt>
      <trkpt lat="45.12274" lon="5.59499">
        <ele>1062.81</ele>
        <time>2019-08-29T08:36:56Z</time>
      </trkpt>
      <trkpt lat="45.12255" lon="5.5948">
        <ele>1065.95</ele>
        <time>2019-08-29T08:37:17Z</time>
      </trkpt>
      <trkpt lat="45.12244" lon="5.59477">
        <ele>1069.02</ele>
        <time>2019-08-29T08:37:33Z</time>
      </trkpt>
      <trkpt lat="45.12232" lon="5.59469">
        <ele>1072.11</ele>
        <time>2019-08-29T08:37:49Z</time>
      </trkpt>
      <trkpt lat="45.12231" lon="5.5945">
        <ele>1075.24</ele>
        <time>2019-08-29T08:38:10Z</time>
      </trkpt>
      <trkpt lat="45.12223" lon="5.59434">
        <ele>1077.45</ele>
        <time>2019-08-29T08:38:28Z</time>
      </trkpt>
      <trkpt lat="45.12221" lon="5.59428">
        <ele>1078.65</ele>
        <time>2019-08-29T08:38:42Z</time>
      </trkpt>
      <trkpt lat="45.12207" lon="5.59418">
        <ele>1080.51</ele>
        <time>2019-08-29T08:38:57Z</time>
      </trkpt>
      <trkpt lat="45.12193" lon="5.59412">
        <ele>1083.51</ele>
        <time>2019-08-29T08:39:14Z</time>
      </trkpt>
      <trkpt lat="45.12192" lon="5.59418">
        <ele>1085.95</ele>
        <time>2019-08-29T08:39:29Z</time>
      </trkpt>
      <trkpt lat="45.12193" lon="5.59424">
        <ele>1088.97</ele>
        <time>2019-08-29T08:39:48Z</time>
      </trkpt>
      <trkpt lat="45.12188" lon="5.59418">
        <ele>1090.53</ele>
        <time>2019-08-29T08:40:11Z</time>
      </trkpt>
      <trkpt lat="45.12184" lon="5.59413">
        <ele>1092.64</ele>
        <time>2019-08-29T08:40:24Z</time>
      </trkpt>
      <trkpt lat="45.1218" lon="5.59407">
        <ele>1093.02</ele>
        <time>2019-08-29T08:40:46Z</time>
      </trkpt>
      <trkpt lat="45.12169" lon="5.59398">
        <ele>1094.61</ele>
        <time>2019-08-29T08:41:00Z</time>
      </trkpt>
      <trkpt lat="45.1216" lon="5.59381">
        <ele>1096.07</ele>
        <time>2019-08-29T08:41:13Z</time>
      </trkpt>
      <trkpt lat="45.12157" lon="5.59376">
        <ele>1095.59</ele>
        <time>2019-08-29T08:41:27Z</time>
      </trkpt>
      <trkpt lat="45.12156" lon="5.59374">
        <ele>1095.62</ele>
        <time>2019-08-29T08:41:52Z</time>
      </trkpt>
      <trkpt lat="45.12142" lon="5.59362">
        <ele>1097.63</ele>
        <time>2019-08-29T08:42:12Z</time>
      </trkpt>
      <trkpt lat="45.12134" lon="5.59358">
        <ele>1100.65</ele>
        <time>2019-08-29T08:42:25Z</time>
      </trkpt>
      <trkpt lat="45.12119" lon="5.59351">
        <ele>1103.8</ele>
        <time>2019-08-29T08:42:47Z</time>
      </trkpt>
      <trkpt lat="45.12107" lon="5.59344">
        <ele>1106.87</ele>
        <time>2019-08-29T08:43:04Z</time>
      </trkpt>
      <trkpt lat="45.12098" lon="5.59337">
        <ele>1108</ele>
        <time>2019-08-29T08:43:16Z</time>
      </trkpt>
      <trkpt lat="45.12081" lon="5.59317">
        <ele>1108.59</ele>
        <time>2019-08-29T08:43:34Z</time>
      </trkpt>
      <trkpt lat="45.12074" lon="5.59307">
        <ele>1108.33</ele>
        <time>2019-08-29T08:43:53Z</time>
      </trkpt>
      <trkpt lat="45.12059" lon="5.59289">
        <ele>1107.9</ele>
        <time>2019-08-29T08:44:04Z</time>
      </trkpt>
      <trkpt lat="45.12051" lon="5.59285">
        <ele>1108.13</ele>
        <time>2019-08-29T08:44:18Z</time>
      </trkpt>
      <trkpt lat="45.12052" lon="5.59284">
        <ele>1108.27</ele>
        <time>2019-08-29T08:45:02Z</time>
      </trkpt>
      <trkpt lat="45.12053" lon="5.59283">
        <ele>1108.33</ele>
        <time>2019-08-29T08:46:03Z</time>
      </trkpt>
      <trkpt lat="45.12051" lon="5.59283">
        <ele>1108.55</ele>
        <time>2019-08-29T08:46:33Z</time>
      </trkpt>
      <trkpt lat="45.12052" lon="5.59283">
        <ele>1108.38</ele>
        <time>2019-08-29T08:47:03Z</time>
      </trkpt>
      <trkpt lat="45.12052" lon="5.59284">
        <ele>1108.99</ele>
        <time>2019-08-29T08:47:39Z</time>
      </trkpt>
      <trkpt lat="45.12054" lon="5.59282">
        <ele>1109.02</ele>
        <time>2019-08-29T08:48:03Z</time>
      </trkpt>
      <trkpt lat="45.12054" lon="5.59281">
        <ele>1109.14</ele>
        <time>2019-08-29T08:48:26Z</time>
      </trkpt>
      <trkpt lat="45.12047" lon="5.59276">
        <ele>1108.75</ele>
        <time>2019-08-29T08:48:43Z</time>
      </trkpt>
      <trkpt lat="45.12037" lon="5.59258">
        <ele>1107.96</ele>
        <time>2019-08-29T08:48:54Z</time>
      </trkpt>
      <trkpt lat="45.12029" lon="5.59233">
        <ele>1104.85</ele>
        <time>2019-08-29T08:49:03Z</time>
      </trkpt>
      <trkpt lat="45.12023" lon="5.59217">
        <ele>1101.45</ele>
        <time>2019-08-29T08:49:09Z</time>
      </trkpt>
      <trkpt lat="45.12021" lon="5.59215">
        <ele>1101.45</ele>
        <time>2019-08-29T08:49:10Z</time>
      </trkpt>
      <trkpt lat="45.12" lon="5.59218">
        <ele>1098.42</ele>
        <time>2019-08-29T08:49:16Z</time>
      </trkpt>
      <trkpt lat="45.11968" lon="5.59225">
        <ele>1095.28</ele>
        <time>2019-08-29T08:49:26Z</time>
      </trkpt>
      <trkpt lat="45.11947" lon="5.59223">
        <ele>1092</ele>
        <time>2019-08-29T08:49:33Z</time>
      </trkpt>
      <trkpt lat="45.1192" lon="5.5921">
        <ele>1088.84</ele>
        <time>2019-08-29T08:49:41Z</time>
      </trkpt>
      <trkpt lat="45.1191" lon="5.59207">
        <ele>1087.94</ele>
        <time>2019-08-29T08:49:43Z</time>
      </trkpt>
      <trkpt lat="45.11899" lon="5.59202">
        <ele>1086.76</ele>
        <time>2019-08-29T08:49:45Z</time>
      </trkpt>
      <trkpt lat="45.11859" lon="5.59183">
        <ele>1083.74</ele>
        <time>2019-08-29T08:49:52Z</time>
      </trkpt>
      <trkpt lat="45.11843" lon="5.59177">
        <ele>1082.36</ele>
        <time>2019-08-29T08:49:56Z</time>
      </trkpt>
      <trkpt lat="45.11833" lon="5.59172">
        <ele>1081.8</ele>
        <time>2019-08-29T08:49:58Z</time>
      </trkpt>
      <trkpt lat="45.11829" lon="5.59169">
        <ele>1081.05</ele>
        <time>2019-08-29T08:49:59Z</time>
      </trkpt>
      <trkpt lat="45.11824" lon="5.59166">
        <ele>1081.05</ele>
        <time>2019-08-29T08:50:00Z</time>
      </trkpt>
      <trkpt lat="45.1182" lon="5.59163">
        <ele>1080.39</ele>
        <time>2019-08-29T08:50:01Z</time>
      </trkpt>
      <trkpt lat="45.11816" lon="5.59161">
        <ele>1080.07</ele>
        <time>2019-08-29T08:50:02Z</time>
      </trkpt>
      <trkpt lat="45.11799" lon="5.59152">
        <ele>1079.03</ele>
        <time>2019-08-29T08:50:06Z</time>
      </trkpt>
      <trkpt lat="45.11794" lon="5.59149">
        <ele>1078.71</ele>
        <time>2019-08-29T08:50:07Z</time>
      </trkpt>
      <trkpt lat="45.1179" lon="5.59147">
        <ele>1078.38</ele>
        <time>2019-08-29T08:50:08Z</time>
      </trkpt>
      <trkpt lat="45.11737" lon="5.59117">
        <ele>1075.31</ele>
        <time>2019-08-29T08:50:18Z</time>
      </trkpt>
      <trkpt lat="45.11691" lon="5.59095">
        <ele>1072.32</ele>
        <time>2019-08-29T08:50:30Z</time>
      </trkpt>
      <trkpt lat="45.11686" lon="5.59091">
        <ele>1070.85</ele>
        <time>2019-08-29T08:50:41Z</time>
      </trkpt>
      <trkpt lat="45.11684" lon="5.59088">
        <ele>1070.38</ele>
        <time>2019-08-29T08:51:10Z</time>
      </trkpt>
      <trkpt lat="45.11682" lon="5.59082">
        <ele>1070.57</ele>
        <time>2019-08-29T08:51:41Z</time>
      </trkpt>
      <trkpt lat="45.11679" lon="5.59082">
        <ele>1070.51</ele>
        <time>2019-08-29T08:52:11Z</time>
      </trkpt>
      <trkpt lat="45.11682" lon="5.59088">
        <ele>1070.79</ele>
        <time>2019-08-29T08:52:41Z</time>
      </trkpt>
      <trkpt lat="45.1168" lon="5.59085">
        <ele>1070.99</ele>
        <time>2019-08-29T08:53:09Z</time>
      </trkpt>
      <trkpt lat="45.11679" lon="5.59085">
        <ele>1071.39</ele>
        <time>2019-08-29T08:53:36Z</time>
      </trkpt>
      <trkpt lat="45.11674" lon="5.59083">
        <ele>1071.63</ele>
        <time>2019-08-29T08:53:50Z</time>
      </trkpt>
      <trkpt lat="45.11654" lon="5.59082">
        <ele>1073.54</ele>
        <time>2019-08-29T08:54:06Z</time>
      </trkpt>
      <trkpt lat="45.11636" lon="5.59089">
        <ele>1076.49</ele>
        <time>2019-08-29T08:54:23Z</time>
      </trkpt>
      <trkpt lat="45.11622" lon="5.59094">
        <ele>1079.18</ele>
        <time>2019-08-29T08:54:37Z</time>
      </trkpt>
      <trkpt lat="45.11606" lon="5.59092">
        <ele>1082.12</ele>
        <time>2019-08-29T08:54:53Z</time>
      </trkpt>
      <trkpt lat="45.11589" lon="5.59097">
        <ele>1085.29</ele>
        <time>2019-08-29T08:55:10Z</time>
      </trkpt>
      <trkpt lat="45.11575" lon="5.59116">
        <ele>1088.34</ele>
        <time>2019-08-29T08:55:28Z</time>
      </trkpt>
      <trkpt lat="45.11564" lon="5.59137">
        <ele>1091.34</ele>
        <time>2019-08-29T08:55:47Z</time>
      </trkpt>
      <trkpt lat="45.11552" lon="5.59151">
        <ele>1094.22</ele>
        <time>2019-08-29T08:56:07Z</time>
      </trkpt>
      <trkpt lat="45.11542" lon="5.59157">
        <ele>1096</ele>
        <time>2019-08-29T08:56:19Z</time>
      </trkpt>
      <trkpt lat="45.11533" lon="5.59158">
        <ele>1097.41</ele>
        <time>2019-08-29T08:56:31Z</time>
      </trkpt>
      <trkpt lat="45.11527" lon="5.59157">
        <ele>1098.12</ele>
        <time>2019-08-29T08:56:39Z</time>
      </trkpt>
      <trkpt lat="45.1151" lon="5.59147">
        <ele>1099.94</ele>
        <time>2019-08-29T08:56:56Z</time>
      </trkpt>
      <trkpt lat="45.1149" lon="5.59138">
        <ele>1103.09</ele>
        <time>2019-08-29T08:57:16Z</time>
      </trkpt>
      <trkpt lat="45.11477" lon="5.59133">
        <ele>1105.77</ele>
        <time>2019-08-29T08:57:32Z</time>
      </trkpt>
      <trkpt lat="45.11473" lon="5.59126">
        <ele>1107.3</ele>
        <time>2019-08-29T08:57:53Z</time>
      </trkpt>
      <trkpt lat="45.11469" lon="5.5912">
        <ele>1107.67</ele>
        <time>2019-08-29T08:58:19Z</time>
      </trkpt>
      <trkpt lat="45.11471" lon="5.59121">
        <ele>1107.59</ele>
        <time>2019-08-29T08:58:51Z</time>
      </trkpt>
      <trkpt lat="45.11472" lon="5.59124">
        <ele>1107.52</ele>
        <time>2019-08-29T08:59:27Z</time>
      </trkpt>
      <trkpt lat="45.1147" lon="5.59121">
        <ele>1107.17</ele>
        <time>2019-08-29T08:59:54Z</time>
      </trkpt>
      <trkpt lat="45.11468" lon="5.59119">
        <ele>1107.11</ele>
        <time>2019-08-29T09:00:26Z</time>
      </trkpt>
      <trkpt lat="45.11462" lon="5.59106">
        <ele>1106.72</ele>
        <time>2019-08-29T09:00:32Z</time>
      </trkpt>
      <trkpt lat="45.11457" lon="5.59096">
        <ele>1106.79</ele>
        <time>2019-08-29T09:00:38Z</time>
      </trkpt>
      <trkpt lat="45.11457" lon="5.59087">
        <ele>1107.66</ele>
        <time>2019-08-29T09:00:42Z</time>
      </trkpt>
      <trkpt lat="45.11456" lon="5.5908">
        <ele>1108.01</ele>
        <time>2019-08-29T09:00:44Z</time>
      </trkpt>
      <trkpt lat="45.11458" lon="5.59055">
        <ele>1109.07</ele>
        <time>2019-08-29T09:00:57Z</time>
      </trkpt>
      <trkpt lat="45.11457" lon="5.59051">
        <ele>1109.08</ele>
        <time>2019-08-29T09:01:23Z</time>
      </trkpt>
      <trkpt lat="45.11453" lon="5.59072">
        <ele>1108.72</ele>
        <time>2019-08-29T09:01:33Z</time>
      </trkpt>
      <trkpt lat="45.11466" lon="5.59112">
        <ele>1107.92</ele>
        <time>2019-08-29T09:01:41Z</time>
      </trkpt>
      <trkpt lat="45.11468" lon="5.59119">
        <ele>1106.98</ele>
        <time>2019-08-29T09:01:52Z</time>
      </trkpt>
      <trkpt lat="45.1146" lon="5.59123">
        <ele>1108.22</ele>
        <time>2019-08-29T09:02:07Z</time>
      </trkpt>
      <trkpt lat="45.11452" lon="5.59112">
        <ele>1111.38</ele>
        <time>2019-08-29T09:02:26Z</time>
      </trkpt>
      <trkpt lat="45.11445" lon="5.59099">
        <ele>1112.45</ele>
        <time>2019-08-29T09:02:38Z</time>
      </trkpt>
      <trkpt lat="45.11437" lon="5.59083">
        <ele>1115.32</ele>
        <time>2019-08-29T09:02:53Z</time>
      </trkpt>
      <trkpt lat="45.1143" lon="5.59077">
        <ele>1116.96</ele>
        <time>2019-08-29T09:03:11Z</time>
      </trkpt>
      <trkpt lat="45.11429" lon="5.59077">
        <ele>1117.02</ele>
        <time>2019-08-29T09:03:12Z</time>
      </trkpt>
      <trkpt lat="45.11413" lon="5.59077">
        <ele>1119.63</ele>
        <time>2019-08-29T09:03:30Z</time>
      </trkpt>
      <trkpt lat="45.11405" lon="5.59065">
        <ele>1120.81</ele>
        <time>2019-08-29T09:03:43Z</time>
      </trkpt>
      <trkpt lat="45.11392" lon="5.59063">
        <ele>1122.03</ele>
        <time>2019-08-29T09:03:58Z</time>
      </trkpt>
      <trkpt lat="45.11396" lon="5.59075">
        <ele>1123.18</ele>
        <time>2019-08-29T09:04:11Z</time>
      </trkpt>
      <trkpt lat="45.11397" lon="5.59088">
        <ele>1126.21</ele>
        <time>2019-08-29T09:04:28Z</time>
      </trkpt>
      <trkpt lat="45.11386" lon="5.59088">
        <ele>1129.27</ele>
        <time>2019-08-29T09:04:46Z</time>
      </trkpt>
      <trkpt lat="45.11378" lon="5.59082">
        <ele>1130.76</ele>
        <time>2019-08-29T09:05:07Z</time>
      </trkpt>
      <trkpt lat="45.11364" lon="5.59071">
        <ele>1131.59</ele>
        <time>2019-08-29T09:05:25Z</time>
      </trkpt>
      <trkpt lat="45.11351" lon="5.5906">
        <ele>1132.4</ele>
        <time>2019-08-29T09:05:39Z</time>
      </trkpt>
      <trkpt lat="45.11342" lon="5.59052">
        <ele>1132.76</ele>
        <time>2019-08-29T09:05:47Z</time>
      </trkpt>
      <trkpt lat="45.11327" lon="5.59038">
        <ele>1133.59</ele>
        <time>2019-08-29T09:06:01Z</time>
      </trkpt>
      <trkpt lat="45.113" lon="5.58992">
        <ele>1133.21</ele>
        <time>2019-08-29T09:06:17Z</time>
      </trkpt>
      <trkpt lat="45.11295" lon="5.58977">
        <ele>1132.26</ele>
        <time>2019-08-29T09:06:27Z</time>
      </trkpt>
      <trkpt lat="45.11292" lon="5.58936">
        <ele>1131.48</ele>
        <time>2019-08-29T09:06:41Z</time>
      </trkpt>
      <trkpt lat="45.11288" lon="5.58902">
        <ele>1131.51</ele>
        <time>2019-08-29T09:06:52Z</time>
      </trkpt>
      <trkpt lat="45.11285" lon="5.58895">
        <ele>1131.89</ele>
        <time>2019-08-29T09:07:08Z</time>
      </trkpt>
      <trkpt lat="45.1128" lon="5.58874">
        <ele>1131.98</ele>
        <time>2019-08-29T09:07:23Z</time>
      </trkpt>
      <trkpt lat="45.11267" lon="5.58843">
        <ele>1131.99</ele>
        <time>2019-08-29T09:07:34Z</time>
      </trkpt>
      <trkpt lat="45.11243" lon="5.58811">
        <ele>1131.07</ele>
        <time>2019-08-29T09:07:44Z</time>
      </trkpt>
      <trkpt lat="45.11226" lon="5.58798">
        <ele>1128.79</ele>
        <time>2019-08-29T09:07:53Z</time>
      </trkpt>
      <trkpt lat="45.1122" lon="5.58796">
        <ele>1127.96</ele>
        <time>2019-08-29T09:07:56Z</time>
      </trkpt>
      <trkpt lat="45.11205" lon="5.58783">
        <ele>1124.73</ele>
        <time>2019-08-29T09:08:07Z</time>
      </trkpt>
      <trkpt lat="45.11187" lon="5.58771">
        <ele>1123.35</ele>
        <time>2019-08-29T09:08:23Z</time>
      </trkpt>
      <trkpt lat="45.11159" lon="5.58755">
        <ele>1120.29</ele>
        <time>2019-08-29T09:08:32Z</time>
      </trkpt>
      <trkpt lat="45.11148" lon="5.58748">
        <ele>1119.08</ele>
        <time>2019-08-29T09:08:35Z</time>
      </trkpt>
      <trkpt lat="45.11139" lon="5.58738">
        <ele>1116.65</ele>
        <time>2019-08-29T09:08:40Z</time>
      </trkpt>
      <trkpt lat="45.11121" lon="5.58724">
        <ele>1113.12</ele>
        <time>2019-08-29T09:08:49Z</time>
      </trkpt>
      <trkpt lat="45.11113" lon="5.5872">
        <ele>1111.35</ele>
        <time>2019-08-29T09:08:53Z</time>
      </trkpt>
      <trkpt lat="45.11103" lon="5.58715">
        <ele>1107.78</ele>
        <time>2019-08-29T09:09:01Z</time>
      </trkpt>
      <trkpt lat="45.11091" lon="5.58705">
        <ele>1104.66</ele>
        <time>2019-08-29T09:09:16Z</time>
      </trkpt>
      <trkpt lat="45.11087" lon="5.587">
        <ele>1102.51</ele>
        <time>2019-08-29T09:09:25Z</time>
      </trkpt>
      <trkpt lat="45.11079" lon="5.58693">
        <ele>1101.37</ele>
        <time>2019-08-29T09:09:30Z</time>
      </trkpt>
      <trkpt lat="45.11067" lon="5.58681">
        <ele>1099.51</ele>
        <time>2019-08-29T09:09:37Z</time>
      </trkpt>
      <trkpt lat="45.11046" lon="5.58665">
        <ele>1095.79</ele>
        <time>2019-08-29T09:09:45Z</time>
      </trkpt>
      <trkpt lat="45.11032" lon="5.58656">
        <ele>1092.45</ele>
        <time>2019-08-29T09:09:51Z</time>
      </trkpt>
      <trkpt lat="45.11028" lon="5.58655">
        <ele>1092.45</ele>
        <time>2019-08-29T09:09:52Z</time>
      </trkpt>
      <trkpt lat="45.11001" lon="5.5865">
        <ele>1089.12</ele>
        <time>2019-08-29T09:09:59Z</time>
      </trkpt>
      <trkpt lat="45.10984" lon="5.58647">
        <ele>1086.51</ele>
        <time>2019-08-29T09:10:08Z</time>
      </trkpt>
      <trkpt lat="45.10978" lon="5.5864">
        <ele>1086.14</ele>
        <time>2019-08-29T09:10:39Z</time>
      </trkpt>
      <trkpt lat="45.1097" lon="5.58641">
        <ele>1086.12</ele>
        <time>2019-08-29T09:11:05Z</time>
      </trkpt>
      <trkpt lat="45.10938" lon="5.58652">
        <ele>1085.5</ele>
        <time>2019-08-29T09:11:15Z</time>
      </trkpt>
      <trkpt lat="45.10923" lon="5.5866">
        <ele>1085.22</ele>
        <time>2019-08-29T09:11:19Z</time>
      </trkpt>
      <trkpt lat="45.10906" lon="5.58665">
        <ele>1084.66</ele>
        <time>2019-08-29T09:11:23Z</time>
      </trkpt>
      <trkpt lat="45.10864" lon="5.58686">
        <ele>1083.45</ele>
        <time>2019-08-29T09:11:35Z</time>
      </trkpt>
      <trkpt lat="45.10835" lon="5.58685">
        <ele>1082.72</ele>
        <time>2019-08-29T09:11:41Z</time>
      </trkpt>
      <trkpt lat="45.10811" lon="5.58679">
        <ele>1081.43</ele>
        <time>2019-08-29T09:11:46Z</time>
      </trkpt>
      <trkpt lat="45.10796" lon="5.58683">
        <ele>1081.27</ele>
        <time>2019-08-29T09:11:54Z</time>
      </trkpt>
      <trkpt lat="45.10793" lon="5.58688">
        <ele>1081.29</ele>
        <time>2019-08-29T09:12:27Z</time>
      </trkpt>
      <trkpt lat="45.1079" lon="5.58686">
        <ele>1081.26</ele>
        <time>2019-08-29T09:12:40Z</time>
      </trkpt>
      <trkpt lat="45.10774" lon="5.58677">
        <ele>1080.15</ele>
        <time>2019-08-29T09:12:51Z</time>
      </trkpt>
      <trkpt lat="45.10772" lon="5.58676">
        <ele>1079.4</ele>
        <time>2019-08-29T09:12:58Z</time>
      </trkpt>
      <trkpt lat="45.10767" lon="5.58676">
        <ele>1079.3</ele>
        <time>2019-08-29T09:13:02Z</time>
      </trkpt>
      <trkpt lat="45.10752" lon="5.5868">
        <ele>1081.11</ele>
        <time>2019-08-29T09:13:16Z</time>
      </trkpt>
      <trkpt lat="45.1073" lon="5.58686">
        <ele>1081.09</ele>
        <time>2019-08-29T09:13:25Z</time>
      </trkpt>
      <trkpt lat="45.10701" lon="5.5869">
        <ele>1080.67</ele>
        <time>2019-08-29T09:13:37Z</time>
      </trkpt>
      <trkpt lat="45.1067" lon="5.58688">
        <ele>1080.38</ele>
        <time>2019-08-29T09:13:48Z</time>
      </trkpt>
      <trkpt lat="45.1063" lon="5.587">
        <ele>1079.75</ele>
        <time>2019-08-29T09:14:02Z</time>
      </trkpt>
      <trkpt lat="45.10608" lon="5.58696">
        <ele>1080.17</ele>
        <time>2019-08-29T09:14:16Z</time>
      </trkpt>
      <trkpt lat="45.10605" lon="5.58693">
        <ele>1080.23</ele>
        <time>2019-08-29T09:14:31Z</time>
      </trkpt>
      <trkpt lat="45.10604" lon="5.58692">
        <ele>1080.2</ele>
        <time>2019-08-29T09:14:32Z</time>
      </trkpt>
      <trkpt lat="45.10601" lon="5.58681">
        <ele>1079.43</ele>
        <time>2019-08-29T09:14:42Z</time>
      </trkpt>
      <trkpt lat="45.106" lon="5.58679">
        <ele>1079.42</ele>
        <time>2019-08-29T09:14:43Z</time>
      </trkpt>
      <trkpt lat="45.10599" lon="5.58677">
        <ele>1079.4</ele>
        <time>2019-08-29T09:14:44Z</time>
      </trkpt>
      <trkpt lat="45.10599" lon="5.58676">
        <ele>1079.39</ele>
        <time>2019-08-29T09:14:45Z</time>
      </trkpt>
      <trkpt lat="45.10597" lon="5.58668">
        <ele>1079.64</ele>
        <time>2019-08-29T09:14:51Z</time>
      </trkpt>
      <trkpt lat="45.10596" lon="5.5866">
        <ele>1080.38</ele>
        <time>2019-08-29T09:15:05Z</time>
      </trkpt>
      <trkpt lat="45.10593" lon="5.58647">
        <ele>1082.52</ele>
        <time>2019-08-29T09:15:22Z</time>
      </trkpt>
      <trkpt lat="45.10594" lon="5.58628">
        <ele>1085.04</ele>
        <time>2019-08-29T09:15:41Z</time>
      </trkpt>
      <trkpt lat="45.10596" lon="5.58608">
        <ele>1087.5</ele>
        <time>2019-08-29T09:15:57Z</time>
      </trkpt>
      <trkpt lat="45.10592" lon="5.58587">
        <ele>1089.89</ele>
        <time>2019-08-29T09:16:13Z</time>
      </trkpt>
      <trkpt lat="45.10591" lon="5.58583">
        <ele>1091.31</ele>
        <time>2019-08-29T09:16:32Z</time>
      </trkpt>
      <trkpt lat="45.10586" lon="5.58579">
        <ele>1091.87</ele>
        <time>2019-08-29T09:16:56Z</time>
      </trkpt>
      <trkpt lat="45.10581" lon="5.58577">
        <ele>1092.68</ele>
        <time>2019-08-29T09:17:01Z</time>
      </trkpt>
      <trkpt lat="45.10566" lon="5.58578">
        <ele>1095.52</ele>
        <time>2019-08-29T09:17:17Z</time>
      </trkpt>
      <trkpt lat="45.10554" lon="5.58581">
        <ele>1098.72</ele>
        <time>2019-08-29T09:17:33Z</time>
      </trkpt>
      <trkpt lat="45.10549" lon="5.58581">
        <ele>1100.23</ele>
        <time>2019-08-29T09:17:52Z</time>
      </trkpt>
      <trkpt lat="45.10544" lon="5.5858">
        <ele>1100.51</ele>
        <time>2019-08-29T09:18:06Z</time>
      </trkpt>
      <trkpt lat="45.10543" lon="5.58579">
        <ele>1100.52</ele>
        <time>2019-08-29T09:18:07Z</time>
      </trkpt>
      <trkpt lat="45.10532" lon="5.58574">
        <ele>1100.68</ele>
        <time>2019-08-29T09:18:27Z</time>
      </trkpt>
      <trkpt lat="45.10531" lon="5.58573">
        <ele>1100.54</ele>
        <time>2019-08-29T09:19:00Z</time>
      </trkpt>
      <trkpt lat="45.10526" lon="5.58572">
        <ele>1100.65</ele>
        <time>2019-08-29T09:19:20Z</time>
      </trkpt>
      <trkpt lat="45.10515" lon="5.58568">
        <ele>1100.55</ele>
        <time>2019-08-29T09:19:35Z</time>
      </trkpt>
      <trkpt lat="45.10508" lon="5.58565">
        <ele>1100.42</ele>
        <time>2019-08-29T09:19:43Z</time>
      </trkpt>
      <trkpt lat="45.10507" lon="5.58564">
        <ele>1100.4</ele>
        <time>2019-08-29T09:19:44Z</time>
      </trkpt>
      <trkpt lat="45.1049" lon="5.58563">
        <ele>1099.69</ele>
        <time>2019-08-29T09:19:56Z</time>
      </trkpt>
      <trkpt lat="45.10484" lon="5.5856">
        <ele>1099.07</ele>
        <time>2019-08-29T09:20:16Z</time>
      </trkpt>
      <trkpt lat="45.1047" lon="5.58562">
        <ele>1098.88</ele>
        <time>2019-08-29T09:20:21Z</time>
      </trkpt>
      <trkpt lat="45.10465" lon="5.58564">
        <ele>1098.68</ele>
        <time>2019-08-29T09:20:22Z</time>
      </trkpt>
      <trkpt lat="45.10437" lon="5.58579">
        <ele>1096.48</ele>
        <time>2019-08-29T09:20:28Z</time>
      </trkpt>
      <trkpt lat="45.1041" lon="5.58597">
        <ele>1093.39</ele>
        <time>2019-08-29T09:20:36Z</time>
      </trkpt>
      <trkpt lat="45.10367" lon="5.58608">
        <ele>1091.86</ele>
        <time>2019-08-29T09:20:50Z</time>
      </trkpt>
      <trkpt lat="45.10359" lon="5.58604">
        <ele>1091.73</ele>
        <time>2019-08-29T09:20:52Z</time>
      </trkpt>
      <trkpt lat="45.1034" lon="5.58594">
        <ele>1090.72</ele>
        <time>2019-08-29T09:20:56Z</time>
      </trkpt>
      <trkpt lat="45.10335" lon="5.58592">
        <ele>1090.5</ele>
        <time>2019-08-29T09:20:57Z</time>
      </trkpt>
      <trkpt lat="45.1032" lon="5.5859">
        <ele>1089.97</ele>
        <time>2019-08-29T09:21:00Z</time>
      </trkpt>
      <trkpt lat="45.1031" lon="5.5859">
        <ele>1089.74</ele>
        <time>2019-08-29T09:21:02Z</time>
      </trkpt>
      <trkpt lat="45.10263" lon="5.58587">
        <ele>1088.66</ele>
        <time>2019-08-29T09:21:10Z</time>
      </trkpt>
      <trkpt lat="45.10243" lon="5.58579">
        <ele>1087.89</ele>
        <time>2019-08-29T09:21:14Z</time>
      </trkpt>
      <trkpt lat="45.1022" lon="5.58565">
        <ele>1087.51</ele>
        <time>2019-08-29T09:21:20Z</time>
      </trkpt>
      <trkpt lat="45.10215" lon="5.58563">
        <ele>1087.44</ele>
        <time>2019-08-29T09:21:21Z</time>
      </trkpt>
      <trkpt lat="45.10207" lon="5.58558">
        <ele>1087.16</ele>
        <time>2019-08-29T09:21:23Z</time>
      </trkpt>
      <trkpt lat="45.10203" lon="5.58556">
        <ele>1086.94</ele>
        <time>2019-08-29T09:21:24Z</time>
      </trkpt>
      <trkpt lat="45.102" lon="5.58553">
        <ele>1086.69</ele>
        <time>2019-08-29T09:21:25Z</time>
      </trkpt>
      <trkpt lat="45.10198" lon="5.58551">
        <ele>1086.46</ele>
        <time>2019-08-29T09:21:26Z</time>
      </trkpt>
      <trkpt lat="45.10195" lon="5.5855">
        <ele>1086.22</ele>
        <time>2019-08-29T09:21:27Z</time>
      </trkpt>
      <trkpt lat="45.10193" lon="5.58551">
        <ele>1085.95</ele>
        <time>2019-08-29T09:21:28Z</time>
      </trkpt>
      <trkpt lat="45.1019" lon="5.58551">
        <ele>1085.7</ele>
        <time>2019-08-29T09:21:29Z</time>
      </trkpt>
      <trkpt lat="45.10188" lon="5.58553">
        <ele>1085.47</ele>
        <time>2019-08-29T09:21:30Z</time>
      </trkpt>
      <trkpt lat="45.10186" lon="5.58555">
        <ele>1085.27</ele>
        <time>2019-08-29T09:21:31Z</time>
      </trkpt>
      <trkpt lat="45.10181" lon="5.58561">
        <ele>1084.31</ele>
        <time>2019-08-29T09:21:41Z</time>
      </trkpt>
      <trkpt lat="45.10179" lon="5.58563">
        <ele>1084.55</ele>
        <time>2019-08-29T09:22:12Z</time>
      </trkpt>
      <trkpt lat="45.10183" lon="5.58567">
        <ele>1084.29</ele>
        <time>2019-08-29T09:22:45Z</time>
      </trkpt>
      <trkpt lat="45.10182" lon="5.58562">
        <ele>1084.2</ele>
        <time>2019-08-29T09:23:05Z</time>
      </trkpt>
      <trkpt lat="45.10189" lon="5.58559">
        <ele>1083.85</ele>
        <time>2019-08-29T09:23:22Z</time>
      </trkpt>
      <trkpt lat="45.10189" lon="5.58549">
        <ele>1083.32</ele>
        <time>2019-08-29T09:23:31Z</time>
      </trkpt>
      <trkpt lat="45.10188" lon="5.58544">
        <ele>1083.15</ele>
        <time>2019-08-29T09:23:34Z</time>
      </trkpt>
      <trkpt lat="45.10186" lon="5.58541">
        <ele>1083.1</ele>
        <time>2019-08-29T09:23:35Z</time>
      </trkpt>
      <trkpt lat="45.10184" lon="5.58539">
        <ele>1083.06</ele>
        <time>2019-08-29T09:23:36Z</time>
      </trkpt>
      <trkpt lat="45.10182" lon="5.58538">
        <ele>1083.03</ele>
        <time>2019-08-29T09:23:37Z</time>
      </trkpt>
      <trkpt lat="45.1018" lon="5.58536">
        <ele>1082.93</ele>
        <time>2019-08-29T09:23:38Z</time>
      </trkpt>
      <trkpt lat="45.10173" lon="5.58533">
        <ele>1082.4</ele>
        <time>2019-08-29T09:23:41Z</time>
      </trkpt>
      <trkpt lat="45.10169" lon="5.58521">
        <ele>1080.67</ele>
        <time>2019-08-29T09:23:51Z</time>
      </trkpt>
      <trkpt lat="45.10166" lon="5.58519">
        <ele>1079.76</ele>
        <time>2019-08-29T09:24:17Z</time>
      </trkpt>
      <trkpt lat="45.10142" lon="5.58503">
        <ele>1079.4</ele>
        <time>2019-08-29T09:24:30Z</time>
      </trkpt>
      <trkpt lat="45.10138" lon="5.585">
        <ele>1079.29</ele>
        <time>2019-08-29T09:24:31Z</time>
      </trkpt>
      <trkpt lat="45.10096" lon="5.58482">
        <ele>1077.2</ele>
        <time>2019-08-29T09:24:42Z</time>
      </trkpt>
      <trkpt lat="45.10078" lon="5.58476">
        <ele>1076.41</ele>
        <time>2019-08-29T09:24:45Z</time>
      </trkpt>
      <trkpt lat="45.10036" lon="5.58452">
        <ele>1073.19</ele>
        <time>2019-08-29T09:24:51Z</time>
      </trkpt>
      <trkpt lat="45.10029" lon="5.5845">
        <ele>1072.51</ele>
        <time>2019-08-29T09:24:52Z</time>
      </trkpt>
      <trkpt lat="45.10021" lon="5.58449">
        <ele>1071.89</ele>
        <time>2019-08-29T09:24:53Z</time>
      </trkpt>
      <trkpt lat="45.10015" lon="5.58449">
        <ele>1071.26</ele>
        <time>2019-08-29T09:24:54Z</time>
      </trkpt>
      <trkpt lat="45.09999" lon="5.5845">
        <ele>1069.23</ele>
        <time>2019-08-29T09:24:58Z</time>
      </trkpt>
      <trkpt lat="45.09992" lon="5.58451">
        <ele>1066.43</ele>
        <time>2019-08-29T09:25:09Z</time>
      </trkpt>
      <trkpt lat="45.09994" lon="5.58447">
        <ele>1066.15</ele>
        <time>2019-08-29T09:25:38Z</time>
      </trkpt>
      <trkpt lat="45.09991" lon="5.58445">
        <ele>1065.86</ele>
        <time>2019-08-29T09:26:00Z</time>
      </trkpt>
      <trkpt lat="45.0999" lon="5.58444">
        <ele>1065.86</ele>
        <time>2019-08-29T09:26:01Z</time>
      </trkpt>
      <trkpt lat="45.09988" lon="5.58442">
        <ele>1065.86</ele>
        <time>2019-08-29T09:26:02Z</time>
      </trkpt>
      <trkpt lat="45.09987" lon="5.5844">
        <ele>1065.83</ele>
        <time>2019-08-29T09:26:03Z</time>
      </trkpt>
      <trkpt lat="45.09985" lon="5.58437">
        <ele>1065.79</ele>
        <time>2019-08-29T09:26:04Z</time>
      </trkpt>
      <trkpt lat="45.09954" lon="5.58375">
        <ele>1064.02</ele>
        <time>2019-08-29T09:26:13Z</time>
      </trkpt>
      <trkpt lat="45.0994" lon="5.58349">
        <ele>1062.03</ele>
        <time>2019-08-29T09:26:16Z</time>
      </trkpt>
      <trkpt lat="45.09934" lon="5.58342">
        <ele>1061.5</ele>
        <time>2019-08-29T09:26:17Z</time>
      </trkpt>
      <trkpt lat="45.09928" lon="5.58335">
        <ele>1061.02</ele>
        <time>2019-08-29T09:26:18Z</time>
      </trkpt>
      <trkpt lat="45.09921" lon="5.5833">
        <ele>1060.57</ele>
        <time>2019-08-29T09:26:19Z</time>
      </trkpt>
      <trkpt lat="45.09913" lon="5.58325">
        <ele>1060.14</ele>
        <time>2019-08-29T09:26:20Z</time>
      </trkpt>
      <trkpt lat="45.09857" lon="5.58278">
        <ele>1056.71</ele>
        <time>2019-08-29T09:26:28Z</time>
      </trkpt>
      <trkpt lat="45.09823" lon="5.58227">
        <ele>1053.08</ele>
        <time>2019-08-29T09:26:34Z</time>
      </trkpt>
      <trkpt lat="45.09819" lon="5.58219">
        <ele>1052.38</ele>
        <time>2019-08-29T09:26:35Z</time>
      </trkpt>
      <trkpt lat="45.09817" lon="5.58209">
        <ele>1051.64</ele>
        <time>2019-08-29T09:26:36Z</time>
      </trkpt>
      <trkpt lat="45.09818" lon="5.58199">
        <ele>1050.88</ele>
        <time>2019-08-29T09:26:37Z</time>
      </trkpt>
      <trkpt lat="45.09821" lon="5.58189">
        <ele>1049.37</ele>
        <time>2019-08-29T09:26:38Z</time>
      </trkpt>
      <trkpt lat="45.09826" lon="5.58179">
        <ele>1048.6</ele>
        <time>2019-08-29T09:26:39Z</time>
      </trkpt>
      <trkpt lat="45.09831" lon="5.58169">
        <ele>1047.78</ele>
        <time>2019-08-29T09:26:40Z</time>
      </trkpt>
      <trkpt lat="45.09851" lon="5.58124">
        <ele>1044.35</ele>
        <time>2019-08-29T09:26:44Z</time>
      </trkpt>
      <trkpt lat="45.09864" lon="5.5808">
        <ele>1041.22</ele>
        <time>2019-08-29T09:26:48Z</time>
      </trkpt>
      <trkpt lat="45.09872" lon="5.58026">
        <ele>1037.88</ele>
        <time>2019-08-29T09:26:53Z</time>
      </trkpt>
      <trkpt lat="45.09874" lon="5.58016">
        <ele>1037.3</ele>
        <time>2019-08-29T09:26:54Z</time>
      </trkpt>
      <trkpt lat="45.09876" lon="5.58007">
        <ele>1036.74</ele>
        <time>2019-08-29T09:26:55Z</time>
      </trkpt>
      <trkpt lat="45.09879" lon="5.57999">
        <ele>1036.22</ele>
        <time>2019-08-29T09:26:56Z</time>
      </trkpt>
      <trkpt lat="45.09886" lon="5.57974">
        <ele>1033.7</ele>
        <time>2019-08-29T09:27:01Z</time>
      </trkpt>
      <trkpt lat="45.09885" lon="5.57971">
        <ele>1031.24</ele>
        <time>2019-08-29T09:27:14Z</time>
      </trkpt>
      <trkpt lat="45.09887" lon="5.5797">
        <ele>1031.21</ele>
        <time>2019-08-29T09:27:15Z</time>
      </trkpt>
      <trkpt lat="45.09889" lon="5.57968">
        <ele>1031.18</ele>
        <time>2019-08-29T09:27:16Z</time>
      </trkpt>
      <trkpt lat="45.09891" lon="5.57968">
        <ele>1031.15</ele>
        <time>2019-08-29T09:27:17Z</time>
      </trkpt>
      <trkpt lat="45.09894" lon="5.57967">
        <ele>1031.11</ele>
        <time>2019-08-29T09:27:18Z</time>
      </trkpt>
      <trkpt lat="45.09897" lon="5.57967">
        <ele>1031.08</ele>
        <time>2019-08-29T09:27:19Z</time>
      </trkpt>
      <trkpt lat="45.09933" lon="5.57956">
        <ele>1031.37</ele>
        <time>2019-08-29T09:27:34Z</time>
      </trkpt>
      <trkpt lat="45.09943" lon="5.57915">
        <ele>1031.27</ele>
        <time>2019-08-29T09:27:42Z</time>
      </trkpt>
      <trkpt lat="45.09945" lon="5.57884">
        <ele>1030.77</ele>
        <time>2019-08-29T09:27:45Z</time>
      </trkpt>
      <trkpt lat="45.09947" lon="5.57873">
        <ele>1030.45</ele>
        <time>2019-08-29T09:27:46Z</time>
      </trkpt>
      <trkpt lat="45.09949" lon="5.57861">
        <ele>1030.08</ele>
        <time>2019-08-29T09:27:47Z</time>
      </trkpt>
      <trkpt lat="45.09968" lon="5.57796">
        <ele>1027.08</ele>
        <time>2019-08-29T09:27:52Z</time>
      </trkpt>
      <trkpt lat="45.09987" lon="5.57729">
        <ele>1023.67</ele>
        <time>2019-08-29T09:27:57Z</time>
      </trkpt>
      <trkpt lat="45.1001" lon="5.57655">
        <ele>1020.65</ele>
        <time>2019-08-29T09:28:03Z</time>
      </trkpt>
      <trkpt lat="45.10045" lon="5.5755">
        <ele>1017.95</ele>
        <time>2019-08-29T09:28:12Z</time>
      </trkpt>
      <trkpt lat="45.10048" lon="5.57537">
        <ele>1017.52</ele>
        <time>2019-08-29T09:28:13Z</time>
      </trkpt>
      <trkpt lat="45.10048" lon="5.57523">
        <ele>1016.96</ele>
        <time>2019-08-29T09:28:14Z</time>
      </trkpt>
      <trkpt lat="45.10047" lon="5.57509">
        <ele>1015.78</ele>
        <time>2019-08-29T09:28:15Z</time>
      </trkpt>
      <trkpt lat="45.10045" lon="5.57496">
        <ele>1015.22</ele>
        <time>2019-08-29T09:28:16Z</time>
      </trkpt>
      <trkpt lat="45.10033" lon="5.57416">
        <ele>1011.99</ele>
        <time>2019-08-29T09:28:22Z</time>
      </trkpt>
      <trkpt lat="45.10026" lon="5.57354">
        <ele>1009.84</ele>
        <time>2019-08-29T09:28:29Z</time>
      </trkpt>
      <trkpt lat="45.10027" lon="5.57341">
        <ele>1008.9</ele>
        <time>2019-08-29T09:28:37Z</time>
      </trkpt>
      <trkpt lat="45.10025" lon="5.57341">
        <ele>1008.55</ele>
        <time>2019-08-29T09:28:59Z</time>
      </trkpt>
      <trkpt lat="45.10024" lon="5.57342">
        <ele>1008.55</ele>
        <time>2019-08-29T09:29:00Z</time>
      </trkpt>
      <trkpt lat="45.10023" lon="5.57374">
        <ele>1008.34</ele>
        <time>2019-08-29T09:29:10Z</time>
      </trkpt>
      <trkpt lat="45.10021" lon="5.57375">
        <ele>1008.33</ele>
        <time>2019-08-29T09:29:11Z</time>
      </trkpt>
      <trkpt lat="45.10019" lon="5.57376">
        <ele>1008.33</ele>
        <time>2019-08-29T09:29:12Z</time>
      </trkpt>
      <trkpt lat="45.10018" lon="5.57376">
        <ele>1008.32</ele>
        <time>2019-08-29T09:29:13Z</time>
      </trkpt>
      <trkpt lat="45.10016" lon="5.57375">
        <ele>1008.3</ele>
        <time>2019-08-29T09:29:14Z</time>
      </trkpt>
      <trkpt lat="45.10015" lon="5.57375">
        <ele>1008.29</ele>
        <time>2019-08-29T09:29:15Z</time>
      </trkpt>
      <trkpt lat="45.10013" lon="5.57376">
        <ele>1008.27</ele>
        <time>2019-08-29T09:29:16Z</time>
      </trkpt>
      <trkpt lat="45.10011" lon="5.57376">
        <ele>1008.25</ele>
        <time>2019-08-29T09:29:17Z</time>
      </trkpt>
      <trkpt lat="45.1001" lon="5.57376">
        <ele>1008.22</ele>
        <time>2019-08-29T09:29:18Z</time>
      </trkpt>
      <trkpt lat="45.10008" lon="5.57376">
        <ele>1008.23</ele>
        <time>2019-08-29T09:29:19Z</time>
      </trkpt>
      <trkpt lat="45.10005" lon="5.57375">
        <ele>1008.27</ele>
        <time>2019-08-29T09:29:20Z</time>
      </trkpt>
      <trkpt lat="45.10003" lon="5.57375">
        <ele>1008.32</ele>
        <time>2019-08-29T09:29:21Z</time>
      </trkpt>
      <trkpt lat="45.09961" lon="5.57363">
        <ele>1009.25</ele>
        <time>2019-08-29T09:29:38Z</time>
      </trkpt>
      <trkpt lat="45.09941" lon="5.57352">
        <ele>1009.02</ele>
        <time>2019-08-29T09:29:44Z</time>
      </trkpt>
      <trkpt lat="45.09937" lon="5.5735">
        <ele>1008.92</ele>
        <time>2019-08-29T09:29:45Z</time>
      </trkpt>
      <trkpt lat="45.09931" lon="5.5735">
        <ele>1008.8</ele>
        <time>2019-08-29T09:29:46Z</time>
      </trkpt>
      <trkpt lat="45.09921" lon="5.5735">
        <ele>1008.44</ele>
        <time>2019-08-29T09:29:48Z</time>
      </trkpt>
      <trkpt lat="45.09867" lon="5.5734">
        <ele>1006.24</ele>
        <time>2019-08-29T09:29:57Z</time>
      </trkpt>
      <trkpt lat="45.09862" lon="5.57338">
        <ele>1006.05</ele>
        <time>2019-08-29T09:29:58Z</time>
      </trkpt>
      <trkpt lat="45.09857" lon="5.57336">
        <ele>1005.89</ele>
        <time>2019-08-29T09:29:59Z</time>
      </trkpt>
      <trkpt lat="45.09784" lon="5.57316">
        <ele>1005.36</ele>
        <time>2019-08-29T09:30:15Z</time>
      </trkpt>
      <trkpt lat="45.0975" lon="5.57307">
        <ele>1005.59</ele>
        <time>2019-08-29T09:30:23Z</time>
      </trkpt>
      <trkpt lat="45.09744" lon="5.57321">
        <ele>1005.67</ele>
        <time>2019-08-29T09:30:27Z</time>
      </trkpt>
      <trkpt lat="45.09721" lon="5.57368">
        <ele>1006.25</ele>
        <time>2019-08-29T09:30:39Z</time>
      </trkpt>
      <trkpt lat="45.0966" lon="5.57371">
        <ele>1006.98</ele>
        <time>2019-08-29T09:30:58Z</time>
      </trkpt>
      <trkpt lat="45.09612" lon="5.57356">
        <ele>1006.85</ele>
        <time>2019-08-29T09:31:15Z</time>
      </trkpt>
      <trkpt lat="45.0958" lon="5.57325">
        <ele>1005.48</ele>
        <time>2019-08-29T09:31:29Z</time>
      </trkpt>
      <trkpt lat="45.09528" lon="5.57291">
        <ele>1005.4</ele>
        <time>2019-08-29T09:31:46Z</time>
      </trkpt>
      <trkpt lat="45.09482" lon="5.57258">
        <ele>1005.88</ele>
        <time>2019-08-29T09:32:03Z</time>
      </trkpt>
      <trkpt lat="45.09449" lon="5.57238">
        <ele>1006.56</ele>
        <time>2019-08-29T09:32:16Z</time>
      </trkpt>
      <trkpt lat="45.09419" lon="5.57221">
        <ele>1007.14</ele>
        <time>2019-08-29T09:32:31Z</time>
      </trkpt>
      <trkpt lat="45.09399" lon="5.57244">
        <ele>1008.16</ele>
        <time>2019-08-29T09:32:43Z</time>
      </trkpt>
      <trkpt lat="45.09371" lon="5.57273">
        <ele>1009.32</ele>
        <time>2019-08-29T09:32:58Z</time>
      </trkpt>
      <trkpt lat="45.0935" lon="5.57292">
        <ele>1010.14</ele>
        <time>2019-08-29T09:33:09Z</time>
      </trkpt>
      <trkpt lat="45.09325" lon="5.5731">
        <ele>1011.69</ele>
        <time>2019-08-29T09:33:22Z</time>
      </trkpt>
      <trkpt lat="45.093" lon="5.57333">
        <ele>1013.13</ele>
        <time>2019-08-29T09:33:36Z</time>
      </trkpt>
      <trkpt lat="45.09265" lon="5.57356">
        <ele>1015.76</ele>
        <time>2019-08-29T09:33:58Z</time>
      </trkpt>
      <trkpt lat="45.09244" lon="5.57346">
        <ele>1018.89</ele>
        <time>2019-08-29T09:34:15Z</time>
      </trkpt>
      <trkpt lat="45.09221" lon="5.57327">
        <ele>1021.91</ele>
        <time>2019-08-29T09:34:35Z</time>
      </trkpt>
      <trkpt lat="45.09199" lon="5.57315">
        <ele>1024.63</ele>
        <time>2019-08-29T09:34:53Z</time>
      </trkpt>
      <trkpt lat="45.09178" lon="5.57306">
        <ele>1026.6</ele>
        <time>2019-08-29T09:35:09Z</time>
      </trkpt>
      <trkpt lat="45.09159" lon="5.57288">
        <ele>1028.6</ele>
        <time>2019-08-29T09:35:25Z</time>
      </trkpt>
      <trkpt lat="45.09137" lon="5.57265">
        <ele>1031.63</ele>
        <time>2019-08-29T09:35:44Z</time>
      </trkpt>
      <trkpt lat="45.0911" lon="5.57241">
        <ele>1033.82</ele>
        <time>2019-08-29T09:36:03Z</time>
      </trkpt>
      <trkpt lat="45.09073" lon="5.57226">
        <ele>1034.73</ele>
        <time>2019-08-29T09:36:19Z</time>
      </trkpt>
      <trkpt lat="45.09059" lon="5.5723">
        <ele>1035.96</ele>
        <time>2019-08-29T09:36:32Z</time>
      </trkpt>
      <trkpt lat="45.09057" lon="5.57231">
        <ele>1036.06</ele>
        <time>2019-08-29T09:36:56Z</time>
      </trkpt>
      <trkpt lat="45.09055" lon="5.57237">
        <ele>1036.33</ele>
        <time>2019-08-29T09:37:12Z</time>
      </trkpt>
      <trkpt lat="45.09055" lon="5.57237">
        <ele>1036.14</ele>
        <time>2019-08-29T09:37:59Z</time>
      </trkpt>
      <trkpt lat="45.09055" lon="5.57238">
        <ele>1036.13</ele>
        <time>2019-08-29T09:38:44Z</time>
      </trkpt>
      <trkpt lat="45.09055" lon="5.57237">
        <ele>1036.13</ele>
        <time>2019-08-29T09:39:16Z</time>
      </trkpt>
      <trkpt lat="45.09054" lon="5.57237">
        <ele>1035.83</ele>
        <time>2019-08-29T09:40:13Z</time>
      </trkpt>
      <trkpt lat="45.09055" lon="5.57237">
        <ele>1035.79</ele>
        <time>2019-08-29T09:41:07Z</time>
      </trkpt>
      <trkpt lat="45.09056" lon="5.57237">
        <ele>1035.63</ele>
        <time>2019-08-29T09:41:32Z</time>
      </trkpt>
      <trkpt lat="45.09056" lon="5.57237">
        <ele>1035.73</ele>
        <time>2019-08-29T09:42:03Z</time>
      </trkpt>
      <trkpt lat="45.09053" lon="5.57237">
        <ele>1035.62</ele>
        <time>2019-08-29T09:42:38Z</time>
      </trkpt>
      <trkpt lat="45.09054" lon="5.57238">
        <ele>1035.4</ele>
        <time>2019-08-29T09:43:03Z</time>
      </trkpt>
      <trkpt lat="45.09054" lon="5.57249">
        <ele>1035.34</ele>
        <time>2019-08-29T09:43:08Z</time>
      </trkpt>
      <trkpt lat="45.09054" lon="5.57252">
        <ele>1035.34</ele>
        <time>2019-08-29T09:43:09Z</time>
      </trkpt>
      <trkpt lat="45.09043" lon="5.57299">
        <ele>1036.34</ele>
        <time>2019-08-29T09:43:24Z</time>
      </trkpt>
      <trkpt lat="45.09032" lon="5.57352">
        <ele>1037.5</ele>
        <time>2019-08-29T09:43:40Z</time>
      </trkpt>
      <trkpt lat="45.09034" lon="5.57406">
        <ele>1036.93</ele>
        <time>2019-08-29T09:43:53Z</time>
      </trkpt>
      <trkpt lat="45.09034" lon="5.57456">
        <ele>1034.09</ele>
        <time>2019-08-29T09:44:01Z</time>
      </trkpt>
      <trkpt lat="45.09034" lon="5.57477">
        <ele>1032.72</ele>
        <time>2019-08-29T09:44:04Z</time>
      </trkpt>
      <trkpt lat="45.09035" lon="5.57485">
        <ele>1032.29</ele>
        <time>2019-08-29T09:44:05Z</time>
      </trkpt>
      <trkpt lat="45.09046" lon="5.57538">
        <ele>1028.74</ele>
        <time>2019-08-29T09:44:10Z</time>
      </trkpt>
      <trkpt lat="45.09056" lon="5.57588">
        <ele>1025.43</ele>
        <time>2019-08-29T09:44:15Z</time>
      </trkpt>
      <trkpt lat="45.09061" lon="5.57639">
        <ele>1022.69</ele>
        <time>2019-08-29T09:44:21Z</time>
      </trkpt>
      <trkpt lat="45.0908" lon="5.57694">
        <ele>1021.34</ele>
        <time>2019-08-29T09:44:32Z</time>
      </trkpt>
      <trkpt lat="45.09114" lon="5.57733">
        <ele>1021.56</ele>
        <time>2019-08-29T09:44:46Z</time>
      </trkpt>
      <trkpt lat="45.09137" lon="5.57758">
        <ele>1022.66</ele>
        <time>2019-08-29T09:44:59Z</time>
      </trkpt>
      <trkpt lat="45.09158" lon="5.57777">
        <ele>1023.71</ele>
        <time>2019-08-29T09:45:14Z</time>
      </trkpt>
      <trkpt lat="45.0916" lon="5.57778">
        <ele>1024</ele>
        <time>2019-08-29T09:45:16Z</time>
      </trkpt>
      <trkpt lat="45.09175" lon="5.57785">
        <ele>1025.95</ele>
        <time>2019-08-29T09:45:31Z</time>
      </trkpt>
      <trkpt lat="45.09192" lon="5.57794">
        <ele>1028.06</ele>
        <time>2019-08-29T09:45:47Z</time>
      </trkpt>
      <trkpt lat="45.09204" lon="5.57818">
        <ele>1028.91</ele>
        <time>2019-08-29T09:46:00Z</time>
      </trkpt>
      <trkpt lat="45.09212" lon="5.57868">
        <ele>1029.66</ele>
        <time>2019-08-29T09:46:16Z</time>
      </trkpt>
      <trkpt lat="45.09224" lon="5.5791">
        <ele>1030.79</ele>
        <time>2019-08-29T09:46:32Z</time>
      </trkpt>
      <trkpt lat="45.09224" lon="5.57912">
        <ele>1030.88</ele>
        <time>2019-08-29T09:46:33Z</time>
      </trkpt>
      <trkpt lat="45.09229" lon="5.57927">
        <ele>1032.03</ele>
        <time>2019-08-29T09:46:40Z</time>
      </trkpt>
      <trkpt lat="45.09236" lon="5.57954">
        <ele>1034.59</ele>
        <time>2019-08-29T09:46:54Z</time>
      </trkpt>
      <trkpt lat="45.09236" lon="5.57961">
        <ele>1036.34</ele>
        <time>2019-08-29T09:47:10Z</time>
      </trkpt>
      <trkpt lat="45.09233" lon="5.57961">
        <ele>1036.55</ele>
        <time>2019-08-29T09:47:37Z</time>
      </trkpt>
      <trkpt lat="45.09215" lon="5.57963">
        <ele>1036.73</ele>
        <time>2019-08-29T09:47:50Z</time>
      </trkpt>
      <trkpt lat="45.09204" lon="5.57974">
        <ele>1036.95</ele>
        <time>2019-08-29T09:48:00Z</time>
      </trkpt>
      <trkpt lat="45.09199" lon="5.58008">
        <ele>1039.61</ele>
        <time>2019-08-29T09:48:17Z</time>
      </trkpt>
      <trkpt lat="45.09201" lon="5.58047">
        <ele>1042.54</ele>
        <time>2019-08-29T09:48:35Z</time>
      </trkpt>
      <trkpt lat="45.09223" lon="5.5808">
        <ele>1045.03</ele>
        <time>2019-08-29T09:48:55Z</time>
      </trkpt>
      <trkpt lat="45.09252" lon="5.58103">
        <ele>1047.22</ele>
        <time>2019-08-29T09:49:17Z</time>
      </trkpt>
      <trkpt lat="45.09273" lon="5.58119">
        <ele>1049.03</ele>
        <time>2019-08-29T09:49:32Z</time>
      </trkpt>
      <trkpt lat="45.09295" lon="5.58139">
        <ele>1051.18</ele>
        <time>2019-08-29T09:49:49Z</time>
      </trkpt>
      <trkpt lat="45.09313" lon="5.5817">
        <ele>1053.15</ele>
        <time>2019-08-29T09:50:08Z</time>
      </trkpt>
      <trkpt lat="45.09311" lon="5.58192">
        <ele>1054.92</ele>
        <time>2019-08-29T09:50:20Z</time>
      </trkpt>
      <trkpt lat="45.09311" lon="5.58196">
        <ele>1055.33</ele>
        <time>2019-08-29T09:50:22Z</time>
      </trkpt>
      <trkpt lat="45.09299" lon="5.58217">
        <ele>1057.46</ele>
        <time>2019-08-29T09:50:38Z</time>
      </trkpt>
      <trkpt lat="45.09278" lon="5.58238">
        <ele>1059.08</ele>
        <time>2019-08-29T09:50:54Z</time>
      </trkpt>
      <trkpt lat="45.09267" lon="5.58255">
        <ele>1060.38</ele>
        <time>2019-08-29T09:51:06Z</time>
      </trkpt>
      <trkpt lat="45.09251" lon="5.5828">
        <ele>1062.68</ele>
        <time>2019-08-29T09:51:25Z</time>
      </trkpt>
      <trkpt lat="45.09236" lon="5.58297">
        <ele>1064.57</ele>
        <time>2019-08-29T09:51:39Z</time>
      </trkpt>
      <trkpt lat="45.09218" lon="5.58309">
        <ele>1066.33</ele>
        <time>2019-08-29T09:51:54Z</time>
      </trkpt>
      <trkpt lat="45.09207" lon="5.58312">
        <ele>1067.7</ele>
        <time>2019-08-29T09:52:03Z</time>
      </trkpt>
      <trkpt lat="45.09202" lon="5.58314">
        <ele>1068.24</ele>
        <time>2019-08-29T09:52:07Z</time>
      </trkpt>
      <trkpt lat="45.09177" lon="5.5832">
        <ele>1070.37</ele>
        <time>2019-08-29T09:52:24Z</time>
      </trkpt>
      <trkpt lat="45.09154" lon="5.5833">
        <ele>1072.53</ele>
        <time>2019-08-29T09:52:41Z</time>
      </trkpt>
      <trkpt lat="45.09144" lon="5.58334">
        <ele>1073.37</ele>
        <time>2019-08-29T09:52:47Z</time>
      </trkpt>
      <trkpt lat="45.09117" lon="5.5832">
        <ele>1076.5</ele>
        <time>2019-08-29T09:53:07Z</time>
      </trkpt>
      <trkpt lat="45.09093" lon="5.58308">
        <ele>1079.39</ele>
        <time>2019-08-29T09:53:24Z</time>
      </trkpt>
      <trkpt lat="45.09066" lon="5.58311">
        <ele>1082.14</ele>
        <time>2019-08-29T09:53:42Z</time>
      </trkpt>
      <trkpt lat="45.09043" lon="5.58329">
        <ele>1085.22</ele>
        <time>2019-08-29T09:53:59Z</time>
      </trkpt>
      <trkpt lat="45.09035" lon="5.58349">
        <ele>1086.82</ele>
        <time>2019-08-29T09:54:11Z</time>
      </trkpt>
      <trkpt lat="45.09042" lon="5.58358">
        <ele>1088.91</ele>
        <time>2019-08-29T09:54:26Z</time>
      </trkpt>
      <trkpt lat="45.09057" lon="5.58376">
        <ele>1089.8</ele>
        <time>2019-08-29T09:54:40Z</time>
      </trkpt>
      <trkpt lat="45.09047" lon="5.58389">
        <ele>1091.56</ele>
        <time>2019-08-29T09:54:51Z</time>
      </trkpt>
      <trkpt lat="45.09026" lon="5.58388">
        <ele>1093.08</ele>
        <time>2019-08-29T09:55:05Z</time>
      </trkpt>
      <trkpt lat="45.09024" lon="5.58388">
        <ele>1093.16</ele>
        <time>2019-08-29T09:55:06Z</time>
      </trkpt>
      <trkpt lat="45.09018" lon="5.58403">
        <ele>1094.23</ele>
        <time>2019-08-29T09:55:15Z</time>
      </trkpt>
      <trkpt lat="45.09017" lon="5.58408">
        <ele>1094.64</ele>
        <time>2019-08-29T09:55:18Z</time>
      </trkpt>
      <trkpt lat="45.08994" lon="5.58427">
        <ele>1097.27</ele>
        <time>2019-08-29T09:55:34Z</time>
      </trkpt>
      <trkpt lat="45.08974" lon="5.58446">
        <ele>1098.35</ele>
        <time>2019-08-29T09:55:47Z</time>
      </trkpt>
      <trkpt lat="45.08951" lon="5.58467">
        <ele>1099.69</ele>
        <time>2019-08-29T09:56:01Z</time>
      </trkpt>
      <trkpt lat="45.08922" lon="5.58486">
        <ele>1099.92</ele>
        <time>2019-08-29T09:56:15Z</time>
      </trkpt>
      <trkpt lat="45.08918" lon="5.58486">
        <ele>1099.12</ele>
        <time>2019-08-29T09:56:26Z</time>
      </trkpt>
      <trkpt lat="45.08916" lon="5.58486">
        <ele>1099.36</ele>
        <time>2019-08-29T09:56:53Z</time>
      </trkpt>
      <trkpt lat="45.08892" lon="5.58486">
        <ele>1098.88</ele>
        <time>2019-08-29T09:57:07Z</time>
      </trkpt>
      <trkpt lat="45.08866" lon="5.58469">
        <ele>1098.57</ele>
        <time>2019-08-29T09:57:21Z</time>
      </trkpt>
      <trkpt lat="45.08854" lon="5.58457">
        <ele>1098.55</ele>
        <time>2019-08-29T09:57:30Z</time>
      </trkpt>
      <trkpt lat="45.08847" lon="5.58435">
        <ele>1098.96</ele>
        <time>2019-08-29T09:57:38Z</time>
      </trkpt>
      <trkpt lat="45.08841" lon="5.58391">
        <ele>1099.13</ele>
        <time>2019-08-29T09:57:51Z</time>
      </trkpt>
      <trkpt lat="45.0883" lon="5.58345">
        <ele>1100.88</ele>
        <time>2019-08-29T09:58:04Z</time>
      </trkpt>
      <trkpt lat="45.08805" lon="5.58309">
        <ele>1099.98</ele>
        <time>2019-08-29T09:58:15Z</time>
      </trkpt>
      <trkpt lat="45.08782" lon="5.58286">
        <ele>1099.39</ele>
        <time>2019-08-29T09:58:22Z</time>
      </trkpt>
      <trkpt lat="45.08775" lon="5.5828">
        <ele>1099.19</ele>
        <time>2019-08-29T09:58:24Z</time>
      </trkpt>
      <trkpt lat="45.08754" lon="5.58271">
        <ele>1098.29</ele>
        <time>2019-08-29T09:58:29Z</time>
      </trkpt>
      <trkpt lat="45.08691" lon="5.58235">
        <ele>1095.92</ele>
        <time>2019-08-29T09:58:40Z</time>
      </trkpt>
      <trkpt lat="45.08662" lon="5.58214">
        <ele>1095.09</ele>
        <time>2019-08-29T09:58:46Z</time>
      </trkpt>
      <trkpt lat="45.0863" lon="5.582">
        <ele>1094.79</ele>
        <time>2019-08-29T09:58:53Z</time>
      </trkpt>
      <trkpt lat="45.08621" lon="5.58194">
        <ele>1094.63</ele>
        <time>2019-08-29T09:58:55Z</time>
      </trkpt>
      <trkpt lat="45.08587" lon="5.5819">
        <ele>1094.21</ele>
        <time>2019-08-29T09:59:05Z</time>
      </trkpt>
      <trkpt lat="45.08559" lon="5.58199">
        <ele>1094.85</ele>
        <time>2019-08-29T09:59:17Z</time>
      </trkpt>
      <trkpt lat="45.08532" lon="5.5822">
        <ele>1096.34</ele>
        <time>2019-08-29T09:59:31Z</time>
      </trkpt>
      <trkpt lat="45.08516" lon="5.58257">
        <ele>1096.69</ele>
        <time>2019-08-29T09:59:44Z</time>
      </trkpt>
      <trkpt lat="45.08507" lon="5.58287">
        <ele>1096.85</ele>
        <time>2019-08-29T09:59:53Z</time>
      </trkpt>
      <trkpt lat="45.08502" lon="5.58331">
        <ele>1096.95</ele>
        <time>2019-08-29T10:00:04Z</time>
      </trkpt>
      <trkpt lat="45.085" lon="5.58403">
        <ele>1098.86</ele>
        <time>2019-08-29T10:00:22Z</time>
      </trkpt>
      <trkpt lat="45.08506" lon="5.58442">
        <ele>1101.06</ele>
        <time>2019-08-29T10:00:35Z</time>
      </trkpt>
      <trkpt lat="45.08508" lon="5.58469">
        <ele>1103.29</ele>
        <time>2019-08-29T10:00:48Z</time>
      </trkpt>
      <trkpt lat="45.08507" lon="5.58477">
        <ele>1103.91</ele>
        <time>2019-08-29T10:00:52Z</time>
      </trkpt>
      <trkpt lat="45.08488" lon="5.58503">
        <ele>1106.27</ele>
        <time>2019-08-29T10:01:10Z</time>
      </trkpt>
      <trkpt lat="45.0848" lon="5.58505">
        <ele>1107.2</ele>
        <time>2019-08-29T10:01:16Z</time>
      </trkpt>
      <trkpt lat="45.08461" lon="5.58476">
        <ele>1107.6</ele>
        <time>2019-08-29T10:01:27Z</time>
      </trkpt>
      <trkpt lat="45.08445" lon="5.58455">
        <ele>1106.7</ele>
        <time>2019-08-29T10:01:31Z</time>
      </trkpt>
      <trkpt lat="45.08423" lon="5.58435">
        <ele>1106.03</ele>
        <time>2019-08-29T10:01:41Z</time>
      </trkpt>
      <trkpt lat="45.084" lon="5.58436">
        <ele>1109.17</ele>
        <time>2019-08-29T10:01:57Z</time>
      </trkpt>
      <trkpt lat="45.08388" lon="5.58435">
        <ele>1112.3</ele>
        <time>2019-08-29T10:02:11Z</time>
      </trkpt>
      <trkpt lat="45.08379" lon="5.58434">
        <ele>1115.31</ele>
        <time>2019-08-29T10:02:22Z</time>
      </trkpt>
      <trkpt lat="45.08369" lon="5.58428">
        <ele>1117.71</ele>
        <time>2019-08-29T10:02:33Z</time>
      </trkpt>
      <trkpt lat="45.08357" lon="5.58415">
        <ele>1119.41</ele>
        <time>2019-08-29T10:02:46Z</time>
      </trkpt>
      <trkpt lat="45.0834" lon="5.58402">
        <ele>1122.52</ele>
        <time>2019-08-29T10:03:05Z</time>
      </trkpt>
      <trkpt lat="45.08324" lon="5.58398">
        <ele>1123.76</ele>
        <time>2019-08-29T10:03:17Z</time>
      </trkpt>
      <trkpt lat="45.0832" lon="5.58395">
        <ele>1124.35</ele>
        <time>2019-08-29T10:03:36Z</time>
      </trkpt>
      <trkpt lat="45.08311" lon="5.58394">
        <ele>1124.58</ele>
        <time>2019-08-29T10:03:50Z</time>
      </trkpt>
      <trkpt lat="45.08301" lon="5.58396">
        <ele>1125.13</ele>
        <time>2019-08-29T10:04:04Z</time>
      </trkpt>
      <trkpt lat="45.08298" lon="5.58396">
        <ele>1125.33</ele>
        <time>2019-08-29T10:04:07Z</time>
      </trkpt>
      <trkpt lat="45.08274" lon="5.58389">
        <ele>1127.05</ele>
        <time>2019-08-29T10:04:26Z</time>
      </trkpt>
      <trkpt lat="45.08252" lon="5.58382">
        <ele>1129.68</ele>
        <time>2019-08-29T10:04:45Z</time>
      </trkpt>
      <trkpt lat="45.08247" lon="5.58383">
        <ele>1129.97</ele>
        <time>2019-08-29T10:05:04Z</time>
      </trkpt>
      <trkpt lat="45.08246" lon="5.58384">
        <ele>1129.79</ele>
        <time>2019-08-29T10:05:40Z</time>
      </trkpt>
      <trkpt lat="45.08243" lon="5.58385">
        <ele>1129.83</ele>
        <time>2019-08-29T10:05:42Z</time>
      </trkpt>
      <trkpt lat="45.08241" lon="5.58386">
        <ele>1129.85</ele>
        <time>2019-08-29T10:05:43Z</time>
      </trkpt>
      <trkpt lat="45.08238" lon="5.58388">
        <ele>1129.85</ele>
        <time>2019-08-29T10:05:44Z</time>
      </trkpt>
      <trkpt lat="45.08234" lon="5.58392">
        <ele>1129.85</ele>
        <time>2019-08-29T10:05:45Z</time>
      </trkpt>
      <trkpt lat="45.0823" lon="5.58397">
        <ele>1129.81</ele>
        <time>2019-08-29T10:05:46Z</time>
      </trkpt>
      <trkpt lat="45.08221" lon="5.58408">
        <ele>1129.11</ele>
        <time>2019-08-29T10:05:48Z</time>
      </trkpt>
      <trkpt lat="45.08216" lon="5.58412">
        <ele>1128.71</ele>
        <time>2019-08-29T10:05:49Z</time>
      </trkpt>
      <trkpt lat="45.0821" lon="5.58412">
        <ele>1128.34</ele>
        <time>2019-08-29T10:05:50Z</time>
      </trkpt>
      <trkpt lat="45.08204" lon="5.58411">
        <ele>1128.02</ele>
        <time>2019-08-29T10:05:51Z</time>
      </trkpt>
      <trkpt lat="45.08198" lon="5.58409">
        <ele>1127.74</ele>
        <time>2019-08-29T10:05:52Z</time>
      </trkpt>
      <trkpt lat="45.08188" lon="5.58404">
        <ele>1127.28</ele>
        <time>2019-08-29T10:05:54Z</time>
      </trkpt>
      <trkpt lat="45.0817" lon="5.58395">
        <ele>1127.02</ele>
        <time>2019-08-29T10:06:02Z</time>
      </trkpt>
      <trkpt lat="45.08148" lon="5.58392">
        <ele>1129.85</ele>
        <time>2019-08-29T10:06:16Z</time>
      </trkpt>
      <trkpt lat="45.08132" lon="5.58395">
        <ele>1132.55</ele>
        <time>2019-08-29T10:06:32Z</time>
      </trkpt>
      <trkpt lat="45.08117" lon="5.58402">
        <ele>1134.84</ele>
        <time>2019-08-29T10:06:44Z</time>
      </trkpt>
      <trkpt lat="45.08115" lon="5.58403">
        <ele>1135.25</ele>
        <time>2019-08-29T10:06:46Z</time>
      </trkpt>
      <trkpt lat="45.08113" lon="5.58404">
        <ele>1135.44</ele>
        <time>2019-08-29T10:06:47Z</time>
      </trkpt>
      <trkpt lat="45.08112" lon="5.58405">
        <ele>1135.6</ele>
        <time>2019-08-29T10:06:48Z</time>
      </trkpt>
      <trkpt lat="45.08111" lon="5.58406">
        <ele>1135.75</ele>
        <time>2019-08-29T10:06:49Z</time>
      </trkpt>
      <trkpt lat="45.0811" lon="5.58407">
        <ele>1135.89</ele>
        <time>2019-08-29T10:06:50Z</time>
      </trkpt>
      <trkpt lat="45.08093" lon="5.58415">
        <ele>1137.48</ele>
        <time>2019-08-29T10:07:04Z</time>
      </trkpt>
      <trkpt lat="45.08072" lon="5.58414">
        <ele>1138.88</ele>
        <time>2019-08-29T10:07:19Z</time>
      </trkpt>
      <trkpt lat="45.08066" lon="5.58413">
        <ele>1139.65</ele>
        <time>2019-08-29T10:07:27Z</time>
      </trkpt>
      <trkpt lat="45.08065" lon="5.58411">
        <ele>1140.15</ele>
        <time>2019-08-29T10:07:30Z</time>
      </trkpt>
      <trkpt lat="45.08064" lon="5.58409">
        <ele>1140.41</ele>
        <time>2019-08-29T10:07:32Z</time>
      </trkpt>
      <trkpt lat="45.08064" lon="5.58408">
        <ele>1140.51</ele>
        <time>2019-08-29T10:07:33Z</time>
      </trkpt>
      <trkpt lat="45.08064" lon="5.58407">
        <ele>1140.6</ele>
        <time>2019-08-29T10:07:34Z</time>
      </trkpt>
      <trkpt lat="45.08064" lon="5.58406">
        <ele>1140.7</ele>
        <time>2019-08-29T10:07:35Z</time>
      </trkpt>
      <trkpt lat="45.08063" lon="5.58405">
        <ele>1140.84</ele>
        <time>2019-08-29T10:07:36Z</time>
      </trkpt>
      <trkpt lat="45.0806" lon="5.584">
        <ele>1143.36</ele>
        <time>2019-08-29T10:07:48Z</time>
      </trkpt>
      <trkpt lat="45.08047" lon="5.58405">
        <ele>1144.92</ele>
        <time>2019-08-29T10:08:07Z</time>
      </trkpt>
      <trkpt lat="45.08042" lon="5.58408">
        <ele>1145.11</ele>
        <time>2019-08-29T10:08:11Z</time>
      </trkpt>
      <trkpt lat="45.08026" lon="5.58426">
        <ele>1145.65</ele>
        <time>2019-08-29T10:08:27Z</time>
      </trkpt>
      <trkpt lat="45.08013" lon="5.58449">
        <ele>1146.87</ele>
        <time>2019-08-29T10:08:42Z</time>
      </trkpt>
      <trkpt lat="45.07997" lon="5.58476">
        <ele>1149.23</ele>
        <time>2019-08-29T10:09:01Z</time>
      </trkpt>
      <trkpt lat="45.07986" lon="5.58491">
        <ele>1151.65</ele>
        <time>2019-08-29T10:09:13Z</time>
      </trkpt>
      <trkpt lat="45.07985" lon="5.58492">
        <ele>1151.84</ele>
        <time>2019-08-29T10:09:14Z</time>
      </trkpt>
      <trkpt lat="45.07979" lon="5.58505">
        <ele>1154.93</ele>
        <time>2019-08-29T10:09:28Z</time>
      </trkpt>
      <trkpt lat="45.07969" lon="5.5852">
        <ele>1157.86</ele>
        <time>2019-08-29T10:09:47Z</time>
      </trkpt>
      <trkpt lat="45.07966" lon="5.58522">
        <ele>1158.33</ele>
        <time>2019-08-29T10:09:50Z</time>
      </trkpt>
      <trkpt lat="45.07965" lon="5.58522">
        <ele>1158.47</ele>
        <time>2019-08-29T10:09:51Z</time>
      </trkpt>
      <trkpt lat="45.07957" lon="5.58522">
        <ele>1160.14</ele>
        <time>2019-08-29T10:10:00Z</time>
      </trkpt>
      <trkpt lat="45.07942" lon="5.58514">
        <ele>1162.92</ele>
        <time>2019-08-29T10:10:17Z</time>
      </trkpt>
      <trkpt lat="45.07937" lon="5.58507">
        <ele>1165.18</ele>
        <time>2019-08-29T10:10:39Z</time>
      </trkpt>
      <trkpt lat="45.07936" lon="5.58504">
        <ele>1165.17</ele>
        <time>2019-08-29T10:11:10Z</time>
      </trkpt>
      <trkpt lat="45.07939" lon="5.58502">
        <ele>1164.9</ele>
        <time>2019-08-29T10:11:42Z</time>
      </trkpt>
      <trkpt lat="45.07942" lon="5.58503">
        <ele>1164.88</ele>
        <time>2019-08-29T10:12:12Z</time>
      </trkpt>
      <trkpt lat="45.07939" lon="5.58498">
        <ele>1165</ele>
        <time>2019-08-29T10:12:36Z</time>
      </trkpt>
      <trkpt lat="45.07937" lon="5.58497">
        <ele>1164.98</ele>
        <time>2019-08-29T10:12:37Z</time>
      </trkpt>
      <trkpt lat="45.07914" lon="5.58471">
        <ele>1163.96</ele>
        <time>2019-08-29T10:12:48Z</time>
      </trkpt>
      <trkpt lat="45.07901" lon="5.58439">
        <ele>1163.99</ele>
        <time>2019-08-29T10:13:04Z</time>
      </trkpt>
      <trkpt lat="45.07889" lon="5.58414">
        <ele>1163.36</ele>
        <time>2019-08-29T10:13:17Z</time>
      </trkpt>
      <trkpt lat="45.07874" lon="5.58393">
        <ele>1164.87</ele>
        <time>2019-08-29T10:13:31Z</time>
      </trkpt>
      <trkpt lat="45.07868" lon="5.58382">
        <ele>1166.17</ele>
        <time>2019-08-29T10:13:43Z</time>
      </trkpt>
      <trkpt lat="45.0786" lon="5.58368">
        <ele>1167.28</ele>
        <time>2019-08-29T10:13:55Z</time>
      </trkpt>
      <trkpt lat="45.07857" lon="5.58362">
        <ele>1167.68</ele>
        <time>2019-08-29T10:13:59Z</time>
      </trkpt>
      <trkpt lat="45.07855" lon="5.58357">
        <ele>1168.2</ele>
        <time>2019-08-29T10:14:04Z</time>
      </trkpt>
      <trkpt lat="45.07853" lon="5.58352">
        <ele>1168.56</ele>
        <time>2019-08-29T10:14:08Z</time>
      </trkpt>
      <trkpt lat="45.07847" lon="5.58336">
        <ele>1170.04</ele>
        <time>2019-08-29T10:14:22Z</time>
      </trkpt>
      <trkpt lat="45.0784" lon="5.58315">
        <ele>1171.52</ele>
        <time>2019-08-29T10:14:36Z</time>
      </trkpt>
      <trkpt lat="45.07832" lon="5.583">
        <ele>1173.37</ele>
        <time>2019-08-29T10:14:51Z</time>
      </trkpt>
      <trkpt lat="45.07826" lon="5.58284">
        <ele>1176.13</ele>
        <time>2019-08-29T10:15:09Z</time>
      </trkpt>
      <trkpt lat="45.07819" lon="5.58268">
        <ele>1178.61</ele>
        <time>2019-08-29T10:15:27Z</time>
      </trkpt>
      <trkpt lat="45.07811" lon="5.58236">
        <ele>1178.76</ele>
        <time>2019-08-29T10:15:42Z</time>
      </trkpt>
      <trkpt lat="45.07796" lon="5.58198">
        <ele>1178.22</ele>
        <time>2019-08-29T10:15:56Z</time>
      </trkpt>
      <trkpt lat="45.07766" lon="5.58177">
        <ele>1178.19</ele>
        <time>2019-08-29T10:16:10Z</time>
      </trkpt>
      <trkpt lat="45.07751" lon="5.58168">
        <ele>1176.42</ele>
        <time>2019-08-29T10:16:20Z</time>
      </trkpt>
      <trkpt lat="45.07759" lon="5.58166">
        <ele>1175.61</ele>
        <time>2019-08-29T10:16:54Z</time>
      </trkpt>
      <trkpt lat="45.07757" lon="5.58166">
        <ele>1175.63</ele>
        <time>2019-08-29T10:17:02Z</time>
      </trkpt>
      <trkpt lat="45.07748" lon="5.58172">
        <ele>1175.64</ele>
        <time>2019-08-29T10:17:32Z</time>
      </trkpt>
      <trkpt lat="45.07755" lon="5.58159">
        <ele>1174.69</ele>
        <time>2019-08-29T10:17:48Z</time>
      </trkpt>
      <trkpt lat="45.07759" lon="5.58149">
        <ele>1173.68</ele>
        <time>2019-08-29T10:17:53Z</time>
      </trkpt>
      <trkpt lat="45.07758" lon="5.58134">
        <ele>1171.63</ele>
        <time>2019-08-29T10:18:00Z</time>
      </trkpt>
      <trkpt lat="45.07756" lon="5.58124">
        <ele>1168.51</ele>
        <time>2019-08-29T10:18:12Z</time>
      </trkpt>
      <trkpt lat="45.07754" lon="5.58116">
        <ele>1167.25</ele>
        <time>2019-08-29T10:18:32Z</time>
      </trkpt>
      <trkpt lat="45.07753" lon="5.58099">
        <ele>1166.22</ele>
        <time>2019-08-29T10:18:54Z</time>
      </trkpt>
      <trkpt lat="45.07752" lon="5.58099">
        <ele>1164.3</ele>
        <time>2019-08-29T10:19:11Z</time>
      </trkpt>
      <trkpt lat="45.07752" lon="5.58093">
        <ele>1164.59</ele>
        <time>2019-08-29T10:19:24Z</time>
      </trkpt>
      <trkpt lat="45.07753" lon="5.58091">
        <ele>1163.97</ele>
        <time>2019-08-29T10:19:29Z</time>
      </trkpt>
      <trkpt lat="45.07757" lon="5.58075">
        <ele>1162.68</ele>
        <time>2019-08-29T10:19:35Z</time>
      </trkpt>
      <trkpt lat="45.07762" lon="5.58053">
        <ele>1159.22</ele>
        <time>2019-08-29T10:19:43Z</time>
      </trkpt>
      <trkpt lat="45.07763" lon="5.58051">
        <ele>1159.22</ele>
        <time>2019-08-29T10:19:44Z</time>
      </trkpt>
      <trkpt lat="45.07772" lon="5.58031">
        <ele>1155.39</ele>
        <time>2019-08-29T10:19:52Z</time>
      </trkpt>
      <trkpt lat="45.07777" lon="5.58006">
        <ele>1152.16</ele>
        <time>2019-08-29T10:20:00Z</time>
      </trkpt>
      <trkpt lat="45.0778" lon="5.57993">
        <ele>1149.51</ele>
        <time>2019-08-29T10:20:12Z</time>
      </trkpt>
      <trkpt lat="45.07783" lon="5.57974">
        <ele>1149.17</ele>
        <time>2019-08-29T10:20:16Z</time>
      </trkpt>
      <trkpt lat="45.07812" lon="5.57908">
        <ele>1145.27</ele>
        <time>2019-08-29T10:20:28Z</time>
      </trkpt>
      <trkpt lat="45.07814" lon="5.57906">
        <ele>1144.92</ele>
        <time>2019-08-29T10:20:29Z</time>
      </trkpt>
      <trkpt lat="45.07819" lon="5.57859">
        <ele>1142.71</ele>
        <time>2019-08-29T10:20:43Z</time>
      </trkpt>
      <trkpt lat="45.07811" lon="5.57826">
        <ele>1141.94</ele>
        <time>2019-08-29T10:20:53Z</time>
      </trkpt>
      <trkpt lat="45.07808" lon="5.57816">
        <ele>1141.38</ele>
        <time>2019-08-29T10:21:05Z</time>
      </trkpt>
      <trkpt lat="45.07808" lon="5.5781">
        <ele>1141.1</ele>
        <time>2019-08-29T10:21:27Z</time>
      </trkpt>
      <trkpt lat="45.078" lon="5.57794">
        <ele>1140.95</ele>
        <time>2019-08-29T10:21:46Z</time>
      </trkpt>
      <trkpt lat="45.07801" lon="5.57788">
        <ele>1140.7</ele>
        <time>2019-08-29T10:21:51Z</time>
      </trkpt>
      <trkpt lat="45.07804" lon="5.57776">
        <ele>1140.32</ele>
        <time>2019-08-29T10:22:00Z</time>
      </trkpt>
      <trkpt lat="45.07808" lon="5.57764">
        <ele>1139.85</ele>
        <time>2019-08-29T10:22:12Z</time>
      </trkpt>
      <trkpt lat="45.07813" lon="5.5774">
        <ele>1138.14</ele>
        <time>2019-08-29T10:22:26Z</time>
      </trkpt>
      <trkpt lat="45.07828" lon="5.57709">
        <ele>1134.6</ele>
        <time>2019-08-29T10:22:36Z</time>
      </trkpt>
      <trkpt lat="45.07839" lon="5.57689">
        <ele>1131.22</ele>
        <time>2019-08-29T10:22:42Z</time>
      </trkpt>
      <trkpt lat="45.07849" lon="5.57683">
        <ele>1128.16</ele>
        <time>2019-08-29T10:22:46Z</time>
      </trkpt>
      <trkpt lat="45.07864" lon="5.57685">
        <ele>1125.07</ele>
        <time>2019-08-29T10:22:52Z</time>
      </trkpt>
      <trkpt lat="45.07893" lon="5.57692">
        <ele>1121.86</ele>
        <time>2019-08-29T10:23:00Z</time>
      </trkpt>
      <trkpt lat="45.07897" lon="5.57692">
        <ele>1120.98</ele>
        <time>2019-08-29T10:23:02Z</time>
      </trkpt>
      <trkpt lat="45.07898" lon="5.57691">
        <ele>1120.61</ele>
        <time>2019-08-29T10:23:03Z</time>
      </trkpt>
      <trkpt lat="45.07898" lon="5.57688">
        <ele>1118.82</ele>
        <time>2019-08-29T10:23:17Z</time>
      </trkpt>
      <trkpt lat="45.07898" lon="5.57687">
        <ele>1118.67</ele>
        <time>2019-08-29T10:23:33Z</time>
      </trkpt>
      <trkpt lat="45.07899" lon="5.57689">
        <ele>1118.93</ele>
        <time>2019-08-29T10:24:01Z</time>
      </trkpt>
      <trkpt lat="45.07901" lon="5.57686">
        <ele>1119.02</ele>
        <time>2019-08-29T10:24:34Z</time>
      </trkpt>
      <trkpt lat="45.07903" lon="5.57687">
        <ele>1118.98</ele>
        <time>2019-08-29T10:25:03Z</time>
      </trkpt>
      <trkpt lat="45.07899" lon="5.57685">
        <ele>1119.08</ele>
        <time>2019-08-29T10:25:14Z</time>
      </trkpt>
      <trkpt lat="45.07882" lon="5.57668">
        <ele>1118.52</ele>
        <time>2019-08-29T10:25:24Z</time>
      </trkpt>
      <trkpt lat="45.07869" lon="5.57658">
        <ele>1118.22</ele>
        <time>2019-08-29T10:25:28Z</time>
      </trkpt>
      <trkpt lat="45.07859" lon="5.57656">
        <ele>1117.91</ele>
        <time>2019-08-29T10:25:30Z</time>
      </trkpt>
      <trkpt lat="45.07799" lon="5.57655">
        <ele>1115.45</ele>
        <time>2019-08-29T10:25:39Z</time>
      </trkpt>
      <trkpt lat="45.07751" lon="5.57656">
        <ele>1114.77</ele>
        <time>2019-08-29T10:25:48Z</time>
      </trkpt>
      <trkpt lat="45.07747" lon="5.57657">
        <ele>1114.83</ele>
        <time>2019-08-29T10:25:49Z</time>
      </trkpt>
      <trkpt lat="45.0772" lon="5.57652">
        <ele>1115.26</ele>
        <time>2019-08-29T10:25:55Z</time>
      </trkpt>
      <trkpt lat="45.07715" lon="5.5765">
        <ele>1115.32</ele>
        <time>2019-08-29T10:25:56Z</time>
      </trkpt>
      <trkpt lat="45.07712" lon="5.57647">
        <ele>1115.37</ele>
        <time>2019-08-29T10:25:57Z</time>
      </trkpt>
      <trkpt lat="45.07708" lon="5.57644">
        <ele>1115.4</ele>
        <time>2019-08-29T10:25:58Z</time>
      </trkpt>
      <trkpt lat="45.07704" lon="5.57641">
        <ele>1115.42</ele>
        <time>2019-08-29T10:25:59Z</time>
      </trkpt>
      <trkpt lat="45.07688" lon="5.57608">
        <ele>1115.46</ele>
        <time>2019-08-29T10:26:07Z</time>
      </trkpt>
      <trkpt lat="45.07687" lon="5.57602">
        <ele>1115.42</ele>
        <time>2019-08-29T10:26:08Z</time>
      </trkpt>
      <trkpt lat="45.07677" lon="5.57557">
        <ele>1113.91</ele>
        <time>2019-08-29T10:26:18Z</time>
      </trkpt>
      <trkpt lat="45.07678" lon="5.57556">
        <ele>1112.86</ele>
        <time>2019-08-29T10:26:40Z</time>
      </trkpt>
      <trkpt lat="45.07679" lon="5.57552">
        <ele>1112.73</ele>
        <time>2019-08-29T10:26:50Z</time>
      </trkpt>
      <trkpt lat="45.07679" lon="5.57549">
        <ele>1112.72</ele>
        <time>2019-08-29T10:26:51Z</time>
      </trkpt>
      <trkpt lat="45.0768" lon="5.57546">
        <ele>1112.69</ele>
        <time>2019-08-29T10:26:52Z</time>
      </trkpt>
      <trkpt lat="45.07681" lon="5.57541">
        <ele>1112.64</ele>
        <time>2019-08-29T10:26:53Z</time>
      </trkpt>
      <trkpt lat="45.07682" lon="5.57535">
        <ele>1112.58</ele>
        <time>2019-08-29T10:26:54Z</time>
      </trkpt>
      <trkpt lat="45.07683" lon="5.57529">
        <ele>1112.43</ele>
        <time>2019-08-29T10:26:55Z</time>
      </trkpt>
      <trkpt lat="45.07683" lon="5.57523">
        <ele>1112.2</ele>
        <time>2019-08-29T10:26:56Z</time>
      </trkpt>
      <trkpt lat="45.07683" lon="5.57515">
        <ele>1111.95</ele>
        <time>2019-08-29T10:26:57Z</time>
      </trkpt>
      <trkpt lat="45.07684" lon="5.57507">
        <ele>1111.64</ele>
        <time>2019-08-29T10:26:58Z</time>
      </trkpt>
      <trkpt lat="45.07685" lon="5.57498">
        <ele>1111.24</ele>
        <time>2019-08-29T10:26:59Z</time>
      </trkpt>
      <trkpt lat="45.07687" lon="5.57463">
        <ele>1109.7</ele>
        <time>2019-08-29T10:27:02Z</time>
      </trkpt>
      <trkpt lat="45.07691" lon="5.57452">
        <ele>1109.05</ele>
        <time>2019-08-29T10:27:03Z</time>
      </trkpt>
      <trkpt lat="45.07696" lon="5.57442">
        <ele>1108.36</ele>
        <time>2019-08-29T10:27:04Z</time>
      </trkpt>
      <trkpt lat="45.07702" lon="5.57432">
        <ele>1107.72</ele>
        <time>2019-08-29T10:27:05Z</time>
      </trkpt>
      <trkpt lat="45.07709" lon="5.57424">
        <ele>1107.13</ele>
        <time>2019-08-29T10:27:06Z</time>
      </trkpt>
      <trkpt lat="45.07716" lon="5.57416">
        <ele>1106.53</ele>
        <time>2019-08-29T10:27:07Z</time>
      </trkpt>
      <trkpt lat="45.07723" lon="5.57409">
        <ele>1105.92</ele>
        <time>2019-08-29T10:27:08Z</time>
      </trkpt>
      <trkpt lat="45.07734" lon="5.57398">
        <ele>1104.84</ele>
        <time>2019-08-29T10:27:10Z</time>
      </trkpt>
      <trkpt lat="45.07736" lon="5.57392">
        <ele>1104.33</ele>
        <time>2019-08-29T10:27:11Z</time>
      </trkpt>
      <trkpt lat="45.07737" lon="5.57385">
        <ele>1103.89</ele>
        <time>2019-08-29T10:27:12Z</time>
      </trkpt>
      <trkpt lat="45.07736" lon="5.57379">
        <ele>1103.52</ele>
        <time>2019-08-29T10:27:13Z</time>
      </trkpt>
      <trkpt lat="45.07735" lon="5.57373">
        <ele>1103.21</ele>
        <time>2019-08-29T10:27:14Z</time>
      </trkpt>
      <trkpt lat="45.07733" lon="5.57367">
        <ele>1102.95</ele>
        <time>2019-08-29T10:27:15Z</time>
      </trkpt>
      <trkpt lat="45.07731" lon="5.57362">
        <ele>1102.73</ele>
        <time>2019-08-29T10:27:16Z</time>
      </trkpt>
      <trkpt lat="45.07721" lon="5.57344">
        <ele>1102.14</ele>
        <time>2019-08-29T10:27:20Z</time>
      </trkpt>
      <trkpt lat="45.07718" lon="5.5734">
        <ele>1102.06</ele>
        <time>2019-08-29T10:27:21Z</time>
      </trkpt>
      <trkpt lat="45.07714" lon="5.57336">
        <ele>1102.01</ele>
        <time>2019-08-29T10:27:22Z</time>
      </trkpt>
      <trkpt lat="45.0771" lon="5.57333">
        <ele>1101.95</ele>
        <time>2019-08-29T10:27:23Z</time>
      </trkpt>
      <trkpt lat="45.07706" lon="5.5733">
        <ele>1101.88</ele>
        <time>2019-08-29T10:27:24Z</time>
      </trkpt>
      <trkpt lat="45.07701" lon="5.57328">
        <ele>1101.8</ele>
        <time>2019-08-29T10:27:25Z</time>
      </trkpt>
      <trkpt lat="45.07696" lon="5.57326">
        <ele>1101.73</ele>
        <time>2019-08-29T10:27:26Z</time>
      </trkpt>
      <trkpt lat="45.07692" lon="5.57324">
        <ele>1101.65</ele>
        <time>2019-08-29T10:27:27Z</time>
      </trkpt>
      <trkpt lat="45.07687" lon="5.57322">
        <ele>1101.59</ele>
        <time>2019-08-29T10:27:28Z</time>
      </trkpt>
      <trkpt lat="45.07678" lon="5.57316">
        <ele>1101.37</ele>
        <time>2019-08-29T10:27:30Z</time>
      </trkpt>
      <trkpt lat="45.07625" lon="5.57281">
        <ele>1100.2</ele>
        <time>2019-08-29T10:27:42Z</time>
      </trkpt>
      <trkpt lat="45.07616" lon="5.57276">
        <ele>1100.06</ele>
        <time>2019-08-29T10:27:44Z</time>
      </trkpt>
      <trkpt lat="45.07607" lon="5.5727">
        <ele>1099.92</ele>
        <time>2019-08-29T10:27:46Z</time>
      </trkpt>
      <trkpt lat="45.07565" lon="5.57257">
        <ele>1098.91</ele>
        <time>2019-08-29T10:27:54Z</time>
      </trkpt>
      <trkpt lat="45.0756" lon="5.57256">
        <ele>1098.78</ele>
        <time>2019-08-29T10:27:55Z</time>
      </trkpt>
      <trkpt lat="45.0748" lon="5.57258">
        <ele>1096.88</ele>
        <time>2019-08-29T10:28:08Z</time>
      </trkpt>
      <trkpt lat="45.07463" lon="5.57253">
        <ele>1096.51</ele>
        <time>2019-08-29T10:28:11Z</time>
      </trkpt>
      <trkpt lat="45.07457" lon="5.57251">
        <ele>1096.41</ele>
        <time>2019-08-29T10:28:12Z</time>
      </trkpt>
      <trkpt lat="45.07446" lon="5.57246">
        <ele>1096.19</ele>
        <time>2019-08-29T10:28:14Z</time>
      </trkpt>
      <trkpt lat="45.07423" lon="5.57235">
        <ele>1095.92</ele>
        <time>2019-08-29T10:28:18Z</time>
      </trkpt>
      <trkpt lat="45.07417" lon="5.57234">
        <ele>1095.88</ele>
        <time>2019-08-29T10:28:19Z</time>
      </trkpt>
      <trkpt lat="45.07411" lon="5.57234">
        <ele>1095.83</ele>
        <time>2019-08-29T10:28:20Z</time>
      </trkpt>
      <trkpt lat="45.07349" lon="5.5724">
        <ele>1094.36</ele>
        <time>2019-08-29T10:28:30Z</time>
      </trkpt>
      <trkpt lat="45.07343" lon="5.57242">
        <ele>1094.14</ele>
        <time>2019-08-29T10:28:31Z</time>
      </trkpt>
      <trkpt lat="45.07338" lon="5.57246">
        <ele>1094.02</ele>
        <time>2019-08-29T10:28:32Z</time>
      </trkpt>
      <trkpt lat="45.07327" lon="5.57253">
        <ele>1093.79</ele>
        <time>2019-08-29T10:28:34Z</time>
      </trkpt>
      <trkpt lat="45.07322" lon="5.57259">
        <ele>1093.66</ele>
        <time>2019-08-29T10:28:35Z</time>
      </trkpt>
      <trkpt lat="45.07318" lon="5.57266">
        <ele>1093.54</ele>
        <time>2019-08-29T10:28:36Z</time>
      </trkpt>
      <trkpt lat="45.07314" lon="5.57273">
        <ele>1093.42</ele>
        <time>2019-08-29T10:28:37Z</time>
      </trkpt>
      <trkpt lat="45.07311" lon="5.57281">
        <ele>1093.27</ele>
        <time>2019-08-29T10:28:38Z</time>
      </trkpt>
      <trkpt lat="45.07308" lon="5.57289">
        <ele>1093.09</ele>
        <time>2019-08-29T10:28:39Z</time>
      </trkpt>
      <trkpt lat="45.07283" lon="5.57371">
        <ele>1091.42</ele>
        <time>2019-08-29T10:28:49Z</time>
      </trkpt>
      <trkpt lat="45.0728" lon="5.57379">
        <ele>1091.28</ele>
        <time>2019-08-29T10:28:50Z</time>
      </trkpt>
      <trkpt lat="45.07276" lon="5.57396">
        <ele>1091.04</ele>
        <time>2019-08-29T10:28:52Z</time>
      </trkpt>
      <trkpt lat="45.07272" lon="5.57404">
        <ele>1090.96</ele>
        <time>2019-08-29T10:28:53Z</time>
      </trkpt>
      <trkpt lat="45.07268" lon="5.57412">
        <ele>1090.87</ele>
        <time>2019-08-29T10:28:54Z</time>
      </trkpt>
      <trkpt lat="45.07264" lon="5.57419">
        <ele>1090.78</ele>
        <time>2019-08-29T10:28:55Z</time>
      </trkpt>
      <trkpt lat="45.07259" lon="5.57426">
        <ele>1090.54</ele>
        <time>2019-08-29T10:28:56Z</time>
      </trkpt>
      <trkpt lat="45.07253" lon="5.57431">
        <ele>1090.36</ele>
        <time>2019-08-29T10:28:57Z</time>
      </trkpt>
      <trkpt lat="45.07247" lon="5.57434">
        <ele>1090.17</ele>
        <time>2019-08-29T10:28:58Z</time>
      </trkpt>
      <trkpt lat="45.0724" lon="5.57436">
        <ele>1089.99</ele>
        <time>2019-08-29T10:28:59Z</time>
      </trkpt>
      <trkpt lat="45.07233" lon="5.57437">
        <ele>1089.82</ele>
        <time>2019-08-29T10:29:00Z</time>
      </trkpt>
      <trkpt lat="45.07226" lon="5.57437">
        <ele>1089.67</ele>
        <time>2019-08-29T10:29:01Z</time>
      </trkpt>
      <trkpt lat="45.07213" lon="5.57436">
        <ele>1089.36</ele>
        <time>2019-08-29T10:29:03Z</time>
      </trkpt>
      <trkpt lat="45.07206" lon="5.57438">
        <ele>1089.2</ele>
        <time>2019-08-29T10:29:04Z</time>
      </trkpt>
      <trkpt lat="45.072" lon="5.5744">
        <ele>1089.05</ele>
        <time>2019-08-29T10:29:05Z</time>
      </trkpt>
      <trkpt lat="45.07193" lon="5.57444">
        <ele>1088.91</ele>
        <time>2019-08-29T10:29:06Z</time>
      </trkpt>
      <trkpt lat="45.07188" lon="5.57448">
        <ele>1088.77</ele>
        <time>2019-08-29T10:29:07Z</time>
      </trkpt>
      <trkpt lat="45.07171" lon="5.57457">
        <ele>1088.36</ele>
        <time>2019-08-29T10:29:10Z</time>
      </trkpt>
      <trkpt lat="45.07154" lon="5.57462">
        <ele>1088.05</ele>
        <time>2019-08-29T10:29:13Z</time>
      </trkpt>
      <trkpt lat="45.07148" lon="5.57461">
        <ele>1087.96</ele>
        <time>2019-08-29T10:29:14Z</time>
      </trkpt>
      <trkpt lat="45.07144" lon="5.57458">
        <ele>1087.9</ele>
        <time>2019-08-29T10:29:15Z</time>
      </trkpt>
      <trkpt lat="45.07141" lon="5.57451">
        <ele>1087.84</ele>
        <time>2019-08-29T10:29:16Z</time>
      </trkpt>
      <trkpt lat="45.07139" lon="5.57443">
        <ele>1087.78</ele>
        <time>2019-08-29T10:29:17Z</time>
      </trkpt>
      <trkpt lat="45.07139" lon="5.57436">
        <ele>1087.71</ele>
        <time>2019-08-29T10:29:18Z</time>
      </trkpt>
      <trkpt lat="45.0714" lon="5.57428">
        <ele>1087.66</ele>
        <time>2019-08-29T10:29:19Z</time>
      </trkpt>
      <trkpt lat="45.07141" lon="5.57421">
        <ele>1087.57</ele>
        <time>2019-08-29T10:29:20Z</time>
      </trkpt>
      <trkpt lat="45.07142" lon="5.57415">
        <ele>1087.53</ele>
        <time>2019-08-29T10:29:21Z</time>
      </trkpt>
      <trkpt lat="45.07141" lon="5.57409">
        <ele>1087.53</ele>
        <time>2019-08-29T10:29:22Z</time>
      </trkpt>
      <trkpt lat="45.0714" lon="5.57396">
        <ele>1087.57</ele>
        <time>2019-08-29T10:29:24Z</time>
      </trkpt>
      <trkpt lat="45.07136" lon="5.57383">
        <ele>1087.62</ele>
        <time>2019-08-29T10:29:26Z</time>
      </trkpt>
      <trkpt lat="45.07134" lon="5.57377">
        <ele>1087.65</ele>
        <time>2019-08-29T10:29:27Z</time>
      </trkpt>
      <trkpt lat="45.07131" lon="5.57371">
        <ele>1087.66</ele>
        <time>2019-08-29T10:29:28Z</time>
      </trkpt>
      <trkpt lat="45.07129" lon="5.57366">
        <ele>1087.67</ele>
        <time>2019-08-29T10:29:29Z</time>
      </trkpt>
      <trkpt lat="45.07126" lon="5.57361">
        <ele>1087.68</ele>
        <time>2019-08-29T10:29:30Z</time>
      </trkpt>
      <trkpt lat="45.07123" lon="5.57355">
        <ele>1087.69</ele>
        <time>2019-08-29T10:29:31Z</time>
      </trkpt>
      <trkpt lat="45.0712" lon="5.5735">
        <ele>1087.71</ele>
        <time>2019-08-29T10:29:32Z</time>
      </trkpt>
      <trkpt lat="45.07117" lon="5.57344">
        <ele>1087.75</ele>
        <time>2019-08-29T10:29:33Z</time>
      </trkpt>
      <trkpt lat="45.07114" lon="5.57338">
        <ele>1087.78</ele>
        <time>2019-08-29T10:29:34Z</time>
      </trkpt>
      <trkpt lat="45.07112" lon="5.57332">
        <ele>1087.8</ele>
        <time>2019-08-29T10:29:35Z</time>
      </trkpt>
      <trkpt lat="45.07103" lon="5.57308">
        <ele>1087.96</ele>
        <time>2019-08-29T10:29:39Z</time>
      </trkpt>
      <trkpt lat="45.07081" lon="5.57256">
        <ele>1088.99</ele>
        <time>2019-08-29T10:29:50Z</time>
      </trkpt>
      <trkpt lat="45.07048" lon="5.57263">
        <ele>1089.67</ele>
        <time>2019-08-29T10:29:59Z</time>
      </trkpt>
      <trkpt lat="45.07043" lon="5.57266">
        <ele>1089.63</ele>
        <time>2019-08-29T10:30:00Z</time>
      </trkpt>
      <trkpt lat="45.07039" lon="5.57268">
        <ele>1089.57</ele>
        <time>2019-08-29T10:30:01Z</time>
      </trkpt>
      <trkpt lat="45.07035" lon="5.57269">
        <ele>1089.49</ele>
        <time>2019-08-29T10:30:02Z</time>
      </trkpt>
      <trkpt lat="45.0703" lon="5.57269">
        <ele>1089.41</ele>
        <time>2019-08-29T10:30:03Z</time>
      </trkpt>
      <trkpt lat="45.07025" lon="5.57268">
        <ele>1089.33</ele>
        <time>2019-08-29T10:30:04Z</time>
      </trkpt>
      <trkpt lat="45.07021" lon="5.57267">
        <ele>1089.26</ele>
        <time>2019-08-29T10:30:05Z</time>
      </trkpt>
      <trkpt lat="45.07016" lon="5.57266">
        <ele>1089.16</ele>
        <time>2019-08-29T10:30:06Z</time>
      </trkpt>
      <trkpt lat="45.07011" lon="5.57264">
        <ele>1089.05</ele>
        <time>2019-08-29T10:30:07Z</time>
      </trkpt>
      <trkpt lat="45.07008" lon="5.57262">
        <ele>1088.92</ele>
        <time>2019-08-29T10:30:08Z</time>
      </trkpt>
      <trkpt lat="45.07003" lon="5.57259">
        <ele>1088.81</ele>
        <time>2019-08-29T10:30:09Z</time>
      </trkpt>
      <trkpt lat="45.07002" lon="5.57256">
        <ele>1088.62</ele>
        <time>2019-08-29T10:30:10Z</time>
      </trkpt>
      <trkpt lat="45.06999" lon="5.57252">
        <ele>1088.52</ele>
        <time>2019-08-29T10:30:11Z</time>
      </trkpt>
      <trkpt lat="45.06996" lon="5.57249">
        <ele>1088.45</ele>
        <time>2019-08-29T10:30:12Z</time>
      </trkpt>
      <trkpt lat="45.06992" lon="5.57244">
        <ele>1088.4</ele>
        <time>2019-08-29T10:30:13Z</time>
      </trkpt>
      <trkpt lat="45.06987" lon="5.57237">
        <ele>1088.35</ele>
        <time>2019-08-29T10:30:14Z</time>
      </trkpt>
      <trkpt lat="45.06984" lon="5.57228">
        <ele>1088.26</ele>
        <time>2019-08-29T10:30:15Z</time>
      </trkpt>
      <trkpt lat="45.06982" lon="5.57218">
        <ele>1088.15</ele>
        <time>2019-08-29T10:30:16Z</time>
      </trkpt>
      <trkpt lat="45.06981" lon="5.5721">
        <ele>1088.01</ele>
        <time>2019-08-29T10:30:17Z</time>
      </trkpt>
      <trkpt lat="45.06981" lon="5.57201">
        <ele>1087.85</ele>
        <time>2019-08-29T10:30:18Z</time>
      </trkpt>
      <trkpt lat="45.06981" lon="5.57184">
        <ele>1087.6</ele>
        <time>2019-08-29T10:30:20Z</time>
      </trkpt>
      <trkpt lat="45.06979" lon="5.57166">
        <ele>1087.38</ele>
        <time>2019-08-29T10:30:22Z</time>
      </trkpt>
      <trkpt lat="45.06977" lon="5.57158">
        <ele>1087.24</ele>
        <time>2019-08-29T10:30:23Z</time>
      </trkpt>
      <trkpt lat="45.06974" lon="5.5715">
        <ele>1087.1</ele>
        <time>2019-08-29T10:30:24Z</time>
      </trkpt>
      <trkpt lat="45.06969" lon="5.57145">
        <ele>1086.92</ele>
        <time>2019-08-29T10:30:25Z</time>
      </trkpt>
      <trkpt lat="45.06963" lon="5.5714">
        <ele>1086.74</ele>
        <time>2019-08-29T10:30:26Z</time>
      </trkpt>
      <trkpt lat="45.06923" lon="5.57103">
        <ele>1085.32</ele>
        <time>2019-08-29T10:30:33Z</time>
      </trkpt>
      <trkpt lat="45.06919" lon="5.57098">
        <ele>1084.81</ele>
        <time>2019-08-29T10:30:34Z</time>
      </trkpt>
      <trkpt lat="45.0691" lon="5.57081">
        <ele>1084.02</ele>
        <time>2019-08-29T10:30:37Z</time>
      </trkpt>
      <trkpt lat="45.06908" lon="5.57075">
        <ele>1083.7</ele>
        <time>2019-08-29T10:30:38Z</time>
      </trkpt>
      <trkpt lat="45.06907" lon="5.57069">
        <ele>1083.34</ele>
        <time>2019-08-29T10:30:39Z</time>
      </trkpt>
      <trkpt lat="45.06906" lon="5.57062">
        <ele>1083</ele>
        <time>2019-08-29T10:30:40Z</time>
      </trkpt>
      <trkpt lat="45.06908" lon="5.57057">
        <ele>1082.69</ele>
        <time>2019-08-29T10:30:41Z</time>
      </trkpt>
      <trkpt lat="45.0691" lon="5.57052">
        <ele>1082.4</ele>
        <time>2019-08-29T10:30:42Z</time>
      </trkpt>
      <trkpt lat="45.06912" lon="5.57046">
        <ele>1082.15</ele>
        <time>2019-08-29T10:30:43Z</time>
      </trkpt>
      <trkpt lat="45.06914" lon="5.57042">
        <ele>1081.95</ele>
        <time>2019-08-29T10:30:44Z</time>
      </trkpt>
      <trkpt lat="45.06915" lon="5.57037">
        <ele>1081.8</ele>
        <time>2019-08-29T10:30:45Z</time>
      </trkpt>
      <trkpt lat="45.06917" lon="5.57033">
        <ele>1081.66</ele>
        <time>2019-08-29T10:30:46Z</time>
      </trkpt>
      <trkpt lat="45.06918" lon="5.57028">
        <ele>1081.58</ele>
        <time>2019-08-29T10:30:47Z</time>
      </trkpt>
      <trkpt lat="45.0692" lon="5.57024">
        <ele>1081.52</ele>
        <time>2019-08-29T10:30:48Z</time>
      </trkpt>
      <trkpt lat="45.06922" lon="5.5702">
        <ele>1081.5</ele>
        <time>2019-08-29T10:30:49Z</time>
      </trkpt>
      <trkpt lat="45.06923" lon="5.57017">
        <ele>1081.49</ele>
        <time>2019-08-29T10:30:50Z</time>
      </trkpt>
      <trkpt lat="45.06925" lon="5.57014">
        <ele>1081.48</ele>
        <time>2019-08-29T10:30:51Z</time>
      </trkpt>
      <trkpt lat="45.06926" lon="5.57012">
        <ele>1081.46</ele>
        <time>2019-08-29T10:30:52Z</time>
      </trkpt>
      <trkpt lat="45.06926" lon="5.57">
        <ele>1081.83</ele>
        <time>2019-08-29T10:31:07Z</time>
      </trkpt>
      <trkpt lat="45.06924" lon="5.56994">
        <ele>1081.7</ele>
        <time>2019-08-29T10:31:11Z</time>
      </trkpt>
      <trkpt lat="45.06923" lon="5.5699">
        <ele>1081.68</ele>
        <time>2019-08-29T10:31:12Z</time>
      </trkpt>
      <trkpt lat="45.06922" lon="5.56987">
        <ele>1081.66</ele>
        <time>2019-08-29T10:31:13Z</time>
      </trkpt>
      <trkpt lat="45.06921" lon="5.56984">
        <ele>1081.65</ele>
        <time>2019-08-29T10:31:14Z</time>
      </trkpt>
      <trkpt lat="45.06919" lon="5.56981">
        <ele>1081.62</ele>
        <time>2019-08-29T10:31:15Z</time>
      </trkpt>
      <trkpt lat="45.06917" lon="5.56977">
        <ele>1081.57</ele>
        <time>2019-08-29T10:31:16Z</time>
      </trkpt>
      <trkpt lat="45.06913" lon="5.56974">
        <ele>1081.51</ele>
        <time>2019-08-29T10:31:17Z</time>
      </trkpt>
      <trkpt lat="45.06909" lon="5.56971">
        <ele>1081.42</ele>
        <time>2019-08-29T10:31:18Z</time>
      </trkpt>
      <trkpt lat="45.06873" lon="5.56952">
        <ele>1080.74</ele>
        <time>2019-08-29T10:31:27Z</time>
      </trkpt>
      <trkpt lat="45.06869" lon="5.56949">
        <ele>1080.69</ele>
        <time>2019-08-29T10:31:28Z</time>
      </trkpt>
      <trkpt lat="45.06865" lon="5.56947">
        <ele>1080.65</ele>
        <time>2019-08-29T10:31:29Z</time>
      </trkpt>
      <trkpt lat="45.06861" lon="5.56945">
        <ele>1080.62</ele>
        <time>2019-08-29T10:31:30Z</time>
      </trkpt>
      <trkpt lat="45.06856" lon="5.56942">
        <ele>1080.6</ele>
        <time>2019-08-29T10:31:31Z</time>
      </trkpt>
      <trkpt lat="45.06851" lon="5.5694">
        <ele>1080.61</ele>
        <time>2019-08-29T10:31:32Z</time>
      </trkpt>
      <trkpt lat="45.06846" lon="5.56937">
        <ele>1080.63</ele>
        <time>2019-08-29T10:31:33Z</time>
      </trkpt>
      <trkpt lat="45.06841" lon="5.56933">
        <ele>1080.64</ele>
        <time>2019-08-29T10:31:34Z</time>
      </trkpt>
      <trkpt lat="45.06831" lon="5.56924">
        <ele>1080.62</ele>
        <time>2019-08-29T10:31:36Z</time>
      </trkpt>
      <trkpt lat="45.06826" lon="5.56919">
        <ele>1080.6</ele>
        <time>2019-08-29T10:31:37Z</time>
      </trkpt>
      <trkpt lat="45.06817" lon="5.56908">
        <ele>1080.55</ele>
        <time>2019-08-29T10:31:39Z</time>
      </trkpt>
      <trkpt lat="45.06792" lon="5.56874">
        <ele>1080.71</ele>
        <time>2019-08-29T10:31:45Z</time>
      </trkpt>
      <trkpt lat="45.06789" lon="5.56866">
        <ele>1080.76</ele>
        <time>2019-08-29T10:31:46Z</time>
      </trkpt>
      <trkpt lat="45.06787" lon="5.56857">
        <ele>1080.84</ele>
        <time>2019-08-29T10:31:47Z</time>
      </trkpt>
      <trkpt lat="45.06787" lon="5.56848">
        <ele>1080.88</ele>
        <time>2019-08-29T10:31:48Z</time>
      </trkpt>
      <trkpt lat="45.06787" lon="5.5684">
        <ele>1080.91</ele>
        <time>2019-08-29T10:31:49Z</time>
      </trkpt>
      <trkpt lat="45.06788" lon="5.56832">
        <ele>1080.91</ele>
        <time>2019-08-29T10:31:50Z</time>
      </trkpt>
      <trkpt lat="45.06789" lon="5.56825">
        <ele>1080.91</ele>
        <time>2019-08-29T10:31:51Z</time>
      </trkpt>
      <trkpt lat="45.0679" lon="5.56818">
        <ele>1080.93</ele>
        <time>2019-08-29T10:31:52Z</time>
      </trkpt>
      <trkpt lat="45.06792" lon="5.56811">
        <ele>1080.94</ele>
        <time>2019-08-29T10:31:53Z</time>
      </trkpt>
      <trkpt lat="45.06793" lon="5.56804">
        <ele>1080.95</ele>
        <time>2019-08-29T10:31:54Z</time>
      </trkpt>
      <trkpt lat="45.06795" lon="5.56797">
        <ele>1081</ele>
        <time>2019-08-29T10:31:55Z</time>
      </trkpt>
      <trkpt lat="45.06795" lon="5.5679">
        <ele>1081.11</ele>
        <time>2019-08-29T10:31:56Z</time>
      </trkpt>
      <trkpt lat="45.06796" lon="5.56783">
        <ele>1081.26</ele>
        <time>2019-08-29T10:31:57Z</time>
      </trkpt>
      <trkpt lat="45.06795" lon="5.56775">
        <ele>1081.44</ele>
        <time>2019-08-29T10:31:58Z</time>
      </trkpt>
      <trkpt lat="45.06794" lon="5.56768">
        <ele>1081.63</ele>
        <time>2019-08-29T10:31:59Z</time>
      </trkpt>
      <trkpt lat="45.0679" lon="5.56739">
        <ele>1082.21</ele>
        <time>2019-08-29T10:32:03Z</time>
      </trkpt>
      <trkpt lat="45.06791" lon="5.56732">
        <ele>1082.29</ele>
        <time>2019-08-29T10:32:04Z</time>
      </trkpt>
      <trkpt lat="45.06791" lon="5.56726">
        <ele>1082.35</ele>
        <time>2019-08-29T10:32:05Z</time>
      </trkpt>
      <trkpt lat="45.06792" lon="5.5672">
        <ele>1082.39</ele>
        <time>2019-08-29T10:32:06Z</time>
      </trkpt>
      <trkpt lat="45.06793" lon="5.56715">
        <ele>1082.42</ele>
        <time>2019-08-29T10:32:07Z</time>
      </trkpt>
      <trkpt lat="45.06795" lon="5.56712">
        <ele>1082.45</ele>
        <time>2019-08-29T10:32:08Z</time>
      </trkpt>
      <trkpt lat="45.06796" lon="5.56709">
        <ele>1082.48</ele>
        <time>2019-08-29T10:32:09Z</time>
      </trkpt>
      <trkpt lat="45.06798" lon="5.56706">
        <ele>1082.52</ele>
        <time>2019-08-29T10:32:10Z</time>
      </trkpt>
      <trkpt lat="45.068" lon="5.56704">
        <ele>1082.67</ele>
        <time>2019-08-29T10:32:11Z</time>
      </trkpt>
      <trkpt lat="45.06802" lon="5.56702">
        <ele>1082.76</ele>
        <time>2019-08-29T10:32:12Z</time>
      </trkpt>
      <trkpt lat="45.06804" lon="5.567">
        <ele>1082.82</ele>
        <time>2019-08-29T10:32:13Z</time>
      </trkpt>
      <trkpt lat="45.06846" lon="5.56689">
        <ele>1082.59</ele>
        <time>2019-08-29T10:32:25Z</time>
      </trkpt>
      <trkpt lat="45.0685" lon="5.56687">
        <ele>1082.59</ele>
        <time>2019-08-29T10:32:26Z</time>
      </trkpt>
      <trkpt lat="45.06854" lon="5.56684">
        <ele>1082.59</ele>
        <time>2019-08-29T10:32:27Z</time>
      </trkpt>
      <trkpt lat="45.06857" lon="5.5668">
        <ele>1082.61</ele>
        <time>2019-08-29T10:32:28Z</time>
      </trkpt>
      <trkpt lat="45.0686" lon="5.56676">
        <ele>1082.63</ele>
        <time>2019-08-29T10:32:29Z</time>
      </trkpt>
      <trkpt lat="45.06861" lon="5.5667">
        <ele>1082.63</ele>
        <time>2019-08-29T10:32:30Z</time>
      </trkpt>
      <trkpt lat="45.06863" lon="5.56663">
        <ele>1082.63</ele>
        <time>2019-08-29T10:32:31Z</time>
      </trkpt>
      <trkpt lat="45.06863" lon="5.56656">
        <ele>1082.63</ele>
        <time>2019-08-29T10:32:32Z</time>
      </trkpt>
      <trkpt lat="45.06862" lon="5.56648">
        <ele>1082.62</ele>
        <time>2019-08-29T10:32:33Z</time>
      </trkpt>
      <trkpt lat="45.0686" lon="5.56641">
        <ele>1082.59</ele>
        <time>2019-08-29T10:32:34Z</time>
      </trkpt>
      <trkpt lat="45.06858" lon="5.56633">
        <ele>1082.38</ele>
        <time>2019-08-29T10:32:35Z</time>
      </trkpt>
      <trkpt lat="45.06855" lon="5.56625">
        <ele>1082.38</ele>
        <time>2019-08-29T10:32:36Z</time>
      </trkpt>
      <trkpt lat="45.06848" lon="5.5661">
        <ele>1081.93</ele>
        <time>2019-08-29T10:32:38Z</time>
      </trkpt>
      <trkpt lat="45.06844" lon="5.56602">
        <ele>1081.7</ele>
        <time>2019-08-29T10:32:39Z</time>
      </trkpt>
      <trkpt lat="45.06839" lon="5.56596">
        <ele>1081.48</ele>
        <time>2019-08-29T10:32:40Z</time>
      </trkpt>
      <trkpt lat="45.06834" lon="5.5659">
        <ele>1081.29</ele>
        <time>2019-08-29T10:32:41Z</time>
      </trkpt>
      <trkpt lat="45.06828" lon="5.56586">
        <ele>1081.11</ele>
        <time>2019-08-29T10:32:42Z</time>
      </trkpt>
      <trkpt lat="45.06822" lon="5.56582">
        <ele>1080.95</ele>
        <time>2019-08-29T10:32:43Z</time>
      </trkpt>
      <trkpt lat="45.06815" lon="5.56579">
        <ele>1080.79</ele>
        <time>2019-08-29T10:32:44Z</time>
      </trkpt>
      <trkpt lat="45.06809" lon="5.56577">
        <ele>1080.62</ele>
        <time>2019-08-29T10:32:45Z</time>
      </trkpt>
      <trkpt lat="45.06802" lon="5.56575">
        <ele>1080.43</ele>
        <time>2019-08-29T10:32:46Z</time>
      </trkpt>
      <trkpt lat="45.06796" lon="5.56574">
        <ele>1080.26</ele>
        <time>2019-08-29T10:32:47Z</time>
      </trkpt>
      <trkpt lat="45.06746" lon="5.56562">
        <ele>1079.52</ele>
        <time>2019-08-29T10:32:56Z</time>
      </trkpt>
      <trkpt lat="45.06743" lon="5.56557">
        <ele>1079.51</ele>
        <time>2019-08-29T10:32:57Z</time>
      </trkpt>
      <trkpt lat="45.0674" lon="5.56551">
        <ele>1079.54</ele>
        <time>2019-08-29T10:32:58Z</time>
      </trkpt>
      <trkpt lat="45.06739" lon="5.56544">
        <ele>1079.56</ele>
        <time>2019-08-29T10:32:59Z</time>
      </trkpt>
      <trkpt lat="45.0674" lon="5.56536">
        <ele>1079.55</ele>
        <time>2019-08-29T10:33:00Z</time>
      </trkpt>
      <trkpt lat="45.06742" lon="5.56529">
        <ele>1079.59</ele>
        <time>2019-08-29T10:33:01Z</time>
      </trkpt>
      <trkpt lat="45.06745" lon="5.56523">
        <ele>1079.62</ele>
        <time>2019-08-29T10:33:02Z</time>
      </trkpt>
      <trkpt lat="45.06749" lon="5.56517">
        <ele>1079.64</ele>
        <time>2019-08-29T10:33:03Z</time>
      </trkpt>
      <trkpt lat="45.0676" lon="5.565">
        <ele>1079.68</ele>
        <time>2019-08-29T10:33:06Z</time>
      </trkpt>
      <trkpt lat="45.06764" lon="5.56495">
        <ele>1079.69</ele>
        <time>2019-08-29T10:33:07Z</time>
      </trkpt>
      <trkpt lat="45.06768" lon="5.56491">
        <ele>1079.7</ele>
        <time>2019-08-29T10:33:08Z</time>
      </trkpt>
      <trkpt lat="45.06772" lon="5.56487">
        <ele>1079.73</ele>
        <time>2019-08-29T10:33:09Z</time>
      </trkpt>
      <trkpt lat="45.06775" lon="5.56483">
        <ele>1079.79</ele>
        <time>2019-08-29T10:33:10Z</time>
      </trkpt>
      <trkpt lat="45.06778" lon="5.56479">
        <ele>1079.84</ele>
        <time>2019-08-29T10:33:11Z</time>
      </trkpt>
      <trkpt lat="45.06781" lon="5.56475">
        <ele>1079.89</ele>
        <time>2019-08-29T10:33:12Z</time>
      </trkpt>
      <trkpt lat="45.068" lon="5.56432">
        <ele>1082.01</ele>
        <time>2019-08-29T10:33:23Z</time>
      </trkpt>
      <trkpt lat="45.06785" lon="5.5638">
        <ele>1083.3</ele>
        <time>2019-08-29T10:33:36Z</time>
      </trkpt>
      <trkpt lat="45.0677" lon="5.56353">
        <ele>1083.64</ele>
        <time>2019-08-29T10:33:43Z</time>
      </trkpt>
      <trkpt lat="45.0675" lon="5.56318">
        <ele>1083.65</ele>
        <time>2019-08-29T10:33:50Z</time>
      </trkpt>
      <trkpt lat="45.06748" lon="5.56311">
        <ele>1083.55</ele>
        <time>2019-08-29T10:33:51Z</time>
      </trkpt>
      <trkpt lat="45.06746" lon="5.56304">
        <ele>1083.47</ele>
        <time>2019-08-29T10:33:52Z</time>
      </trkpt>
      <trkpt lat="45.06745" lon="5.56296">
        <ele>1083.37</ele>
        <time>2019-08-29T10:33:53Z</time>
      </trkpt>
      <trkpt lat="45.06744" lon="5.56289">
        <ele>1083.24</ele>
        <time>2019-08-29T10:33:54Z</time>
      </trkpt>
      <trkpt lat="45.06738" lon="5.56197">
        <ele>1082.1</ele>
        <time>2019-08-29T10:34:06Z</time>
      </trkpt>
      <trkpt lat="45.06738" lon="5.5619">
        <ele>1082.01</ele>
        <time>2019-08-29T10:34:07Z</time>
      </trkpt>
      <trkpt lat="45.06738" lon="5.56182">
        <ele>1081.92</ele>
        <time>2019-08-29T10:34:08Z</time>
      </trkpt>
      <trkpt lat="45.06739" lon="5.56174">
        <ele>1081.82</ele>
        <time>2019-08-29T10:34:09Z</time>
      </trkpt>
      <trkpt lat="45.0674" lon="5.56166">
        <ele>1081.73</ele>
        <time>2019-08-29T10:34:10Z</time>
      </trkpt>
      <trkpt lat="45.06742" lon="5.56158">
        <ele>1081.64</ele>
        <time>2019-08-29T10:34:11Z</time>
      </trkpt>
      <trkpt lat="45.06752" lon="5.56116">
        <ele>1080.72</ele>
        <time>2019-08-29T10:34:16Z</time>
      </trkpt>
      <trkpt lat="45.06755" lon="5.56107">
        <ele>1080.46</ele>
        <time>2019-08-29T10:34:17Z</time>
      </trkpt>
      <trkpt lat="45.06759" lon="5.56098">
        <ele>1080.13</ele>
        <time>2019-08-29T10:34:18Z</time>
      </trkpt>
      <trkpt lat="45.06763" lon="5.56089">
        <ele>1079.74</ele>
        <time>2019-08-29T10:34:19Z</time>
      </trkpt>
      <trkpt lat="45.06769" lon="5.5608">
        <ele>1079.31</ele>
        <time>2019-08-29T10:34:20Z</time>
      </trkpt>
      <trkpt lat="45.06776" lon="5.56071">
        <ele>1078.85</ele>
        <time>2019-08-29T10:34:21Z</time>
      </trkpt>
      <trkpt lat="45.06793" lon="5.56039">
        <ele>1077.23</ele>
        <time>2019-08-29T10:34:24Z</time>
      </trkpt>
      <trkpt lat="45.06797" lon="5.56027">
        <ele>1076.67</ele>
        <time>2019-08-29T10:34:25Z</time>
      </trkpt>
      <trkpt lat="45.06801" lon="5.56014">
        <ele>1076.12</ele>
        <time>2019-08-29T10:34:26Z</time>
      </trkpt>
      <trkpt lat="45.06803" lon="5.56001">
        <ele>1075.55</ele>
        <time>2019-08-29T10:34:27Z</time>
      </trkpt>
      <trkpt lat="45.06805" lon="5.55988">
        <ele>1074.96</ele>
        <time>2019-08-29T10:34:28Z</time>
      </trkpt>
      <trkpt lat="45.06806" lon="5.55975">
        <ele>1074.35</ele>
        <time>2019-08-29T10:34:29Z</time>
      </trkpt>
      <trkpt lat="45.06806" lon="5.55891">
        <ele>1071.07</ele>
        <time>2019-08-29T10:34:36Z</time>
      </trkpt>
      <trkpt lat="45.06807" lon="5.55881">
        <ele>1070.72</ele>
        <time>2019-08-29T10:34:37Z</time>
      </trkpt>
      <trkpt lat="45.06809" lon="5.55872">
        <ele>1070.33</ele>
        <time>2019-08-29T10:34:38Z</time>
      </trkpt>
      <trkpt lat="45.06811" lon="5.55864">
        <ele>1069.84</ele>
        <time>2019-08-29T10:34:39Z</time>
      </trkpt>
      <trkpt lat="45.06814" lon="5.55857">
        <ele>1068.75</ele>
        <time>2019-08-29T10:34:40Z</time>
      </trkpt>
      <trkpt lat="45.06816" lon="5.5585">
        <ele>1068.15</ele>
        <time>2019-08-29T10:34:41Z</time>
      </trkpt>
      <trkpt lat="45.06819" lon="5.55844">
        <ele>1067.55</ele>
        <time>2019-08-29T10:34:42Z</time>
      </trkpt>
      <trkpt lat="45.06825" lon="5.5582">
        <ele>1064.16</ele>
        <time>2019-08-29T10:34:49Z</time>
      </trkpt>
      <trkpt lat="45.06833" lon="5.55805">
        <ele>1061.96</ele>
        <time>2019-08-29T10:34:58Z</time>
      </trkpt>
      <trkpt lat="45.06837" lon="5.55799">
        <ele>1061.8</ele>
        <time>2019-08-29T10:34:59Z</time>
      </trkpt>
      <trkpt lat="45.0685" lon="5.55772">
        <ele>1061.08</ele>
        <time>2019-08-29T10:35:02Z</time>
      </trkpt>
      <trkpt lat="45.06854" lon="5.55761">
        <ele>1060.59</ele>
        <time>2019-08-29T10:35:03Z</time>
      </trkpt>
      <trkpt lat="45.06859" lon="5.55752">
        <ele>1059.91</ele>
        <time>2019-08-29T10:35:04Z</time>
      </trkpt>
      <trkpt lat="45.06874" lon="5.55727">
        <ele>1056.42</ele>
        <time>2019-08-29T10:35:07Z</time>
      </trkpt>
      <trkpt lat="45.06904" lon="5.55688">
        <ele>1052.79</ele>
        <time>2019-08-29T10:35:12Z</time>
      </trkpt>
      <trkpt lat="45.06929" lon="5.55648">
        <ele>1049.8</ele>
        <time>2019-08-29T10:35:17Z</time>
      </trkpt>
      <trkpt lat="45.06931" lon="5.55641">
        <ele>1049.16</ele>
        <time>2019-08-29T10:35:18Z</time>
      </trkpt>
      <trkpt lat="45.06933" lon="5.55635">
        <ele>1048.48</ele>
        <time>2019-08-29T10:35:19Z</time>
      </trkpt>
      <trkpt lat="45.06945" lon="5.55603">
        <ele>1044.99</ele>
        <time>2019-08-29T10:35:25Z</time>
      </trkpt>
      <trkpt lat="45.06945" lon="5.55594">
        <ele>1042.49</ele>
        <time>2019-08-29T10:35:32Z</time>
      </trkpt>
      <trkpt lat="45.06939" lon="5.55594">
        <ele>1041.81</ele>
        <time>2019-08-29T10:35:35Z</time>
      </trkpt>
      <trkpt lat="45.06937" lon="5.55597">
        <ele>1041.67</ele>
        <time>2019-08-29T10:35:36Z</time>
      </trkpt>
      <trkpt lat="45.06934" lon="5.55601">
        <ele>1041.54</ele>
        <time>2019-08-29T10:35:37Z</time>
      </trkpt>
      <trkpt lat="45.06909" lon="5.55632">
        <ele>1040.57</ele>
        <time>2019-08-29T10:35:45Z</time>
      </trkpt>
      <trkpt lat="45.06906" lon="5.55636">
        <ele>1040.4</ele>
        <time>2019-08-29T10:35:46Z</time>
      </trkpt>
      <trkpt lat="45.06867" lon="5.55689">
        <ele>1039.42</ele>
        <time>2019-08-29T10:35:58Z</time>
      </trkpt>
      <trkpt lat="45.0686" lon="5.55698">
        <ele>1039.49</ele>
        <time>2019-08-29T10:36:00Z</time>
      </trkpt>
      <trkpt lat="45.06825" lon="5.55739">
        <ele>1040.27</ele>
        <time>2019-08-29T10:36:10Z</time>
      </trkpt>
      <trkpt lat="45.0681" lon="5.55751">
        <ele>1040.53</ele>
        <time>2019-08-29T10:36:14Z</time>
      </trkpt>
      <trkpt lat="45.06797" lon="5.55757">
        <ele>1040.69</ele>
        <time>2019-08-29T10:36:17Z</time>
      </trkpt>
      <trkpt lat="45.06776" lon="5.55765">
        <ele>1040.75</ele>
        <time>2019-08-29T10:36:21Z</time>
      </trkpt>
      <trkpt lat="45.06766" lon="5.55769">
        <ele>1040.54</ele>
        <time>2019-08-29T10:36:23Z</time>
      </trkpt>
      <trkpt lat="45.06761" lon="5.55772">
        <ele>1040.4</ele>
        <time>2019-08-29T10:36:24Z</time>
      </trkpt>
      <trkpt lat="45.06756" lon="5.55774">
        <ele>1040.24</ele>
        <time>2019-08-29T10:36:25Z</time>
      </trkpt>
      <trkpt lat="45.0673" lon="5.55779">
        <ele>1039.47</ele>
        <time>2019-08-29T10:36:29Z</time>
      </trkpt>
      <trkpt lat="45.06723" lon="5.55778">
        <ele>1039.28</ele>
        <time>2019-08-29T10:36:30Z</time>
      </trkpt>
      <trkpt lat="45.06716" lon="5.55776">
        <ele>1039.06</ele>
        <time>2019-08-29T10:36:31Z</time>
      </trkpt>
      <trkpt lat="45.06659" lon="5.55743">
        <ele>1035.98</ele>
        <time>2019-08-29T10:36:40Z</time>
      </trkpt>
      <trkpt lat="45.06648" lon="5.55733">
        <ele>1034.98</ele>
        <time>2019-08-29T10:36:42Z</time>
      </trkpt>
      <trkpt lat="45.06643" lon="5.55725">
        <ele>1034.5</ele>
        <time>2019-08-29T10:36:43Z</time>
      </trkpt>
      <trkpt lat="45.06638" lon="5.55717">
        <ele>1033.99</ele>
        <time>2019-08-29T10:36:44Z</time>
      </trkpt>
      <trkpt lat="45.06635" lon="5.55707">
        <ele>1033.41</ele>
        <time>2019-08-29T10:36:45Z</time>
      </trkpt>
      <trkpt lat="45.06633" lon="5.55697">
        <ele>1032.81</ele>
        <time>2019-08-29T10:36:46Z</time>
      </trkpt>
      <trkpt lat="45.06632" lon="5.55686">
        <ele>1031.65</ele>
        <time>2019-08-29T10:36:47Z</time>
      </trkpt>
      <trkpt lat="45.06632" lon="5.55675">
        <ele>1031.15</ele>
        <time>2019-08-29T10:36:48Z</time>
      </trkpt>
      <trkpt lat="45.06633" lon="5.55664">
        <ele>1030.64</ele>
        <time>2019-08-29T10:36:49Z</time>
      </trkpt>
      <trkpt lat="45.06636" lon="5.55654">
        <ele>1030.11</ele>
        <time>2019-08-29T10:36:50Z</time>
      </trkpt>
      <trkpt lat="45.0664" lon="5.55644">
        <ele>1029.59</ele>
        <time>2019-08-29T10:36:51Z</time>
      </trkpt>
      <trkpt lat="45.06644" lon="5.55635">
        <ele>1029.08</ele>
        <time>2019-08-29T10:36:52Z</time>
      </trkpt>
      <trkpt lat="45.0665" lon="5.55626">
        <ele>1028.53</ele>
        <time>2019-08-29T10:36:53Z</time>
      </trkpt>
      <trkpt lat="45.06656" lon="5.55618">
        <ele>1027.91</ele>
        <time>2019-08-29T10:36:54Z</time>
      </trkpt>
      <trkpt lat="45.06663" lon="5.5561">
        <ele>1027.28</ele>
        <time>2019-08-29T10:36:55Z</time>
      </trkpt>
      <trkpt lat="45.06698" lon="5.55563">
        <ele>1024.07</ele>
        <time>2019-08-29T10:37:00Z</time>
      </trkpt>
      <trkpt lat="45.06723" lon="5.55514">
        <ele>1020.9</ele>
        <time>2019-08-29T10:37:04Z</time>
      </trkpt>
      <trkpt lat="45.06746" lon="5.55457">
        <ele>1017.52</ele>
        <time>2019-08-29T10:37:08Z</time>
      </trkpt>
      <trkpt lat="45.06763" lon="5.55413">
        <ele>1013.91</ele>
        <time>2019-08-29T10:37:11Z</time>
      </trkpt>
      <trkpt lat="45.06782" lon="5.55357">
        <ele>1010.78</ele>
        <time>2019-08-29T10:37:15Z</time>
      </trkpt>
      <trkpt lat="45.06785" lon="5.55345">
        <ele>1010.07</ele>
        <time>2019-08-29T10:37:16Z</time>
      </trkpt>
      <trkpt lat="45.06786" lon="5.55336">
        <ele>1009.39</ele>
        <time>2019-08-29T10:37:17Z</time>
      </trkpt>
      <trkpt lat="45.06783" lon="5.5531">
        <ele>1006.44</ele>
        <time>2019-08-29T10:37:24Z</time>
      </trkpt>
      <trkpt lat="45.0678" lon="5.55306">
        <ele>1006.22</ele>
        <time>2019-08-29T10:37:25Z</time>
      </trkpt>
      <trkpt lat="45.06776" lon="5.55303">
        <ele>1006.01</ele>
        <time>2019-08-29T10:37:26Z</time>
      </trkpt>
      <trkpt lat="45.06773" lon="5.55299">
        <ele>1005.81</ele>
        <time>2019-08-29T10:37:27Z</time>
      </trkpt>
      <trkpt lat="45.06752" lon="5.55251">
        <ele>1003.44</ele>
        <time>2019-08-29T10:37:37Z</time>
      </trkpt>
      <trkpt lat="45.06752" lon="5.55153">
        <ele>1001.38</ele>
        <time>2019-08-29T10:37:50Z</time>
      </trkpt>
      <trkpt lat="45.06755" lon="5.55029">
        <ele>998.34</ele>
        <time>2019-08-29T10:38:01Z</time>
      </trkpt>
      <trkpt lat="45.06758" lon="5.54942">
        <ele>994.89</ele>
        <time>2019-08-29T10:38:08Z</time>
      </trkpt>
      <trkpt lat="45.06759" lon="5.54858">
        <ele>991.77</ele>
        <time>2019-08-29T10:38:15Z</time>
      </trkpt>
      <trkpt lat="45.06761" lon="5.54802">
        <ele>989.35</ele>
        <time>2019-08-29T10:38:21Z</time>
      </trkpt>
      <trkpt lat="45.06761" lon="5.54795">
        <ele>989.02</ele>
        <time>2019-08-29T10:38:22Z</time>
      </trkpt>
      <trkpt lat="45.06762" lon="5.54778">
        <ele>987.84</ele>
        <time>2019-08-29T10:38:26Z</time>
      </trkpt>
      <trkpt lat="45.06761" lon="5.54776">
        <ele>987.31</ele>
        <time>2019-08-29T10:38:27Z</time>
      </trkpt>
      <trkpt lat="45.06749" lon="5.54766">
        <ele>986.16</ele>
        <time>2019-08-29T10:38:40Z</time>
      </trkpt>
      <trkpt lat="45.06732" lon="5.5477">
        <ele>985.89</ele>
        <time>2019-08-29T10:38:50Z</time>
      </trkpt>
      <trkpt lat="45.06705" lon="5.54778">
        <ele>987.78</ele>
        <time>2019-08-29T10:39:02Z</time>
      </trkpt>
      <trkpt lat="45.06683" lon="5.54785">
        <ele>990.68</ele>
        <time>2019-08-29T10:39:14Z</time>
      </trkpt>
      <trkpt lat="45.06661" lon="5.54794">
        <ele>993.63</ele>
        <time>2019-08-29T10:39:25Z</time>
      </trkpt>
      <trkpt lat="45.06637" lon="5.54801">
        <ele>996.01</ele>
        <time>2019-08-29T10:39:37Z</time>
      </trkpt>
      <trkpt lat="45.06579" lon="5.54821">
        <ele>997.23</ele>
        <time>2019-08-29T10:39:58Z</time>
      </trkpt>
      <trkpt lat="45.06529" lon="5.54839">
        <ele>998.98</ele>
        <time>2019-08-29T10:40:16Z</time>
      </trkpt>
      <trkpt lat="45.06485" lon="5.54841">
        <ele>999.83</ele>
        <time>2019-08-29T10:40:28Z</time>
      </trkpt>
      <trkpt lat="45.06403" lon="5.54829">
        <ele>997.41</ele>
        <time>2019-08-29T10:40:40Z</time>
      </trkpt>
      <trkpt lat="45.06332" lon="5.54818">
        <ele>994.16</ele>
        <time>2019-08-29T10:40:48Z</time>
      </trkpt>
      <trkpt lat="45.06231" lon="5.54808">
        <ele>991.8</ele>
        <time>2019-08-29T10:41:01Z</time>
      </trkpt>
      <trkpt lat="45.06183" lon="5.54778">
        <ele>991.66</ele>
        <time>2019-08-29T10:41:12Z</time>
      </trkpt>
      <trkpt lat="45.06178" lon="5.54773">
        <ele>991.71</ele>
        <time>2019-08-29T10:41:15Z</time>
      </trkpt>
      <trkpt lat="45.06177" lon="5.54774">
        <ele>991.74</ele>
        <time>2019-08-29T10:41:16Z</time>
      </trkpt>
      <trkpt lat="45.06175" lon="5.54775">
        <ele>991.77</ele>
        <time>2019-08-29T10:41:17Z</time>
      </trkpt>
      <trkpt lat="45.06173" lon="5.54777">
        <ele>991.82</ele>
        <time>2019-08-29T10:41:18Z</time>
      </trkpt>
      <trkpt lat="45.06172" lon="5.54779">
        <ele>991.87</ele>
        <time>2019-08-29T10:41:19Z</time>
      </trkpt>
      <trkpt lat="45.0617" lon="5.54782">
        <ele>991.93</ele>
        <time>2019-08-29T10:41:20Z</time>
      </trkpt>
      <trkpt lat="45.06169" lon="5.54785">
        <ele>992.09</ele>
        <time>2019-08-29T10:41:21Z</time>
      </trkpt>
      <trkpt lat="45.06168" lon="5.54788">
        <ele>992.16</ele>
        <time>2019-08-29T10:41:22Z</time>
      </trkpt>
      <trkpt lat="45.06167" lon="5.54791">
        <ele>992.22</ele>
        <time>2019-08-29T10:41:23Z</time>
      </trkpt>
      <trkpt lat="45.06165" lon="5.54793">
        <ele>992.3</ele>
        <time>2019-08-29T10:41:24Z</time>
      </trkpt>
      <trkpt lat="45.06164" lon="5.54796">
        <ele>992.38</ele>
        <time>2019-08-29T10:41:25Z</time>
      </trkpt>
      <trkpt lat="45.06163" lon="5.54798">
        <ele>992.47</ele>
        <time>2019-08-29T10:41:26Z</time>
      </trkpt>
      <trkpt lat="45.06162" lon="5.54801">
        <ele>992.58</ele>
        <time>2019-08-29T10:41:27Z</time>
      </trkpt>
      <trkpt lat="45.06161" lon="5.54803">
        <ele>992.72</ele>
        <time>2019-08-29T10:41:28Z</time>
      </trkpt>
      <trkpt lat="45.06147" lon="5.54821">
        <ele>994.73</ele>
        <time>2019-08-29T10:41:42Z</time>
      </trkpt>
      <trkpt lat="45.06138" lon="5.54825">
        <ele>994.65</ele>
        <time>2019-08-29T10:41:45Z</time>
      </trkpt>
      <trkpt lat="45.06135" lon="5.54821">
        <ele>994.65</ele>
        <time>2019-08-29T10:41:46Z</time>
      </trkpt>
      <trkpt lat="45.06135" lon="5.54817">
        <ele>994.39</ele>
        <time>2019-08-29T10:41:47Z</time>
      </trkpt>
      <trkpt lat="45.06138" lon="5.54814">
        <ele>994.17</ele>
        <time>2019-08-29T10:41:48Z</time>
      </trkpt>
      <trkpt lat="45.0614" lon="5.5481">
        <ele>993.92</ele>
        <time>2019-08-29T10:41:49Z</time>
      </trkpt>
      <trkpt lat="45.06143" lon="5.54806">
        <ele>993.63</ele>
        <time>2019-08-29T10:41:50Z</time>
      </trkpt>
      <trkpt lat="45.06153" lon="5.54789">
        <ele>992.72</ele>
        <time>2019-08-29T10:41:53Z</time>
      </trkpt>
      <trkpt lat="45.06156" lon="5.54783">
        <ele>992.47</ele>
        <time>2019-08-29T10:41:54Z</time>
      </trkpt>
      <trkpt lat="45.06159" lon="5.54778">
        <ele>992.2</ele>
        <time>2019-08-29T10:41:55Z</time>
      </trkpt>
      <trkpt lat="45.06161" lon="5.5477">
        <ele>991.86</ele>
        <time>2019-08-29T10:41:56Z</time>
      </trkpt>
      <trkpt lat="45.06159" lon="5.54763">
        <ele>991.47</ele>
        <time>2019-08-29T10:41:57Z</time>
      </trkpt>
      <trkpt lat="45.06156" lon="5.54757">
        <ele>991.06</ele>
        <time>2019-08-29T10:41:58Z</time>
      </trkpt>
      <trkpt lat="45.0615" lon="5.54754">
        <ele>990.67</ele>
        <time>2019-08-29T10:41:59Z</time>
      </trkpt>
      <trkpt lat="45.06145" lon="5.54753">
        <ele>990.3</ele>
        <time>2019-08-29T10:42:00Z</time>
      </trkpt>
      <trkpt lat="45.0614" lon="5.54753">
        <ele>990</ele>
        <time>2019-08-29T10:42:01Z</time>
      </trkpt>
      <trkpt lat="45.06136" lon="5.54753">
        <ele>989.76</ele>
        <time>2019-08-29T10:42:02Z</time>
      </trkpt>
      <trkpt lat="45.06131" lon="5.54754">
        <ele>989.57</ele>
        <time>2019-08-29T10:42:03Z</time>
      </trkpt>
      <trkpt lat="45.06126" lon="5.54755">
        <ele>989.43</ele>
        <time>2019-08-29T10:42:04Z</time>
      </trkpt>
      <trkpt lat="45.0605" lon="5.54748">
        <ele>990.26</ele>
        <time>2019-08-29T10:42:20Z</time>
      </trkpt>
      <trkpt lat="45.06021" lon="5.54743">
        <ele>990.97</ele>
        <time>2019-08-29T10:42:26Z</time>
      </trkpt>
      <trkpt lat="45.06016" lon="5.54743">
        <ele>991.05</ele>
        <time>2019-08-29T10:42:27Z</time>
      </trkpt>
      <trkpt lat="45.05996" lon="5.54744">
        <ele>991.41</ele>
        <time>2019-08-29T10:42:31Z</time>
      </trkpt>
      <trkpt lat="45.05935" lon="5.54764">
        <ele>992.59</ele>
        <time>2019-08-29T10:42:45Z</time>
      </trkpt>
      <trkpt lat="45.059" lon="5.54778">
        <ele>994.33</ele>
        <time>2019-08-29T10:42:57Z</time>
      </trkpt>
      <trkpt lat="45.05867" lon="5.54791">
        <ele>995.89</ele>
        <time>2019-08-29T10:43:08Z</time>
      </trkpt>
      <trkpt lat="45.05866" lon="5.5479">
        <ele>996.03</ele>
        <time>2019-08-29T10:43:09Z</time>
      </trkpt>
      <trkpt lat="45.05864" lon="5.54789">
        <ele>996.17</ele>
        <time>2019-08-29T10:43:10Z</time>
      </trkpt>
      <trkpt lat="45.05862" lon="5.54786">
        <ele>996.3</ele>
        <time>2019-08-29T10:43:11Z</time>
      </trkpt>
      <trkpt lat="45.05861" lon="5.54782">
        <ele>996.41</ele>
        <time>2019-08-29T10:43:12Z</time>
      </trkpt>
      <trkpt lat="45.0586" lon="5.54778">
        <ele>996.5</ele>
        <time>2019-08-29T10:43:13Z</time>
      </trkpt>
      <trkpt lat="45.0586" lon="5.54773">
        <ele>996.57</ele>
        <time>2019-08-29T10:43:14Z</time>
      </trkpt>
      <trkpt lat="45.0585" lon="5.54699">
        <ele>996.34</ele>
        <time>2019-08-29T10:43:28Z</time>
      </trkpt>
      <trkpt lat="45.05848" lon="5.54694">
        <ele>996.27</ele>
        <time>2019-08-29T10:43:29Z</time>
      </trkpt>
      <trkpt lat="45.05846" lon="5.54689">
        <ele>996.22</ele>
        <time>2019-08-29T10:43:30Z</time>
      </trkpt>
      <trkpt lat="45.05844" lon="5.54686">
        <ele>996.19</ele>
        <time>2019-08-29T10:43:31Z</time>
      </trkpt>
      <trkpt lat="45.05841" lon="5.54682">
        <ele>996.16</ele>
        <time>2019-08-29T10:43:32Z</time>
      </trkpt>
      <trkpt lat="45.05838" lon="5.54679">
        <ele>996.13</ele>
        <time>2019-08-29T10:43:33Z</time>
      </trkpt>
      <trkpt lat="45.05835" lon="5.54677">
        <ele>996.12</ele>
        <time>2019-08-29T10:43:34Z</time>
      </trkpt>
      <trkpt lat="45.05832" lon="5.54676">
        <ele>996.11</ele>
        <time>2019-08-29T10:43:35Z</time>
      </trkpt>
      <trkpt lat="45.0583" lon="5.54677">
        <ele>996.13</ele>
        <time>2019-08-29T10:43:36Z</time>
      </trkpt>
      <trkpt lat="45.05828" lon="5.54679">
        <ele>996.16</ele>
        <time>2019-08-29T10:43:37Z</time>
      </trkpt>
      <trkpt lat="45.05817" lon="5.54691">
        <ele>996.17</ele>
        <time>2019-08-29T10:43:44Z</time>
      </trkpt>
      <trkpt lat="45.05816" lon="5.5469">
        <ele>996.13</ele>
        <time>2019-08-29T10:43:45Z</time>
      </trkpt>
      <trkpt lat="45.05814" lon="5.54689">
        <ele>996.1</ele>
        <time>2019-08-29T10:43:46Z</time>
      </trkpt>
      <trkpt lat="45.05813" lon="5.54688">
        <ele>996.09</ele>
        <time>2019-08-29T10:43:47Z</time>
      </trkpt>
      <trkpt lat="45.05812" lon="5.54687">
        <ele>996.1</ele>
        <time>2019-08-29T10:43:48Z</time>
      </trkpt>
      <trkpt lat="45.05811" lon="5.54685">
        <ele>996.11</ele>
        <time>2019-08-29T10:43:49Z</time>
      </trkpt>
      <trkpt lat="45.05811" lon="5.54683">
        <ele>996.12</ele>
        <time>2019-08-29T10:43:50Z</time>
      </trkpt>
      <trkpt lat="45.05812" lon="5.54681">
        <ele>996.14</ele>
        <time>2019-08-29T10:43:51Z</time>
      </trkpt>
      <trkpt lat="45.05809" lon="5.54679">
        <ele>996.02</ele>
        <time>2019-08-29T10:44:09Z</time>
      </trkpt>
      <trkpt lat="45.05806" lon="5.54677">
        <ele>996.3</ele>
        <time>2019-08-29T10:44:35Z</time>
      </trkpt>
      <trkpt lat="45.05807" lon="5.54677">
        <ele>996.34</ele>
        <time>2019-08-29T10:45:03Z</time>
      </trkpt>
      <trkpt lat="45.05807" lon="5.54677">
        <ele>1021.2</ele>
        <time>2019-08-29T10:45:06Z</time>
      </trkpt>
    </trkseg>
  </trk>
</gpx>